[[{"header":{"parameterUnit":"m.s-1","parameterCategory":1,"la1":31.0,"la2":29.5877,"lo1":-88.7671,"lo2":-86.6584,"dy":0.0162,"dx":0.0185,"nx":115,"ny":88,"refTime":"2024-06-26T00:00:00:Z","depth":0,"parameterNumber":2,"parameterNumberName":"U-component_of_WINDS"},"data":[0.0,0.0,0.0,0.0,0.0,0.0,0.0,0.0,0.0,0.0,0.0,0.0,0.0,0.0,0.0,0.0,0.0,0.0,0.0,0.0,0.0,0.0,0.0,0.0,0.0,0.0,0.0,0.0,0.0,0.0,0.0,0.0,0.0,0.0,0.0,0.0,0.0,0.0,0.0,0.0,0.0,0.0,0.0,0.0,0.0,0.0,0.0,0.0,0.0,0.0,0.0,0.0,0.0,0.0,0.0,0.0,0.0,0.0,0.0,0.0,0.0,0.0,0.0,0.0,0.0,0.0,0.0,0.0,0.0,0.0,0.0,0.0,0.0,0.0,0.0,0.0,0.0,0.0,0.0,0.0,0.0,0.0,0.0,0.0,0.0,0.0,0.0,0.0,0.0,0.0,0.0,0.0,0.0,0.0,0.0,0.0,0.0,0.0,0.0,0.0,0.0,0.0,0.0,0.0,0.0,0.0,0.0,0.0,0.0,0.0,0.0,0.0,0.0,0.0,0.0,0.0,0.0,0.0,0.0,0.0,0.0,0.0,0.0,0.0,0.0,0.0,0.0,0.0,0.0,0.0,0.0,0.0,0.0,0.0,0.0,0.0,0.0,0.0,0.0,0.0,0.0,0.0,0.0,0.0,0.0,0.0,0.0,0.0,0.0,0.0,0.0,0.0,0.0,0.0,0.0,0.0,0.0,0.0,0.0,0.0,0.0,0.0,0.0,0.0,0.0,0.0,0.0,0.0,0.0,0.0,0.0,0.0,0.0,0.0,0.0,0.0,0.0,0.0,0.0,0.0,0.0,0.0,0.0,0.0,0.0,0.0,0.0,0.0,0.0,0.0,0.0,0.0,0.0,0.0,0.0,0.0,0.0,0.0,0.0,0.0,0.0,0.0,0.0,0.0,0.0,0.0,0.0,0.0,0.0,0.0,0.0,0.0,0.0,0.0,0.0,0.0,0.0,0.0,0.0,0.0,0.0,0.0,0.0,0.0,0.0,0.0,0.0,0.0,0.0,0.0,0.0,0.0,0.0,0.0,0.0,0.0,0.0,0.0,0.0,0.0,0.0,0.0,0.0,0.0,0.0,0.0,0.0,0.0,0.0,0.0,0.0,0.0,0.0,0.0,0.0,0.0,0.0,0.0,0.0,0.0,0.0,0.0,0.0,0.0,0.0,0.0,0.0,0.0,0.0,0.0,0.0,0.0,0.0,0.0,0.0,0.0,0.0,0.0,0.0,0.0,0.0,0.0,0.0,0.0,0.0,0.0,0.0,0.0,0.0,0.0,0.0,0.0,0.0,0.0,0.0,0.0,0.0,0.0,0.0,0.0,0.0,0.0,0.0,0.0,0.0,0.0,0.0,0.0,0.0,0.0,0.0,0.0,0.0,0.0,0.0,0.0,0.0,0.0,0.0,0.0,0.0,0.0,0.0,0.0,0.0,0.0,0.0,0.0,0.0,0.0,0.0,0.0,0.0,0.0,0.0,0.0,0.0,0.0,0.0,0.0,0.0,0.0,0.0,0.0,0.0,0.0,0.0,0.0,0.0,0.0,0.0,0.0,0.0,0.0,0.0,0.0,0.0,0.0,0.0,0.0,0.0,0.0,0.0,0.0,0.0,0.0,0.0,0.0,0.0,0.0,0.0,0.0,0.0,0.0,0.0,0.0,0.0,0.0,0.0,0.0,0.0,0.0,0.0,0.0,0.0,0.0,0.0,0.0,0.0,0.0,0.0,0.0,0.0,0.0,0.0,0.0,0.0,0.0,0.0,0.0,0.0,0.0,0.0,0.0,0.0,0.0,0.0,0.0,0.0,0.0,0.0,0.0,0.0,0.0,0.0,0.0,0.0,0.0,0.0,0.0,0.0,0.0,0.0,0.0,0.0,0.0,0.0,0.0,0.0,0.0,0.0,0.0,0.0,0.0,0.0,0.0,0.0,0.0,0.0,0.0,0.0,0.0,0.0,0.0,0.0,0.0,0.0,0.0,0.0,0.0,0.0,0.0,0.0,0.0,0.0,0.0,0.0,0.0,0.0,0.0,0.0,0.0,0.0,0.0,0.0,0.0,0.0,0.0,0.0,0.0,0.0,0.0,0.0,0.0,0.0,0.0,0.0,0.0,0.0,0.0,0.0,0.0,0.0,0.0,0.0,0.0,0.0,0.0,0.0,0.0,0.0,0.0,0.0,0.0,0.0,0.0,0.0,0.0,0.0,0.0,0.0,0.0,0.0,0.0,0.0,0.0,0.0,0.0,0.0,0.0,0.0,0.0,0.0,0.0,0.0,0.0,0.0,0.0,0.0,0.0,0.0,0.0,0.0,0.0,0.0,0.0,0.0,0.0,0.0,0.0,0.0,0.0,0.0,0.0,0.0,0.0,0.0,0.0,0.0,0.0,0.0,0.0,0.0,0.0,0.0,0.0,0.0,0.0,0.0,0.0,0.0,0.0,0.0,0.0,0.0,0.0,0.0,0.0,0.0,0.0,0.0,0.0,0.0,0.0,0.0,0.0,0.0,0.0,0.0,0.0,0.0,0.0,0.0,0.0,0.0,0.0,0.0,0.0,0.0,0.0,0.0,0.0,0.0,0.0,0.0,0.0,0.0,0.0,0.0,0.0,0.0,0.0,0.0,0.0,0.0,0.0,0.0,0.0,0.0,0.0,0.0,0.0,0.0,0.0,0.0,0.0,0.0,0.0,0.0,0.0,0.0,0.0,0.0,0.0,0.0,0.0,0.0,0.0,0.0,0.0,0.0,0.0,0.0,0.0,0.0,0.0,0.0,0.0,0.0,0.0,0.0,0.0,0.0,0.0,0.0,0.0,0.0,0.0,0.0,0.0,0.0,0.0,0.0,0.0,0.0,0.0,0.0,0.0,0.0,0.0,0.0,0.0,0.0,0.0,0.0,0.0,0.0,0.0,0.0,0.0,0.0,0.0,0.0,0.0,0.0,0.0,0.0,0.0,0.0,0.0,0.0,0.0,0.0,0.0,0.0,0.0,0.0,0.0,0.0,0.0,0.0,0.0,0.0,0.0,0.0,0.0,0.0,0.0,0.0,0.0,0.0,0.0,0.0,0.0,0.0,0.0,0.0,0.0,0.0,0.0,0.0,0.0,0.0,0.0,0.0,0.0,0.0,0.0,0.0,0.0,0.0,0.0,0.0,0.0,0.0,0.0,0.0,0.0,0.0,0.0,0.0,0.0,0.0,0.0,0.0,0.0,0.0,0.0,0.0,0.0,0.0,0.0,0.0,0.0,0.0,0.0,0.0,0.0,0.0,0.0,0.0,0.0,0.0,0.0,0.0,0.0,0.0,0.0,0.0,0.0,0.0,0.0,0.0,0.0,0.0,0.0,0.0,0.0,0.0,0.0,0.0,0.0,0.0,0.0,0.0,0.0,0.0,0.0,0.0,0.0,0.0,0.0,0.0,0.0,0.0,0.0,0.0,0.0,0.0,0.0,0.0,0.0,0.0,0.0,0.0,0.0,0.0,0.0,0.0,0.0,0.0,0.0,0.0,0.0,0.0,0.0,0.0,0.0,0.0,0.0,0.0,0.0,0.0,0.0,0.0,0.0,0.0,0.0,0.0,0.0,0.0,0.0,0.0,0.0,0.0,0.0,0.0,0.0,0.0,0.0,0.0,0.0,0.0,0.0,0.0,0.0,0.0,0.0,0.0,0.0,0.0,0.0,0.0,0.0,0.0,0.0,0.0,0.0,0.0,0.0,0.0,0.0,0.0,0.0,0.0,0.0,0.0,0.0,0.0,0.0,0.0,0.0,0.0,0.0,0.0,0.0,0.0,0.0,0.0,0.0,0.0,0.0,0.0,0.0,0.0,0.0,0.0,0.0,0.0,0.0,0.0,0.0,0.0,0.0,0.0,0.0,0.0,0.0,0.0,0.0,0.0,0.0,0.0,0.0,0.0,0.0,0.0,0.0,0.0,0.0,0.0,0.0,0.0,0.0,0.0,0.0,0.0,0.0,0.0,0.0,0.0,0.0,0.0,0.0,0.0,0.0,0.0,0.0,0.0,0.0,0.0,0.0,0.0,0.0,0.0,0.0,0.0,0.0,0.0,0.0,0.0,0.0,0.0,0.0,0.0,0.0,0.0,0.0,0.0,0.0,0.0,0.0,0.0,0.0,0.0,0.0,0.0,0.0,0.0,0.0,0.0,0.0,0.0,0.0,0.0,0.0,0.0,0.0,0.0,0.0,0.0,0.0,0.0,0.0,0.0,0.0,0.0,0.0,0.0,0.0,0.0,0.0,0.0,0.0,0.0,0.0,1.4342,0.0,0.0,0.0,0.0,0.0,0.0,0.0,0.0,0.0,0.0,0.0,0.0,0.0,0.0,0.0,0.0,0.0,0.0,0.0,0.0,0.0,0.0,0.0,0.0,0.0,0.0,0.0,0.0,0.0,0.0,0.0,0.0,0.0,0.0,0.0,0.0,0.0,0.0,0.0,0.0,0.0,0.0,0.0,0.0,0.0,0.0,0.0,0.0,0.0,0.0,0.0,0.0,0.0,0.0,0.0,0.0,0.0,0.0,0.0,0.0,0.0,0.0,0.0,0.0,0.0,0.0,0.0,0.0,0.0,0.0,0.0,0.0,0.0,0.0,0.0,0.0,0.0,0.0,0.0,0.0,0.0,0.0,0.0,0.0,0.0,0.0,0.0,0.0,0.0,0.0,0.0,0.0,0.0,0.0,0.0,0.0,0.0,0.0,0.0,0.0,0.0,0.0,0.0,0.0,0.0,0.0,0.0,0.0,0.0,0.0,1.639,1.6203,1.4926,1.4223,1.4158,0.0,0.0,0.0,0.0,0.0,0.0,0.0,0.0,0.0,0.0,0.0,0.0,0.0,0.0,0.0,0.0,0.0,0.0,0.0,0.0,0.0,0.0,0.0,0.0,0.0,0.0,0.0,0.0,0.0,0.0,0.0,0.0,0.0,0.0,0.0,0.0,0.0,0.0,0.0,0.0,0.0,0.0,0.0,0.0,0.0,0.0,0.0,0.0,0.0,0.0,0.0,0.0,0.0,0.0,0.0,0.0,0.0,0.0,0.0,0.0,0.0,0.0,0.0,0.0,0.0,0.0,0.0,0.0,0.0,0.0,0.0,0.0,0.0,0.0,0.0,0.0,0.0,0.0,0.0,0.0,0.0,0.0,0.0,0.0,0.0,0.0,0.0,0.0,0.0,0.0,0.0,0.0,0.0,0.0,0.0,0.0,0.0,0.0,0.0,0.0,0.0,0.0,0.0,0.0,0.0,0.0,0.0,0.0,0.0,0.0,0.0,0.0,1.4954,1.421,1.3857,0.0,0.0,0.0,0.0,0.0,0.0,0.0,0.0,0.0,0.0,0.0,0.0,0.0,0.0,0.0,0.0,0.0,0.0,0.0,0.0,0.0,0.0,0.0,0.0,0.0,0.0,0.0,0.0,0.0,0.0,0.0,0.0,0.0,0.0,0.0,0.0,0.0,0.0,0.0,0.0,0.0,0.0,0.0,0.0,0.0,0.0,0.0,0.0,0.0,0.0,0.0,0.0,0.0,0.0,0.0,0.0,0.0,0.0,0.0,0.0,0.0,0.0,0.0,0.0,0.0,0.0,0.0,0.0,0.0,0.0,0.0,0.0,0.0,0.0,0.0,0.0,0.0,0.0,0.0,0.0,0.0,0.0,0.0,0.0,0.0,0.0,0.0,0.0,0.0,0.0,0.0,0.0,0.0,0.0,0.0,0.0,0.0,0.0,0.0,0.0,0.0,0.0,0.0,0.0,0.0,0.0,0.0,0.0,0.0,0.0,1.5943,1.6323,1.5654,0.0,1.3712,0.0,0.0,0.0,0.0,0.0,0.0,0.0,0.0,0.0,0.0,0.0,0.0,0.0,0.0,0.0,0.0,0.0,0.0,0.0,0.0,0.0,0.0,0.0,0.0,0.0,0.0,0.0,0.0,0.0,0.0,0.0,0.0,0.0,0.0,0.0,0.0,0.0,0.0,0.0,0.0,0.0,0.0,0.0,0.0,0.0,0.0,0.0,0.0,0.0,0.0,0.0,0.0,0.0,0.0,0.0,0.0,0.0,0.0,0.0,0.0,0.0,0.0,0.0,0.0,0.0,0.0,0.0,0.0,0.0,0.0,0.0,0.0,0.0,0.0,0.0,0.0,0.0,0.0,0.0,0.0,0.0,0.0,0.0,0.0,0.0,0.0,0.0,0.0,0.0,0.0,0.0,0.0,0.0,0.0,0.0,0.0,0.0,0.0,0.0,0.0,0.0,0.0,0.0,0.0,0.0,0.0,0.0,0.0,0.0,0.0,1.5787,1.5771,1.4786,1.3757,0.0,0.0,0.0,0.0,0.0,0.0,0.0,0.0,0.0,0.0,0.0,0.0,0.0,0.0,0.0,0.0,0.0,0.0,0.0,0.0,0.0,0.0,0.0,0.0,0.0,0.0,0.0,0.0,0.0,0.0,0.0,0.0,0.0,0.0,0.0,0.0,0.0,0.0,0.0,0.0,0.0,0.0,0.0,0.0,0.0,0.0,0.0,0.0,0.0,0.0,0.0,0.0,0.0,0.0,0.0,0.0,0.0,0.0,0.0,0.0,0.0,0.0,0.0,0.0,0.0,0.0,0.0,0.0,0.0,0.0,0.0,0.0,0.0,0.0,0.0,0.0,0.0,0.0,0.0,0.0,0.0,0.0,0.0,0.0,0.0,0.0,0.0,0.0,0.0,0.0,0.0,0.0,0.0,0.0,0.0,0.0,0.0,0.0,0.0,0.0,0.0,0.0,0.0,0.0,0.0,0.0,0.0,0.0,0.0,0.0,1.552,1.5494,1.5114,1.4144,1.3104,1.2084,0.0,0.0,0.0,0.0,0.0,0.0,0.0,0.0,0.0,0.0,0.0,0.0,0.0,0.0,0.0,0.0,0.0,0.0,0.0,0.0,0.0,0.0,0.0,0.0,0.0,0.0,0.0,0.0,0.0,0.0,0.0,0.0,0.0,0.0,0.0,0.0,0.0,0.0,0.0,0.0,0.0,0.0,0.0,0.0,0.0,0.0,0.0,0.0,0.0,0.0,0.0,0.0,0.0,0.0,0.0,0.0,0.0,0.0,0.0,0.0,0.0,0.0,0.0,0.0,0.0,0.0,0.0,0.0,0.0,0.0,0.0,0.0,0.0,0.0,0.0,0.0,0.0,0.0,0.0,0.0,0.0,0.0,0.0,0.0,0.0,0.0,0.0,0.0,0.0,0.0,0.0,0.0,0.0,0.0,0.0,0.0,0.0,0.0,0.0,0.0,0.0,0.0,0.0,0.0,0.0,0.0,0.0,0.0,0.0,1.5266,1.4935,1.4719,1.4166,1.3413,0.0,0.0,0.0,0.0,0.0,0.0,0.0,0.0,0.0,0.0,0.0,0.0,0.0,0.0,0.0,0.0,0.0,0.0,0.0,0.0,0.0,0.0,0.0,0.0,0.0,0.0,0.0,0.0,0.0,0.0,0.0,0.0,0.0,0.0,0.0,0.0,0.0,0.0,0.0,0.0,0.0,0.0,0.0,0.0,0.0,0.0,0.0,0.0,0.0,0.0,0.0,0.0,0.0,0.0,0.0,0.0,0.0,0.0,0.0,0.0,0.0,0.0,0.0,0.0,0.0,0.0,0.0,0.0,0.0,0.0,0.0,0.0,0.0,0.0,0.0,0.0,0.0,0.0,0.0,0.0,0.0,0.0,0.0,0.0,0.0,0.0,0.0,0.0,0.0,0.0,0.0,0.0,0.0,0.0,0.0,0.0,0.0,0.0,0.0,0.0,0.0,0.0,0.0,0.0,0.0,0.0,0.0,0.0,0.0,1.4206,1.3995,1.3742,1.3539,1.2838,1.2239,0.0,0.0,0.0,0.0,0.0,0.0,0.0,0.0,0.0,0.0,0.0,0.0,0.0,0.0,0.0,0.0,0.0,0.0,0.0,0.0,0.0,0.0,0.0,0.0,0.0,0.0,0.0,0.0,0.0,0.0,0.0,0.0,0.0,0.0,0.0,0.0,0.0,0.0,0.0,0.0,0.0,0.0,0.0,0.0,0.0,0.0,0.0,0.0,0.0,0.0,0.0,0.0,0.0,0.0,0.0,0.0,0.0,0.0,0.0,0.0,0.0,0.0,0.0,0.0,0.0,0.0,0.0,0.0,0.0,0.0,0.0,0.0,0.0,0.0,0.0,0.0,0.0,0.0,0.0,0.0,0.0,0.0,0.0,0.0,0.0,0.0,0.0,0.0,0.0,0.0,0.0,0.0,0.0,0.0,0.0,0.0,0.0,0.0,0.0,0.0,0.0,0.0,0.0,0.0,0.0,0.0,0.0,0.0,0.0,1.3204,0.0,1.2816,0.0,1.186,1.126,0.0,0.0,0.0,0.0,0.0,0.0,0.0,0.0,0.0,0.0,0.0,0.0,0.0,0.0,0.0,0.0,0.0,0.0,0.0,0.0,0.0,0.0,0.0,0.0,0.0,0.0,0.0,0.0,0.0,0.0,0.0,0.0,0.0,0.0,0.0,0.0,0.0,0.0,0.0,0.0,0.0,0.0,0.0,0.0,0.0,0.0,0.0,0.0,0.0,0.0,0.0,0.0,0.0,0.0,0.0,0.0,0.0,0.0,0.0,0.0,0.0,0.0,0.0,0.0,0.0,0.0,0.0,0.0,0.0,0.0,0.0,0.0,0.0,0.0,0.0,0.0,0.0,0.0,0.0,0.0,0.0,0.0,0.0,0.0,0.0,0.0,0.0,0.0,0.0,0.0,0.0,0.0,0.0,0.0,0.0,0.0,0.0,0.0,0.0,0.0,0.0,0.0,0.0,0.0,0.0,0.0,0.0,0.0,1.2911,1.296,1.2567,1.2218,1.1895,1.1302,1.0625,0.0,0.0,0.0,0.0,0.0,0.0,0.0,0.0,0.0,0.0,0.0,0.0,0.0,0.0,0.0,0.0,0.0,0.0,0.0,0.0,0.0,0.0,0.0,0.0,0.0,0.0,0.0,0.0,0.0,0.0,0.0,0.0,0.0,0.0,0.0,0.0,0.0,0.0,0.0,0.0,0.0,0.0,0.0,0.0,0.0,0.0,0.0,0.0,0.0,0.0,0.0,0.0,0.0,0.0,0.0,0.0,0.0,0.0,0.0,0.0,0.0,0.0,0.0,0.0,0.0,0.0,0.0,0.0,0.0,0.0,0.0,0.0,0.0,0.0,0.0,0.0,0.0,0.0,0.0,0.0,0.0,0.0,0.0,0.0,0.0,0.0,0.0,0.0,0.0,0.0,0.0,0.0,0.0,0.0,0.0,0.0,0.0,0.0,0.0,0.0,0.0,0.0,0.0,0.0,0.0,0.0,0.0,0.0,0.0,1.1598,1.1241,1.1155,1.1454,1.0761,1.039,0.0,0.0,0.0,0.0,0.0,0.0,0.0,0.0,0.0,0.0,0.0,0.0,0.0,0.0,0.0,0.0,0.0,0.0,0.0,0.0,0.0,0.0,0.0,0.0,0.0,0.0,0.0,0.0,0.0,0.0,0.0,0.0,0.0,0.0,0.0,0.0,0.0,0.0,0.0,0.0,0.0,0.0,0.0,0.0,0.0,0.0,0.0,0.0,0.0,0.0,0.0,0.0,0.0,0.0,0.0,0.0,0.0,0.0,0.0,0.0,0.0,0.0,0.0,0.0,0.0,0.0,0.0,0.0,0.0,0.0,0.0,0.0,0.0,0.0,0.0,0.0,0.0,0.0,0.0,0.0,0.0,0.0,0.0,0.0,0.0,0.0,0.0,0.0,0.0,0.0,0.0,0.0,0.0,0.0,0.0,0.0,0.0,0.0,0.0,0.0,0.0,0.0,0.0,0.0,0.0,0.0,0.0,0.0,0.0,1.1238,1.0852,1.0723,1.0976,1.038,1.0199,1.0489,0.0,0.0,0.0,0.0,0.0,0.0,0.0,0.0,0.0,0.0,0.0,0.0,0.0,0.0,0.0,0.0,0.0,0.0,0.0,0.0,0.0,0.0,0.0,0.0,0.0,0.0,0.0,0.0,0.0,0.0,0.0,0.0,0.0,0.0,0.0,0.0,0.0,0.0,0.0,0.0,0.0,0.0,0.0,0.0,0.0,0.0,0.0,0.0,0.0,0.0,0.0,0.0,0.0,0.0,0.0,0.0,0.0,0.0,0.0,0.0,0.0,0.0,0.0,0.0,0.0,0.0,0.0,0.0,0.0,0.0,0.0,0.0,0.0,0.0,0.0,0.0,0.0,0.0,0.0,0.0,0.0,0.0,0.0,0.0,0.0,0.0,0.0,0.0,0.0,0.0,0.0,0.0,0.0,0.0,0.0,0.0,0.0,0.0,0.0,0.0,0.0,0.0,0.0,0.0,0.0,0.0,0.0,0.0,1.164,1.1236,1.0862,1.0543,1.0279,1.016,0.0,0.0,0.0,0.0,0.0,0.0,0.0,0.0,0.0,0.0,0.0,0.0,0.0,0.0,0.0,0.0,0.0,0.0,0.0,0.0,0.0,0.0,0.0,0.0,0.0,0.0,0.0,0.0,0.0,0.0,0.0,0.0,0.0,0.0,0.0,0.0,0.0,0.0,0.0,0.0,0.0,0.0,0.0,0.0,0.0,0.0,0.0,0.0,0.0,0.0,0.0,0.0,0.0,0.0,0.0,0.0,0.0,0.0,0.0,0.0,0.0,0.0,0.0,0.0,0.0,0.0,0.0,0.0,0.0,0.0,0.0,0.0,0.0,0.0,0.0,0.0,0.0,0.0,0.0,0.0,0.0,0.0,0.0,0.0,0.0,0.0,0.0,0.0,0.0,0.0,0.0,0.0,0.0,0.0,0.0,0.0,0.0,0.0,0.0,0.0,0.0,0.0,0.0,0.0,0.0,0.0,0.0,0.0,0.0,1.0922,1.1067,1.1358,1.1762,1.0848,1.0531,0.0,0.0,0.0,0.0,0.0,0.0,0.0,0.0,0.0,0.0,0.0,0.0,0.0,0.0,0.0,0.0,0.0,0.0,0.0,0.0,0.0,0.0,0.0,0.0,0.0,0.0,0.0,0.0,0.0,0.0,0.0,0.0,0.0,0.0,0.0,0.0,0.0,0.0,0.0,0.0,0.0,0.0,0.0,0.0,0.0,0.0,0.0,0.0,0.0,0.0,0.0,0.0,0.0,0.0,0.0,0.0,0.0,0.0,0.0,0.0,0.0,0.0,0.0,0.0,0.0,0.0,0.0,0.0,0.0,0.0,0.0,0.0,0.0,0.0,0.0,0.0,0.0,0.0,0.0,0.0,0.0,0.0,0.0,0.0,0.0,0.0,0.0,0.0,0.0,0.0,0.0,0.0,0.0,0.0,0.0,0.0,0.0,0.0,0.0,0.0,0.0,0.0,0.0,0.0,0.0,0.0,0.0,0.0,1.1169,1.1463,1.1413,1.1594,1.217,1.1131,1.0716,0.0,0.0,0.0,0.0,0.0,0.0,0.0,0.0,0.0,0.0,0.0,0.0,0.0,0.0,0.0,0.0,0.0,0.0,0.0,0.0,0.0,0.0,0.0,0.0,0.0,0.0,0.0,0.0,0.0,0.0,0.0,0.0,0.0,0.0,0.0,0.0,0.0,0.0,0.0,0.0,0.0,0.0,0.0,0.0,0.0,0.0,0.0,0.0,0.0,0.0,0.0,0.0,0.0,0.0,0.0,0.0,0.0,0.0,0.0,0.0,0.0,0.0,0.0,0.0,0.0,0.0,0.0,0.0,0.0,0.0,0.0,0.0,0.0,0.0,0.0,0.0,0.0,0.0,0.0,0.0,0.0,0.0,0.0,0.0,0.0,0.0,0.0,0.0,0.0,0.0,0.0,0.0,0.0,0.0,0.0,0.0,0.0,0.0,0.0,0.0,0.0,0.0,0.0,0.0,0.0,0.0,0.0,0.0,1.1746,1.2555,1.1855,1.1673,1.2017,1.1244,1.0816,0.0,0.0,0.0,0.0,0.0,0.0,0.0,0.0,0.0,0.0,0.0,0.0,0.0,0.0,0.0,0.0,0.0,0.0,0.0,0.0,0.0,0.0,0.0,0.0,0.0,0.0,0.0,0.0,0.0,0.0,0.0,0.0,0.0,0.0,0.0,0.0,0.0,0.0,0.0,0.0,0.0,0.0,0.0,0.0,0.0,0.0,0.0,0.0,0.0,0.0,0.0,0.0,0.0,0.0,0.0,0.0,0.0,0.0,0.0,0.0,0.0,0.0,0.0,0.0,0.0,0.0,0.0,0.0,0.0,0.0,0.0,0.0,0.0,0.0,0.0,0.0,0.0,0.0,0.0,0.0,0.0,0.0,0.0,0.0,0.0,0.0,0.0,0.0,0.0,0.0,0.0,0.0,0.0,0.0,0.0,0.0,0.0,0.0,0.0,0.0,0.0,0.0,0.0,0.0,0.0,0.0,0.0,0.0,1.172,1.2002,1.1469,1.1427,1.1923,1.116,1.0824,0.0,0.0,0.0,0.0,0.0,0.0,0.0,0.0,0.0,0.0,0.0,0.0,0.0,0.0,0.0,0.0,0.0,0.0,0.0,0.0,0.0,0.0,0.0,0.0,0.0,0.0,0.0,0.0,0.0,0.0,0.0,0.0,0.0,0.0,0.0,0.0,0.0,0.0,0.0,0.0,0.0,0.0,0.0,0.0,0.0,0.0,0.0,0.0,1.1842,0.0,0.0,0.0,0.0,0.0,0.0,0.0,0.0,0.0,0.0,0.0,0.0,0.0,0.0,0.0,0.0,0.0,0.0,0.0,0.0,0.0,0.0,0.0,0.0,0.0,0.0,0.0,0.0,0.0,0.0,0.0,0.0,0.0,0.0,0.0,0.0,0.0,0.0,0.0,0.0,0.0,0.0,0.0,0.0,0.0,0.0,0.0,0.0,0.0,0.0,0.0,0.0,0.0,0.0,0.0,0.0,0.0,0.0,0.0,1.1567,1.1672,1.1215,1.1175,1.1364,1.1034,1.0859,0.0,0.0,0.0,0.0,0.0,0.0,0.0,0.0,0.0,0.0,0.0,0.0,0.0,0.0,0.0,0.0,0.0,0.0,0.0,0.0,0.0,0.0,0.0,0.0,0.0,0.0,0.0,0.0,0.0,0.0,0.0,0.0,0.0,0.0,0.0,0.0,0.0,0.0,0.0,0.0,0.0,0.0,0.0,0.0,0.0,0.0,0.0,0.0,0.0,0.0,0.0,0.0,0.0,0.0,0.0,0.0,0.0,0.0,0.0,0.0,0.0,0.0,0.0,0.0,0.0,0.0,0.0,0.0,0.0,0.0,0.0,0.0,0.0,0.0,0.0,0.0,0.0,0.0,0.0,0.0,0.0,0.0,0.0,0.0,0.0,0.0,0.0,0.0,0.0,0.0,0.0,0.0,0.0,0.0,0.0,0.0,0.0,0.0,0.0,0.0,0.0,0.0,0.0,0.0,0.0,0.0,0.0,1.0993,1.1427,1.1473,1.1124,1.0922,1.0968,1.0922,1.0921,1.0912,0.0,0.0,0.0,0.0,0.0,0.0,0.0,0.0,0.0,0.0,0.0,0.0,0.0,0.0,0.0,0.0,0.0,0.0,0.0,0.0,0.0,0.0,0.0,0.0,0.0,0.0,0.0,0.0,0.0,0.0,0.0,0.0,0.0,0.0,0.0,0.0,0.0,0.0,1.115,1.1419,0.0,0.0,0.0,0.0,0.0,0.0,0.0,0.0,1.1272,0.0,0.0,0.0,0.0,0.0,0.0,0.0,0.0,0.0,0.0,0.0,0.0,0.0,0.0,0.0,0.0,0.0,0.0,0.0,0.0,0.0,0.0,0.0,0.0,0.0,0.0,0.0,0.0,0.0,0.0,0.0,0.0,0.0,0.0,0.0,0.0,0.0,0.0,0.0,0.0,0.0,0.0,0.0,0.0,0.0,0.0,0.0,0.0,0.0,0.0,0.0,0.0,0.0,0.0,0.0,0.0,1.1061,1.1588,1.1669,1.1326,1.1074,1.1019,1.1309,1.1065,1.1005,1.1312,0.0,0.0,0.0,0.0,0.0,0.0,0.0,0.0,0.0,0.0,0.0,0.0,0.0,0.0,0.0,0.0,0.0,0.0,0.0,0.0,0.0,0.0,0.0,0.0,0.0,0.0,0.0,0.0,0.0,0.0,0.0,0.0,0.0,0.0,0.0,0.0,0.0,0.0,0.0,1.0097,1.0264,0.0,0.0,0.0,0.0,0.0,0.0,0.0,0.0,1.0808,0.0,0.0,0.0,0.0,0.0,0.0,0.0,0.0,0.0,0.0,0.0,0.0,0.0,0.0,0.0,0.0,0.0,0.0,0.0,0.0,0.0,0.0,0.0,0.0,0.0,0.0,0.0,0.0,0.0,0.0,0.0,0.0,0.0,0.0,0.0,0.0,0.0,0.0,0.0,0.0,0.0,0.0,0.0,0.0,0.0,0.0,0.0,0.0,0.0,0.0,0.0,0.0,0.0,0.0,0.0,1.0746,1.156,1.1615,1.0897,1.0863,1.0905,1.0986,1.0718,1.0798,0.0,0.0,0.0,0.0,0.0,0.0,0.0,0.0,0.0,0.0,0.0,0.0,0.0,0.0,0.0,0.0,0.0,0.0,0.0,0.0,0.0,0.0,0.0,0.0,0.0,0.0,0.0,0.0,0.0,0.0,0.0,0.0,0.0,0.0,0.0,0.0,0.0,0.0,0.0,0.0,0.9633,0.981,1.0344,0.0,0.0,0.0,0.0,0.0,0.0,1.0773,1.0574,0.0,0.0,0.0,0.0,0.0,0.0,0.0,0.0,0.0,0.0,0.0,0.0,0.0,0.0,0.0,0.0,0.0,0.0,0.0,0.0,0.0,0.0,0.0,0.0,0.0,0.0,0.0,0.0,0.0,0.0,0.0,0.0,0.0,0.0,0.0,0.0,0.0,0.0,0.0,0.0,0.0,0.0,0.0,0.0,0.0,0.0,0.0,0.0,0.0,0.0,0.0,0.0,0.0,0.0,0.0,1.0043,1.1266,1.136,1.0368,1.0647,1.0795,1.0661,1.0598,1.078,0.0,0.0,0.0,0.0,0.0,0.0,0.0,0.0,0.0,0.0,0.0,0.0,0.0,0.0,0.0,0.0,0.0,0.0,0.0,0.0,0.0,0.0,0.0,0.0,0.0,0.0,0.0,0.0,0.0,0.0,0.0,0.0,0.0,0.0,0.0,0.0,0.0,0.0,0.0,0.0,0.0,0.9463,0.9892,0.9917,0.0,0.0,0.0,0.0,1.0415,1.0466,0.0,0.0,0.0,0.0,0.0,0.0,0.0,0.0,0.0,0.0,0.0,0.0,0.0,0.0,0.0,0.0,0.0,0.0,0.0,0.0,0.0,0.0,0.0,0.0,0.0,0.0,0.0,0.0,0.0,0.0,0.0,0.0,0.0,0.0,0.0,0.0,0.0,0.0,0.0,0.0,0.0,0.0,0.0,0.0,0.0,0.0,0.0,0.0,0.0,0.0,0.0,0.0,0.0,0.0,0.0,0.0,0.9388,1.0597,1.0804,0.9969,1.0494,1.0799,1.0771,1.1258,1.1444,0.0,0.0,0.0,0.0,0.0,0.0,0.0,0.0,0.0,0.0,0.0,0.0,0.0,0.0,0.0,0.0,0.0,0.0,0.0,0.0,0.0,0.0,0.0,0.0,0.0,0.0,0.0,0.0,0.0,0.0,0.0,0.0,0.0,0.0,0.0,0.0,0.0,0.0,0.0,0.0,0.0,0.8752,0.9598,0.9356,0.9238,0.0,0.0,1.0051,1.0051,1.0312,0.0,0.0,0.0,0.0,0.0,0.0,0.0,0.0,0.0,0.0,0.0,0.0,0.0,0.0,0.0,0.0,0.0,0.0,0.0,0.0,0.0,0.0,0.0,0.0,0.0,0.0,0.0,0.0,0.0,0.0,0.0,0.0,0.0,0.0,0.0,0.0,0.0,0.0,0.0,0.0,0.0,0.0,0.0,0.0,0.0,0.0,0.0,0.0,0.0,0.0,0.0,0.0,0.0,0.0,0.0,0.9424,0.9286,1.0818,1.1209,1.0316,1.0643,1.1002,1.1266,1.0778,1.07,0.0,0.0,0.0,0.0,0.0,0.0,0.0,0.0,0.0,0.0,0.0,0.0,0.0,0.0,0.0,0.0,0.0,0.0,0.0,0.0,0.0,0.0,0.0,0.0,0.0,0.0,0.0,0.0,0.0,0.0,0.0,0.0,0.0,0.0,0.0,0.0,0.0,0.0,0.0,0.0,0.0,0.0,0.934,0.9136,0.0,0.0,0.0,0.9621,0.9681,0.0,0.0,0.0,0.0,0.0,0.0,0.0,0.0,0.0,0.0,0.0,0.0,0.0,0.0,0.0,0.0,0.0,0.0,0.0,0.0,0.0,0.0,0.0,0.0,0.0,0.0,0.0,0.0,0.0,0.0,0.0,0.0,0.0,0.0,0.0,0.0,0.0,0.0,0.0,0.0,0.0,0.0,0.0,0.0,0.0,0.0,0.0,0.0,0.0,0.0,0.0,0.0,0.0,0.0,0.0,0.0,0.0,0.8927,1.0714,1.1191,1.0269,1.0643,1.1006,1.1316,1.0418,0.0,0.0,0.0,0.0,0.0,0.0,0.0,0.0,0.0,0.0,0.0,0.0,0.0,0.0,0.0,0.0,0.0,0.0,0.0,0.0,0.0,0.0,0.0,0.0,0.0,0.0,0.0,0.7293,0.0,0.0,0.0,0.0,0.0,0.0,0.0,0.0,0.0,0.0,0.0,0.0,0.0,0.0,0.8951,0.9357,0.9304,0.927,0.0,0.0,0.9413,0.9413,0.9514,0.9593,0.0,0.0,0.0,0.0,0.0,0.0,0.0,0.0,0.0,0.0,0.0,0.0,0.0,0.0,0.0,0.0,0.0,0.0,0.0,0.0,0.0,0.0,0.0,0.0,0.0,0.0,0.0,0.0,0.0,0.0,0.0,0.0,0.0,0.0,0.0,0.0,0.0,0.0,0.0,0.0,0.0,0.0,0.0,0.0,0.0,0.0,0.0,0.0,0.0,0.0,0.0,0.0,0.0,0.0,0.0,0.8072,0.9642,1.0119,0.9364,1.0289,1.0753,1.0608,1.0838,1.0889,0.0,0.0,0.0,0.0,0.0,0.0,0.0,0.0,0.0,0.0,0.0,0.0,0.0,0.0,0.0,0.0,0.0,0.0,0.0,0.0,0.0,0.0,0.0,0.0,0.0,0.0,0.0,0.0,0.0,0.0,0.0,0.0,0.0,0.0,0.0,0.0,0.0,0.0,0.0,0.0,0.0,0.9524,1.0006,0.9868,0.9731,0.0,0.0,0.9458,0.9566,0.9618,0.9618,0.9598,0.0,0.0,0.0,0.0,0.0,0.0,0.0,0.0,0.0,0.0,0.0,0.0,0.0,0.0,0.0,0.0,0.0,0.0,0.0,0.0,0.0,0.0,0.0,0.0,0.0,0.0,0.0,0.0,0.0,0.0,0.0,0.0,0.0,0.0,0.0,0.0,0.0,0.0,0.0,0.0,0.0,0.0,0.0,0.0,0.0,0.0,0.0,0.0,0.0,0.0,0.0,0.0,0.0,0.8612,0.8392,0.9784,1.0438,1.0237,1.0744,1.1204,1.1534,1.1091,1.0926,0.0,0.0,0.0,0.0,0.0,0.0,0.0,0.0,0.0,0.0,0.0,0.0,0.0,0.0,0.0,0.0,0.0,0.0,0.0,0.0,0.0,0.0,0.0,0.0,0.0,0.0,0.0,0.0,0.7549,0.7313,0.744,0.0,0.0,0.0,0.0,0.0,0.0,0.0,0.0,0.0,0.0,0.9422,0.9515,0.9716,0.0,0.0,0.9749,0.9707,0.976,0.986,0.981,0.9542,0.9278,0.0,0.0,0.0,0.0,0.0,0.0,0.0,0.0,0.0,0.0,0.0,0.0,0.0,0.0,0.0,0.0,0.0,0.0,0.0,0.0,0.0,0.0,0.0,0.0,0.0,0.0,0.0,0.0,0.0,0.0,0.0,0.0,0.0,0.0,0.0,0.0,0.0,0.0,0.0,0.0,0.0,0.0,0.0,0.0,0.0,0.0,0.0,0.0,0.0,0.0,0.0,0.0,0.8522,0.8702,0.9788,1.0498,1.0808,1.1049,1.1447,1.1909,1.107,1.0843,0.0,0.0,0.0,0.0,0.0,0.0,0.0,0.0,0.0,0.0,0.0,0.0,0.0,0.0,0.0,0.0,0.0,0.0,0.0,0.0,0.0,0.0,0.0,0.0,0.0,0.0,0.0,0.0,0.7761,0.745,0.7657,0.0,0.0,0.0,0.0,0.0,0.0,0.0,0.0,0.0,0.0,0.9485,0.9336,0.9595,0.9861,0.9809,0.9869,0.9921,1.0073,1.0191,1.0136,0.981,0.0,0.0,0.0,0.0,0.0,0.0,0.0,0.0,0.0,0.0,0.0,0.0,0.0,0.0,0.0,0.0,0.0,0.0,0.0,0.0,0.0,0.0,0.0,0.0,0.0,0.0,0.0,0.0,0.0,0.0,0.935,0.0,0.0,0.0,0.0,0.0,0.0,0.0,0.0,0.0,0.0,0.0,0.0,0.0,0.0,0.0,0.0,0.0,0.0,0.0,0.0,0.0,0.0,0.8203,0.871,0.9485,1.0127,1.0799,1.1057,1.1305,1.1551,1.094,1.0664,1.0807,0.0,0.0,0.0,0.0,0.0,0.0,0.0,0.0,0.0,0.0,0.0,0.0,0.0,0.0,0.0,0.0,0.0,0.0,0.0,0.0,0.0,0.0,0.0,0.0,0.0,0.0,0.8194,0.8065,0.7921,0.0,0.0,0.0,0.0,0.0,0.0,0.0,0.0,0.0,0.0,0.9965,0.9718,0.964,0.9821,0.9941,0.9769,0.9852,1.0055,1.0528,1.058,1.058,0.0,0.0,0.0,0.0,0.0,0.0,0.0,0.0,0.0,0.0,0.0,0.0,0.0,0.0,0.0,0.0,0.0,0.0,0.0,0.0,0.0,0.0,0.0,0.0,0.0,0.0,0.0,0.9958,0.969,0.0,0.0,0.0,0.0,0.0,0.0,0.0,0.0,0.0,0.0,0.0,0.893,0.9004,0.0,0.0,0.0,0.0,0.0,0.0,0.0,0.0,0.0,0.0,0.0,0.0,0.82,0.8821,0.9531,1.0281,1.0964,1.1418,1.1805,1.2075,1.1315,1.0739,1.0293,0.0,0.0,0.0,0.0,0.0,0.0,0.0,0.0,0.0,0.0,0.0,0.0,0.0,0.0,0.0,0.0,0.0,0.0,0.0,0.0,0.0,0.0,0.0,0.0,0.0,0.8101,0.0,0.0,0.0,0.0,0.0,0.0,0.0,0.0,0.0,0.0,0.0,0.9514,0.9312,0.9865,1.0296,1.0215,1.0482,1.0837,0.0,0.0,0.0,0.0,0.0,0.0,0.0,0.0,0.0,0.0,0.0,0.0,0.0,0.0,0.9103,0.8744,0.8675,0.8675,0.8675,0.0,0.0,0.0,0.0,0.0,0.0,0.0,0.0,0.0,0.0,0.0,0.0,0.0,0.0,1.0228,0.0,0.9952,0.0,0.0,0.0,0.0,0.0,0.0,0.0,0.0,0.9505,0.9353,0.9018,0.9233,0.9158,0.0,0.8846,0.8749,0.0,0.0,0.0,0.0,0.0,0.0,0.0,0.0,0.8503,0.931,0.978,1.0482,1.1469,1.1778,1.2008,1.2276,1.1509,1.0742,1.0009,1.0171,1.0278,0.0,0.0,0.0,0.0,0.0,0.0,0.0,0.0,0.0,0.0,0.0,0.0,0.0,0.0,0.0,0.0,0.0,0.0,0.0,0.0,0.0,0.0,0.0,0.8411,0.0,0.0,0.0,0.0,0.0,0.0,0.0,0.0,0.0,0.9702,0.9952,1.0063,0.9825,1.0117,1.0387,1.0474,0.0,0.0,0.0,0.0,0.0,0.0,0.0,1.1185,1.0816,1.0751,1.0691,1.0441,1.0278,0.997,0.9396,0.0,0.0,0.9083,0.8956,0.8959,0.8956,0.8884,0.875,0.8631,0.8256,0.8,0.0,0.0,0.0,0.0,0.0,0.0,0.0,0.0,1.0139,1.013,0.0,1.0109,0.0,0.0,0.0,0.0,0.0,0.9747,0.0,0.0,0.9566,0.9614,0.9607,0.9607,0.9607,0.9614,0.9447,0.9395,0.9367,0.8564,0.0,0.0,0.0,0.0,0.0,0.0,0.8997,1.004,1.0039,1.0732,1.2175,1.2031,1.1968,1.2026,1.138,1.0718,1.0056,1.0103,1.0162,1.0278,1.0341,0.0,0.0,0.0,0.0,0.0,0.0,0.0,0.0,0.0,0.0,0.0,0.0,0.0,0.0,0.0,0.0,0.0,0.0,0.0,0.0,0.8927,0.0,0.0,0.0,0.0,0.0,0.0,0.0,0.0,0.0,0.0,1.105,1.1183,1.1416,1.167,0.0,0.0,0.0,0.0,1.1176,1.131,1.1685,1.184,1.1633,1.1615,1.1615,1.1619,0.0,0.0,1.0495,1.0053,0.9795,0.9405,0.9408,0.9478,0.9466,0.9448,0.9451,0.943,0.928,0.8942,0.8407,0.8124,0.7852,0.9364,0.0,0.0,0.0,0.0,1.0214,1.0508,1.0951,1.0946,1.0801,1.051,1.0557,0.0,0.0,0.0,0.0,0.0,0.0,0.9858,0.9855,0.9677,0.9618,0.9618,0.9618,0.9618,0.9614,0.9566,0.9566,0.9503,0.9231,0.8945,0.8748,0.0,0.0,0.0,0.0,0.8668,0.904,0.9919,1.0834,1.157,1.1805,1.18,1.1524,1.1287,1.0936,1.0435,1.0326,1.0283,1.0278,1.0322,0.0,0.0,0.0,0.0,0.0,0.0,0.0,0.0,0.0,0.0,0.0,0.0,0.0,0.0,0.0,0.0,0.0,0.0,0.0,0.8355,0.9071,0.9229,0.0,0.0,0.0,0.0,0.0,0.0,0.0,0.0,0.0,1.1472,1.2015,1.2299,0.0,0.0,1.2338,1.2604,1.2274,1.223,1.273,1.1992,0.0,0.0,1.1622,1.1685,1.1937,1.2305,1.2178,1.0986,1.0912,1.0654,0.9661,0.9478,0.9478,0.9478,0.9478,0.9415,0.9298,0.918,0.8877,0.8212,0.811,0.8031,0.9618,0.9618,0.9721,1.0095,1.062,1.0671,1.0926,1.1272,1.1272,1.1143,1.0942,1.0946,1.0809,1.0595,1.0433,0.0,0.0,0.0,0.9832,0.9832,0.9666,0.9618,0.9618,0.9618,0.9618,0.9618,0.9618,0.9618,0.9618,0.951,0.9361,0.9152,0.0,0.0,0.8748,0.8796,0.9004,0.9337,1.0148,1.0897,1.1429,1.1706,1.1639,1.1309,1.1384,1.1233,1.0847,1.0644,1.0532,1.0532,1.0371,1.0322,0.0,0.0,0.0,0.0,0.0,0.0,0.0,0.0,0.0,0.0,0.0,0.8821,0.7308,0.0,0.0,0.0,0.7289,0.7875,0.859,0.905,0.0,0.0,0.0,0.0,0.0,0.0,0.0,1.019,1.136,1.2051,1.1658,1.25,1.2879,1.2141,1.2456,1.2848,1.3226,0.0,1.3112,1.3228,1.2565,1.1999,1.1838,1.1685,1.1747,1.2062,1.2301,1.229,1.1608,1.1406,1.1024,1.0168,0.9923,0.9801,0.9545,0.9478,0.9439,0.9262,0.9114,0.8735,0.8041,0.7869,0.774,0.9654,0.9758,1.0011,1.0411,1.0875,1.0875,1.1023,1.1272,1.1272,1.1272,1.1272,1.1272,1.1272,1.1221,1.0777,0.0,1.0003,0.9729,0.9618,0.9618,0.9618,0.9618,0.9618,0.9618,0.9618,0.9618,0.9618,0.9618,0.9618,0.9618,0.9514,0.9413,0.9312,0.9211,0.9208,0.9208,0.9614,1.0482,1.0545,1.096,1.1678,1.1719,1.1608,1.135,1.163,1.1615,1.1259,1.1021,1.0908,1.0898,1.0508,1.0322,1.0322,0.0,0.0,0.0,0.0,0.0,0.0,0.0,0.0,0.0,0.0,0.0,0.0,0.0,0.0,0.0,0.7921,0.0,0.8823,0.8956,0.0,0.0,0.0,1.0122,1.0174,1.0708,1.0854,1.028,0.0,0.0,1.167,1.2726,1.3204,1.2421,1.2339,1.2547,1.2954,1.3637,1.38,1.3107,1.3229,1.3139,1.2239,1.1937,1.1875,1.2182,1.2042,1.2027,1.2035,1.1721,1.1212,1.0667,1.0544,1.0298,0.9676,0.9545,0.9478,0.9469,0.9073,0.8596,0.801,0.7618,0.7323,1.0252,1.07,1.102,1.0947,1.062,1.0824,1.107,1.1272,1.1272,1.1272,1.1272,1.1272,1.1171,1.0972,1.0871,1.0514,1.0003,0.994,0.9777,0.9618,0.9618,0.9618,0.9618,0.9618,0.9618,0.9618,0.9618,0.9618,0.9618,0.9618,0.9562,0.9566,0.9514,0.9413,0.9208,0.9312,0.9415,0.9519,1.0198,1.0922,1.1669,1.1828,1.1882,1.1889,1.1822,1.1752,1.1643,1.1137,1.0954,1.1022,1.0552,1.0312,1.0385,1.0428,0.0,0.0,0.0,0.0,0.0,0.0,0.0,0.0,0.0,0.8833,0.7376,0.0,0.8063,0.0,0.7341,0.7659,0.7969,0.8577,0.0,0.0,0.9672,1.0298,1.0788,1.0982,1.111,1.1205,1.2004,1.2273,1.1646,1.2676,1.326,1.2581,1.3339,1.3929,1.3896,1.4141,1.4146,1.3557,1.3446,1.3147,1.2363,1.2428,1.267,1.274,1.2968,1.2952,1.2451,1.2324,1.202,1.1399,1.085,1.0488,1.0298,0.9862,0.9545,0.9466,0.9205,0.8785,0.8057,0.7954,0.7915,1.076,1.1107,1.1523,1.1493,1.1186,1.1293,1.1277,1.1276,1.1272,1.1272,1.1272,1.1272,1.1171,1.0918,1.0918,1.0663,1.0209,1.0054,0.994,0.9777,0.9662,0.9618,0.9618,0.9618,0.9618,0.9618,0.9618,0.9666,0.9784,0.9669,0.9666,0.9784,0.9777,0.9677,0.9577,0.9629,0.9695,0.9771,1.0568,1.1175,1.1673,1.1823,1.1981,1.217,1.2156,1.213,1.2173,1.1721,1.1406,1.1286,1.0842,1.0596,1.0716,1.0716,1.081,0.0,0.0,0.0,0.0,0.0,0.0,0.0,0.0,0.0,0.0,0.0,0.8167,0.7043,0.7113,0.7364,0.7655,0.815,0.8584,0.9091,0.9688,1.0354,1.1022,1.1266,1.1311,1.1405,1.1828,1.1927,1.1489,1.2135,1.2532,1.2158,1.3252,1.4107,1.4341,1.4647,1.4642,1.4052,1.3992,1.3752,1.2785,1.2977,1.3159,1.3046,1.3277,1.3385,1.3009,1.2948,1.2761,1.2074,1.1648,1.116,1.0604,1.0238,0.9862,0.9527,0.9361,0.9098,0.8538,0.8466,0.8324,1.1222,1.1347,1.1898,1.2116,1.2114,1.2015,1.1773,1.1468,1.1417,1.1417,1.1413,1.1422,1.1315,1.1114,1.1114,1.096,1.0645,1.0339,1.0164,1.0108,0.9847,0.9718,0.9669,0.9669,0.9666,0.9666,0.9721,0.9832,1.0051,0.9832,0.9832,1.0051,1.0054,1.0051,1.0051,1.0106,1.0257,1.0569,1.1226,1.1623,1.1728,1.1882,1.2081,1.2278,1.2426,1.2583,1.2725,1.2409,1.2091,1.1743,1.1315,1.1069,1.1203,1.1249,1.1382,0.0,1.1387,0.0,0.0,0.0,0.0,0.0,0.0,0.0,0.0,0.867,0.8242,0.7246,0.7125,0.7244,0.7619,0.767,0.8172,0.9259,0.9697,1.022,1.0976,1.1327,1.1392,1.1172,1.1388,1.1447,1.1216,1.1507,1.1806,1.2042,1.307,1.4107,1.4592,1.5128,1.5186,1.4652,1.4529,1.4116,1.3511,1.345,1.339,1.3159,1.3277,1.3511,1.345,1.3446,1.3256,1.2757,1.2508,1.2081,1.0916,1.0671,1.0298,0.9792,0.9594,0.9385,0.9163,0.8905,0.866,1.1815,1.2373,1.266,1.2789,1.2807,1.2792,1.2543,1.2184,1.2179,1.2175,1.2184,1.2179,1.2179,1.2125,1.2125,1.1961,1.1674,1.1284,1.1043,1.0798,1.0482,1.0205,0.9943,1.0205,1.0201,0.9947,1.0209,1.036,1.0419,1.036,1.036,1.0415,1.0419,1.0415,1.0419,0.0,0.0,0.0,1.1486,1.1787,1.1873,1.2076,1.2229,1.2283,1.2529,0.0,1.2813,1.253,1.2443,1.2534,1.2075,0.0,0.0,0.0,0.0,0.0,0.0,0.0,0.0,0.0,0.0,0.0,0.9224,0.8765,0.8132,0.7942,0.7805,0.76,0.7385,0.7311,0.7365,0.7566,0.7963,0.8646,0.9108,0.9751,1.0705,1.0958,1.109,1.1483,1.1586,1.16,1.1538,1.2193,1.2883,1.3178,1.4209,1.5059,1.5493,1.5556,1.5371,1.477,1.4291,1.3937,1.3885,1.3696,1.3446,1.345,1.345,1.3511,1.3511,1.3511,1.3511,1.3256,1.2887,1.2451,1.2081,1.1281,1.0488,1.0301,0.9862,0.9466,0.9412,0.9184,0.9038,1.2474,0.0,1.3141,1.3228,0.0,1.3364,1.3251,1.304,1.2608,1.2385,1.2385,1.2385,1.2385,1.2385,1.2385,1.2342,1.2159,1.1868,1.1531,1.1181,1.0902,1.0573,1.0261,1.0415,1.0415,1.0257,1.0419,1.0569,1.0671,1.0569,1.0573,1.0671,1.0718,1.0722,1.082,1.1057,1.1259,1.1272,1.1628,1.1823,1.1927,1.2175,1.2328,1.2377,0.0,0.0,0.0,0.0,0.0,0.0,0.0,0.0,0.0,0.0,0.0,1.2691,1.233,1.2006,1.181,1.1451,1.0838,1.0052,0.9309,0.8682,0.8168,0.7917,0.7783,0.7726,0.7518,0.7419,0.7416,0.7521,0.8041,0.9109,0.9311,0.9952,1.1294,1.1494,1.1619,1.193,1.205,1.2054,1.2058,1.2417,1.2834,1.313,1.3855,1.4579,1.5001,1.5488,1.5614,1.5128,1.435,1.3945,1.4005,1.3756,1.3511,1.3511,1.3511,1.3511,1.3511,1.3511,1.3511,1.345,1.3195,1.2818,1.2074,1.1399,1.079,1.0171,0.9798,0.9673,0.9606,0.9497,0.9223,1.3046,1.3099,1.3394,1.3506,1.3575,1.3765,1.383,1.3781,0.0,0.0,0.0,1.2642,1.2647,1.2582,1.259,1.2586,1.2582,1.2297,1.2001,1.1672,1.1415,1.1067,1.0753,1.0741,1.0721,1.0665,1.0648,1.0773,1.0972,1.0718,1.0769,1.0977,1.0977,1.1023,1.1167,1.1397,1.1551,1.1623,1.176,1.1914,1.1977,1.2229,1.2431,1.2524,1.2676,1.2876,1.3123,1.3123,1.2987,1.2797,1.2777,1.2828,1.2919,1.2828,1.299,1.3379,1.3248,1.2866,1.2304,1.2412,1.1755,1.0115,0.9364,0.885,0.8477,0.8165,0.7901,0.7777,0.7622,0.7589,0.7583,0.7543,0.8117,0.9605,0.9457,1.0067,1.187,1.205,1.1926,1.2421,1.2486,1.2486,1.2486,1.2548,1.267,1.2789,1.3394,1.3803,1.4337,1.5181,1.5614,1.5123,1.4414,1.4065,1.4005,1.3756,1.3511,1.3511,1.3511,1.3511,1.3515,1.3511,1.3567,1.3575,1.3571,1.307,1.207,1.1703,1.1153,0.9983,0.9795,0.9804,0.9804,0.9676,0.953,1.3159,1.3446,1.3511,1.358,1.3769,1.3765,1.3885,1.3941,1.3826,1.3718,1.3608,1.3604,1.3485,1.3357,1.3352,1.3352,1.3331,1.3031,1.2811,0.0,1.241,1.2066,1.1779,1.1647,1.15,1.1268,1.1229,1.1226,1.1226,1.1179,1.1276,1.1381,1.1322,1.1331,1.1423,1.1656,1.1859,1.2031,1.2026,1.2121,1.2229,1.248,1.2676,1.2681,1.2779,1.2963,1.318,1.3175,1.3294,1.3485,1.348,1.348,1.347,1.3465,1.3501,1.3563,1.3425,1.3069,1.2414,1.1868,1.0922,0.951,0.9514,0.935,0.8623,0.8321,0.8168,0.8115,0.7842,0.7772,0.7967,0.7715,0.7941,0.8818,0.8705,0.9194,1.0954,1.1153,1.1469,1.2355,1.2486,1.2544,1.2605,1.2797,1.3099,1.3454,1.3756,1.424,1.4652,1.5177,1.5123,1.4542,1.4249,1.4001,1.3761,1.3575,1.3511,1.3511,1.3506,1.3515,1.3511,1.3636,1.3761,1.3761,1.3825,1.3571,1.2818,1.2324,1.1648,1.0793,1.0361,0.9986,0.9989,0.9923,0.9904,1.3459,1.364,1.364,1.3765,1.3885,1.4014,1.4139,1.4258,1.4263,1.4143,1.3885,1.3885,1.3885,1.3761,1.37,1.3636,1.3631,1.3403,1.316,1.2976,1.2796,1.2538,1.2223,1.2163,1.2091,1.2074,1.2023,1.2043,1.2153,1.2158,1.2211,1.2255,1.2263,1.2312,1.2351,1.2149,1.2236,1.2545,1.2336,1.2278,1.2431,1.2573,1.2725,1.2827,1.2929,1.3109,1.3319,1.3314,1.3409,1.361,1.3615,1.3615,1.3615,1.3615,1.3615,1.361,1.3462,1.3261,1.2962,1.1967,1.107,1.0214,0.9814,0.9361,0.884,0.8583,0.8374,0.8328,0.8283,0.8315,0.8394,0.8306,0.8746,0.9913,0.9731,1.0187,1.1417,1.19,1.2097,1.2466,1.2834,1.3029,1.3029,1.3155,1.3333,1.3631,1.3937,1.4245,1.43,1.4652,1.477,1.43,1.407,1.3885,1.3575,1.37,1.3696,1.3636,1.37,1.3765,1.3761,1.3885,1.3894,1.3885,1.395,1.37,1.313,1.2443,1.1764,1.1153,1.0544,1.0238,1.0177,1.0241,1.0304,1.3636,1.3825,1.3825,1.3954,1.4074,1.4258,1.4391,1.4515,1.4515,1.4387,1.4134,1.4079,1.4014,1.401,1.3894,1.3834,1.383,1.3696,1.3476,1.3238,1.3217,1.3057,1.2772,1.2677,1.2681,1.2779,1.2709,1.2725,1.2908,1.2912,1.2912,1.2908,1.3072,1.3177,1.3177,1.2795,1.2747,1.2969,1.2728,1.2575,1.2529,1.2676,1.2827,1.2929,1.3032,1.3215,1.3367,1.342,1.3467,1.361,1.3615,1.3615,1.3615,1.3615,1.3615,1.3615,1.3515,1.3367,1.3117,1.2169,1.1371,1.0864,1.0167,0.9598,0.9203,0.8944,0.8731,0.8596,0.8715,0.8773,0.8874,0.892,0.9564,1.0664,1.0604,1.0874,1.2085,1.2597,1.2785,1.2765,1.3191,1.345,1.3511,1.3511,1.3511,1.3636,1.3945,1.407,1.395,1.4185,1.4304,1.4189,1.3945,1.3825,1.3636,1.3821,1.395,1.383,1.389,1.395,1.401,1.401,1.4074,1.4074,1.413,1.3885,1.3256,1.2757,1.2197,1.1578,1.1153,1.086,1.0678,1.0926,1.0804,1.3825,1.395,1.4014,1.4079,1.4267,1.4391,1.451,1.4515,1.4515,1.4515,1.4451,1.4327,1.4198,1.401,1.4005,1.395,1.395,1.3945,1.3923,1.3888,1.3897,1.387,1.3769,1.3455,1.3349,1.3309,1.3043,1.2928,1.2983,1.2957,1.293,1.2963,1.3296,1.3437,1.3355,1.3511,1.3513,1.3255,1.336,1.3156,1.2759,1.2827,1.2929,1.3085,1.308,1.321,1.3372,1.342,1.3467,1.3615,1.3615,1.3615,1.3615,1.3615,1.3615,1.3615,1.3615,1.3266,1.2565,1.2286,1.1588,1.047,1.0631,1.0402,0.9691,0.9467,0.9195,0.9007,0.8896,0.9087,0.9468,0.9429,0.9582,1.02,1.0096,1.0363,1.1603,1.1868,1.2293,1.3329,1.3385,1.3511,1.3515,1.3515,1.3571,1.3765,1.389,1.401,1.4014,1.4074,1.413,1.407,1.4019,1.4023,1.3954,1.395,1.4014,1.4019,1.4014,1.4014,1.4074,1.4198,1.4267,1.4267,1.4327,1.4139,1.3761,1.3325,1.307,1.2324,1.2016,1.202,1.1663,1.1787,1.1779,1.4019,1.4139,1.4203,1.4318,1.4547,1.4606,1.468,1.4798,1.4798,1.4739,1.4602,1.4552,1.4433,1.4332,1.4198,1.4207,1.4143,1.407,1.401,1.401,1.401,1.401,1.3988,1.385,1.382,1.3947,1.379,1.3785,1.3833,1.3944,1.3983,1.3992,1.4226,1.435,1.4308,1.4072,1.3888,1.3767,1.3465,1.3219,1.3022,1.3045,1.3142,1.3243,1.3296,1.3382,1.352,1.3515,1.3621,1.3815,1.3826,1.391,1.4051,1.4093,1.4004,1.3863,1.3663,1.3324,1.2686,1.2133,1.1488,1.0643,1.0521,1.028,0.9885,0.9949,0.9963,0.9846,0.9694,0.9636,0.9794,0.9855,1.0053,1.0551,1.0857,1.1149,1.1278,1.2413,1.3086,1.2765,1.3321,1.3825,1.3821,1.3821,1.3821,1.3885,1.401,1.4014,1.4139,1.4203,1.4203,1.4294,1.4504,1.4418,1.4141,1.4194,1.4267,1.4207,1.4267,1.4332,1.4327,1.4327,1.4396,1.4391,1.4451,1.4446,1.4194,1.3696,1.3321,1.2704,1.2089,1.1907,1.2031,1.2332,1.2147,1.4198,1.4336,1.4382,1.4552,1.4775,1.4779,1.4848,1.498,1.5039,1.4907,1.4779,1.4779,1.4729,1.4629,1.4451,1.4336,1.4336,1.4207,1.4139,1.4134,1.4139,1.4139,1.4189,1.4185,1.4313,1.4446,1.4488,1.4556,1.4625,1.4729,1.4779,1.4838,1.5024,1.5026,1.4931,1.4642,1.442,1.4041,1.3771,1.3518,1.3316,1.3367,1.3462,1.3515,1.352,1.361,1.381,1.381,1.3905,1.4104,1.4109,1.4197,1.4384,1.4425,1.4291,1.4015,1.3815,1.3472,1.2997,1.2428,1.1882,1.1362,1.0877,1.0499,1.0427,1.0473,1.0567,1.061,1.0659,1.0523,1.0144,1.0246,1.0608,1.1111,1.1597,1.1714,1.1783,1.3021,1.345,1.2757,1.3442,1.401,1.401,1.4014,1.4079,1.4079,1.4134,1.4194,1.4327,1.4327,1.4387,1.4524,1.4763,1.4655,1.4261,1.4458,1.457,1.4465,1.4455,1.451,1.4565,1.451,1.451,1.4501,1.4501,1.4446,1.4323,1.3885,1.3325,1.2765,1.2212,1.2031,1.2516,1.2512,1.2573,1.4391,1.4524,1.4606,1.4803,1.4975,1.497,1.497,1.5034,1.5039,1.497,1.497,1.4975,1.498,1.4921,1.4625,1.4506,1.451,1.4506,1.4451,1.4446,1.4446,1.4556,1.4647,1.4652,1.4779,1.4921,1.4916,1.497,1.498,1.497,1.4975,1.5029,1.525,1.5157,1.4956,1.5375,1.5149,1.4224,1.445,1.4297,1.3621,1.381,1.3979,1.3863,1.3815,1.3957,1.4285,1.4373,1.4378,1.4384,1.4384,1.4378,1.4425,1.4425,1.4285,1.4067,1.401,1.3779,1.3445,1.3258,1.2973,1.2398,1.2,1.1722,1.1457,1.1182,1.1055,1.1242,1.1538,1.1414,1.069,1.0773,1.0926,1.1362,1.1542,1.2031,1.3017,1.3143,1.3515,1.3696,1.3877,1.407,1.401,1.4203,1.4267,1.4336,1.4396,1.4465,1.4515,1.4515,1.4556,1.4575,1.4611,1.4556,1.4506,1.4615,1.4753,1.4648,1.4506,1.4556,1.4556,1.4611,1.4616,1.4616,1.462,1.4561,1.4387,1.4014,1.345,1.2952,1.2765,1.2761,1.2761,1.2347,1.2466,1.5411,1.5191,1.5238,1.5207,1.5102,1.5156,1.5142,1.5245,1.525,1.5196,1.5152,1.5156,1.5093,1.4975,1.4862,1.4807,1.4793,1.4807,1.4798,1.4803,1.4798,1.4852,1.4907,1.4907,1.4907,1.497,1.5088,1.5205,1.5254,1.5376,1.5439,1.5444,1.5614,1.5641,1.5501,1.5516,1.5425,1.5225,1.5227,1.512,1.5019,1.5153,1.5116,1.4885,1.4432,1.4233,1.4378,1.4425,1.4466,1.4558,1.4616,1.4656,1.4783,1.4702,1.4564,1.4425,1.4332,1.4132,1.3846,1.3695,1.3423,1.3086,1.2991,1.2759,1.2447,1.2202,1.1974,1.1706,1.1549,1.1299,1.124,1.1608,1.2035,1.1798,1.21,1.2462,1.2769,1.3139,1.3506,1.3696,1.4005,1.4327,1.4318,1.4433,1.4492,1.4469,1.4837,1.4981,1.4782,1.4939,1.5182,1.5238,1.5401,1.5575,1.5565,1.4985,1.4662,1.4584,1.4561,1.4611,1.4666,1.4835,1.4909,1.4876,1.4812,1.4707,1.4598,1.3941,1.3381,1.3329,1.3139,1.2842,1.2891,1.2585,1.2735,1.6162,1.5971,1.5884,1.5783,1.564,1.5503,1.5498,1.5541,1.5541,1.5493,1.5449,1.5449,1.5391,1.5327,1.5269,1.5274,1.5269,1.5093,1.5039,1.5039,1.5039,1.5029,1.5034,1.5034,1.5152,1.521,1.5381,1.5498,1.5546,1.5667,1.5735,1.5793,1.5961,1.6053,1.5905,1.5949,1.5988,1.5903,1.5806,1.588,1.595,1.6075,1.602,1.5794,1.5452,1.5056,1.4684,1.4605,1.4651,1.4794,1.484,1.4932,1.5062,1.4932,1.4867,1.4909,1.4843,1.4767,1.4689,1.4505,1.4326,1.4047,1.3993,1.3755,1.3396,1.3164,1.2862,1.2462,1.2405,1.222,1.222,1.3005,1.3308,1.2528,1.2765,1.3247,1.3308,1.3748,1.3992,1.4116,1.4364,1.4561,1.4625,1.4666,1.4666,1.4689,1.52,1.5359,1.5153,1.5435,1.578,1.5794,1.5974,1.6092,1.6017,1.5458,1.5149,1.5046,1.4757,1.4789,1.4885,1.506,1.5158,1.5105,1.5032,1.4987,1.4538,1.3877,1.3636,1.3532,1.3174,1.2849,1.2857,1.2842,1.303,1.6621,1.6728,1.6454,1.6432,1.6502,1.6132,1.5969,1.5956,1.5911,1.5926,1.5888,1.5886,1.5798,1.5856,1.5793,1.5856,1.5745,1.5332,1.5088,1.5093,1.5098,1.5152,1.5274,1.5269,1.5444,1.5677,1.5851,1.5919,1.5909,1.5967,1.5972,1.6024,1.641,1.6453,1.5985,1.6686,1.6716,1.631,1.6477,1.6492,1.6243,1.6497,1.6643,1.6596,1.6805,1.6406,1.5246,1.516,1.5257,1.5217,1.5183,1.5125,1.5131,1.5154,1.5251,1.5454,1.5513,1.563,1.5845,1.582,1.5595,1.5348,1.5104,1.4786,1.4445,1.4058,1.3713,1.3661,1.3914,1.4048,1.3618,1.4392,1.4574,1.336,1.355,1.4103,1.4661,1.4911,1.4975,1.4916,1.4784,1.4779,1.4916,1.4904,1.4932,1.5067,1.5505,1.5771,1.5714,1.5999,1.6227,1.6256,1.641,1.657,1.6286,1.5903,1.5814,1.5633,1.5188,1.498,1.5129,1.5314,1.5434,1.5484,1.5246,1.5125,1.4547,1.3843,1.3312,1.3182,1.2904,1.2836,1.277,1.2825,1.3062,1.7755,1.7531,1.745,1.7272,1.7077,1.6916,1.687,1.682,1.6557,1.6341,1.6296,1.6045,1.5914,1.5914,1.5914,1.5914,1.5856,1.5677,1.5624,1.5619,1.5624,1.5619,1.5677,1.5682,1.5788,1.5951,1.6004,1.6134,1.6259,1.642,1.6529,1.6586,1.6858,1.7007,1.6956,1.728,1.7312,1.7447,1.7568,1.7681,1.7815,1.7909,1.7757,1.7443,1.751,1.7176,1.6518,1.6471,1.6466,1.6436,1.6121,1.573,1.54,1.5597,1.5763,1.5799,1.6069,1.6361,1.6521,1.6417,1.6353,1.6295,1.6074,1.5738,1.5337,1.4991,1.4565,1.4277,1.4218,1.4039,1.403,1.4465,1.4579,1.3914,1.4025,1.4405,1.4907,1.5039,1.5039,1.4975,1.4907,1.4961,1.5032,1.516,1.5448,1.5519,1.6148,1.665,1.6408,1.6698,1.7019,1.7038,1.7067,1.7111,1.7127,1.6957,1.6782,1.6432,1.5943,1.5457,1.5555,1.5747,1.589,1.5766,1.5529,1.5106,1.4532,1.4008,1.3557,1.3139,1.2985,1.2852,1.2675,1.2895,1.3251,1.8445,1.8248,1.8131,1.8035,1.7879,1.7729,1.7709,1.7806,1.754,1.7405,1.7311,1.6926,1.6664,1.6628,1.6493,1.6363,1.6358,1.6348,1.6348,1.6301,1.5972,1.5914,1.5914,1.6082,1.6228,1.6389,1.6513,1.6575,1.671,1.6869,1.6982,1.6971,1.7256,1.7473,1.7634,1.7793,1.8012,1.8267,1.8261,1.8387,1.8619,1.8685,1.8525,1.823,1.8229,1.8074,1.779,1.7766,1.7582,1.714,1.6775,1.6397,1.6039,1.6296,1.6499,1.659,1.68,1.7077,1.7306,1.723,1.7076,1.709,1.6992,1.6648,1.6181,1.5879,1.5522,1.5113,1.4883,1.4697,1.4756,1.4942,1.5064,1.4878,1.4692,1.4819,1.5074,1.5137,1.5137,1.5166,1.5222,1.5288,1.5453,1.5736,1.6052,1.6172,1.6791,1.7344,1.7069,1.7349,1.7566,1.7735,1.7816,1.7915,1.8213,1.8065,1.7745,1.7277,1.6782,1.6291,1.6068,1.652,1.6723,1.6245,1.5908,1.5509,1.4948,1.4667,1.424,1.3752,1.3314,1.3538,1.3671,1.3573,1.3781,1.8895,1.8865,1.862,1.8701,1.8881,1.852,1.8577,1.8834,1.8763,1.8648,1.8583,1.7996,1.7816,1.7781,1.7235,1.7083,1.7195,1.7078,1.7078,1.6915,1.6477,1.6144,1.6197,1.6472,1.6735,1.6949,1.7072,1.7128,1.7145,1.7245,1.7251,1.7301,1.7645,1.7816,1.8024,1.8253,1.8464,1.8608,1.8614,1.8667,1.8792,1.8857,1.8792,1.8744,1.8892,1.8856,1.8702,1.8713,1.8343,1.7349,1.7207,1.7136,1.7075,1.7111,1.7296,1.7507,1.7589,1.7757,1.8007,1.7944,1.7814,1.7639,1.749,1.7423,1.6807,1.6575,1.64,1.6109,1.5946,1.5904,1.5899,1.5846,1.5846,1.5793,1.5488,1.5415,1.5415,1.5425,1.5425,1.5478,1.5647,1.5853,1.5996,1.6334,1.6578,1.6846,1.7238,1.7473,1.7627,1.7876,1.818,1.8282,1.8223,1.8382,1.8519,1.8414,1.8188,1.8116,1.7632,1.7181,1.6597,1.6887,1.7071,1.6553,1.598,1.5679,1.527,1.4765,1.4542,1.4172,1.416,1.4589,1.4515,1.4194,1.405,1.9752,1.9729,1.9673,1.9717,1.9776,1.9635,1.9655,1.9686,1.9405,1.9143,1.8726,1.8238,1.7854,1.7442,1.7333,1.7195,1.7251,1.7245,1.7256,1.7217,1.7049,1.6931,1.6864,1.6965,1.7078,1.7184,1.729,1.7245,1.7418,1.7634,1.7738,1.788,1.8182,1.8398,1.8577,1.8637,1.8738,1.8887,1.8887,1.8881,1.894,1.9058,1.9064,1.8999,1.9111,1.9052,1.8946,1.9058,1.8775,1.804,1.7906,1.7659,1.7298,1.7565,1.7792,1.7843,1.8102,1.8294,1.8261,1.8133,1.792,1.7711,1.754,1.7256,1.7145,1.7099,1.7038,1.6858,1.6699,1.6648,1.6689,1.6348,1.6072,1.5909,1.5846,1.5783,1.573,1.5788,1.5735,1.576,1.5801,1.6083,1.6422,1.6755,1.71,1.7486,1.781,1.8138,1.8123,1.8297,1.8534,1.8472,1.8447,1.8596,1.8659,1.866,1.866,1.8798,1.853,1.8148,1.7357,1.6868,1.6787,1.652,1.5666,1.5256,1.4766,1.4301,1.4289,1.4601,1.4595,1.4718,1.453,1.4217,1.4252,2.0085,2.0117,2.0209,2.0296,2.0431,2.0479,2.0624,2.0719,2.0465,2.0115,1.9618,1.9132,1.8571,1.8126,1.7895,1.7788,1.7788,1.7788,1.7793,1.7865,1.7926,1.7755,1.7573,1.7567,1.7617,1.7799,1.7793,1.7854,1.8018,1.8187,1.829,1.8392,1.8673,1.8821,1.894,1.8999,1.9052,1.9152,1.9152,1.9152,1.9204,1.9216,1.921,1.9204,1.9263,1.9216,1.9216,1.9269,1.9058,1.8706,1.8588,1.8398,1.8044,1.8253,1.8386,1.8247,1.8519,1.8625,1.8464,1.829,1.8133,1.8035,1.781,1.7639,1.7479,1.7434,1.7429,1.7195,1.7038,1.7038,1.6915,1.6524,1.6301,1.6311,1.6249,1.6192,1.5914,1.5909,1.5914,1.5954,1.6095,1.6346,1.6769,1.7071,1.7508,1.7956,1.8056,1.8277,1.8397,1.8648,1.8865,1.887,1.8952,1.9119,1.9128,1.9115,1.8833,1.901,1.8671,1.847,1.766,1.6836,1.6481,1.6127,1.5355,1.4848,1.4568,1.4571,1.5048,1.5206,1.4973,1.4846,1.4722,1.4458,1.4445,2.025,2.0281,2.0476,2.0758,2.1019,2.1135,2.1411,2.1692,2.1651,2.1287,2.0711,2.0288,1.9614,1.9236,1.8658,1.8625,1.8614,1.85,1.856,1.8619,1.8619,1.8506,1.817,1.8164,1.8321,1.85,1.8619,1.8619,1.8614,1.8727,1.8845,1.8893,1.8999,1.9099,1.9198,1.9192,1.9297,1.9362,1.9368,1.9368,1.9362,1.9368,1.9362,1.9362,1.9368,1.9368,1.942,1.942,1.9337,1.9263,1.9223,1.9091,1.898,1.9022,1.8922,1.8845,1.881,1.8738,1.8619,1.8566,1.8512,1.8404,1.8362,1.8259,1.7926,1.781,1.77,1.7468,1.7373,1.7206,1.692,1.6648,1.6653,1.6767,1.6812,1.6591,1.6197,1.6029,1.6034,1.6044,1.6379,1.6774,1.7124,1.7387,1.7699,1.8575,1.8718,1.8894,1.9069,1.9238,1.9375,1.9375,1.9564,1.9792,1.9705,1.9613,1.9291,1.9051,1.8575,1.8142,1.7447,1.6674,1.6162,1.5615,1.4993,1.4795,1.4885,1.5123,1.5531,1.5618,1.5347,1.5257,1.5217,1.4874,1.4739,2.1342,2.1359,2.1531,2.16,2.1737,2.1857,2.1993,2.2067,2.2067,2.1541,2.0828,2.0547,1.9977,1.9078,1.8958,1.8946,1.894,1.8881,1.8934,1.8928,1.9034,1.9087,1.8863,1.8869,1.8875,1.894,1.8934,1.8987,1.9028,1.9081,1.9198,1.9263,1.9309,1.9309,1.9368,1.9408,1.9362,1.942,1.9427,1.9466,1.9466,1.9519,1.9519,1.9473,1.9414,1.9466,1.9565,1.9565,1.9565,1.9512,1.9414,1.9362,1.9263,1.9223,1.9176,1.9117,1.9005,1.8893,1.8792,1.8738,1.8673,1.8566,1.8566,1.8506,1.8452,1.8302,1.8199,1.809,1.7816,1.754,1.7256,1.7307,1.7262,1.7217,1.7217,1.7166,1.7054,1.692,1.6858,1.6885,1.696,1.7247,1.7669,1.8022,1.8433,1.9072,1.934,1.9554,1.9662,1.9646,1.9733,1.9749,2.0193,2.0328,1.9976,1.9739,1.925,1.8856,1.8349,1.7794,1.7111,1.6528,1.6014,1.5399,1.4706,1.4742,1.5081,1.5344,1.5674,1.5685,1.5576,1.5362,1.5138,1.4954,1.4806,2.1913,2.1933,2.2093,2.2117,2.2173,2.2315,2.2432,2.2438,2.2438,2.1818,2.0973,2.0797,2.0201,1.9253,1.9204,1.9198,1.9204,1.9204,1.9198,1.9297,1.935,1.9454,1.9565,1.9512,1.9414,1.9257,1.9198,1.9245,1.935,1.9396,1.9506,1.9675,1.9675,1.972,1.9778,1.9772,1.9766,1.9759,1.9778,1.9772,1.9759,1.9772,1.9778,1.9681,1.9681,1.9726,1.9869,1.9823,1.983,1.9772,1.9668,1.9519,1.9427,1.9322,1.9275,1.9269,1.9164,1.9058,1.9011,1.8899,1.8845,1.8732,1.8685,1.8673,1.8614,1.8518,1.8518,1.847,1.8247,1.8024,1.781,1.7423,1.7434,1.7545,1.7534,1.754,1.7484,1.7373,1.7262,1.72,1.7155,1.7427,1.7821,1.8258,1.8452,1.8805,1.8603,1.8875,1.9329,1.9424,1.9913,2.0139,2.0645,2.0722,2.0262,1.9789,1.9138,1.8623,1.8066,1.749,1.6811,1.6321,1.5785,1.5242,1.4786,1.512,1.5495,1.567,1.5718,1.5792,1.5659,1.5259,1.4938,1.4701,1.4546,2.2304,2.2311,2.2439,2.2488,2.2537,2.2671,2.2793,2.2793,2.2701,2.2052,2.1249,2.1082,2.045,1.9692,1.9519,1.9525,1.9525,1.9571,1.961,1.9708,1.985,2.0003,2.0163,2.0207,2.0194,1.9753,1.961,1.9668,1.9811,1.9753,1.9914,2.008,2.0042,2.0035,2.0125,2.0175,2.0112,2.0042,2.0067,2.0131,2.0125,2.0029,1.9984,1.9984,1.9984,2.0042,2.008,2.008,2.0048,2.0035,1.992,1.9766,1.9565,1.9466,1.9414,1.942,1.9322,1.9223,1.917,1.9111,1.9052,1.8905,1.8857,1.8792,1.8727,1.8679,1.8625,1.8619,1.856,1.8452,1.8362,1.7975,1.7695,1.7805,1.7963,1.7963,1.7816,1.7601,1.7595,1.7479,1.7595,1.7829,1.7929,1.8192,1.8314,1.8412,1.8258,1.828,1.8834,1.9293,1.9855,2.0233,2.0641,2.0631,2.0245,1.9078,1.8499,1.8176,1.7647,1.7174,1.6646,1.6485,1.6069,1.5401,1.5178,1.5477,1.5633,1.5637,1.5731,1.5846,1.5724,1.5372,1.4966,1.4477,1.4412,2.2604,2.262,2.2738,2.2787,2.2848,2.2957,2.3119,2.3188,2.2688,2.2249,2.1727,2.1275,2.0748,2.0213,2.0074,2.0074,2.0067,2.0067,2.0118,2.0258,2.0497,2.0789,2.0881,2.1155,2.1273,2.1093,2.0633,2.0409,2.0553,2.0359,2.0416,2.0653,2.0365,2.0226,2.0277,2.0226,2.0271,2.0188,2.0264,2.029,2.0316,2.0252,2.0182,2.0182,2.0182,2.0195,2.0233,2.0182,2.0188,2.0175,2.0125,2.008,1.9978,1.9714,1.9617,1.9571,1.9466,1.9368,1.9374,1.9316,1.9269,1.9176,1.9123,1.9058,1.8934,1.8839,1.8786,1.8732,1.8673,1.8614,1.856,1.8344,1.8338,1.8452,1.8404,1.8446,1.8404,1.8302,1.8247,1.809,1.8156,1.8167,1.8244,1.8332,1.8577,1.8766,1.8777,1.884,1.9189,1.9569,1.9947,2.0257,2.0562,2.041,2.0081,1.8665,1.7641,1.7493,1.7156,1.688,1.6589,1.6734,1.6379,1.5826,1.5413,1.5424,1.5555,1.5796,1.5858,1.5955,1.5775,1.5483,1.5044,1.4685,1.4533,2.3154,2.3204,2.3233,2.3264,2.3214,2.3008,2.3018,2.2993,2.2578,2.2124,2.1755,2.1485,2.1069,2.0596,2.056,2.0603,2.061,2.061,2.0752,2.0944,2.1175,2.1452,2.1636,2.1953,2.2053,2.1967,2.1609,2.1376,2.1424,2.0888,2.095,2.116,2.0815,2.0623,2.0779,2.0871,2.0653,2.0527,2.056,2.0599,2.0588,2.0461,2.0347,2.0341,2.0391,2.0398,2.0442,2.0398,2.0347,2.0341,2.0239,2.0226,2.0131,2.0029,1.9875,1.983,1.9675,1.9558,1.9512,1.9466,1.9374,1.9322,1.9322,1.9263,1.921,1.9111,1.8952,1.8893,1.8792,1.8679,1.8685,1.8673,1.8608,1.8614,1.8673,1.8673,1.8619,1.8679,1.8631,1.8583,1.853,1.8476,1.853,1.8622,1.8823,1.9042,1.92,1.9368,1.948,1.9678,1.9888,1.9959,2.0153,1.9878,1.9582,1.8522,1.744,1.7189,1.6958,1.6739,1.6569,1.683,1.6684,1.6332,1.6007,1.5771,1.6163,1.661,1.6344,1.6076,1.5798,1.5522,1.5167,1.4888,1.4795,2.3806,2.3794,2.3754,2.3728,2.356,2.3147,2.2939,2.2732,2.2446,2.2069,2.1732,2.1681,2.1369,2.1093,2.1133,2.1286,2.1244,2.1286,2.1513,2.1704,2.1927,2.2154,2.237,2.2599,2.2794,2.2995,2.2868,2.2589,2.2175,2.165,2.1623,2.1732,2.1341,2.1111,2.1313,2.1271,2.1119,2.1022,2.1091,2.1124,2.1033,2.0805,2.0755,2.0742,2.0712,2.0749,2.0848,2.0799,2.0655,2.0605,2.0498,2.0378,2.0334,2.0283,2.0239,2.0086,1.9978,1.9811,1.9714,1.9623,1.9571,1.9512,1.9466,1.9414,1.9368,1.9269,1.917,1.9052,1.8952,1.8899,1.8952,1.8839,1.8727,1.8774,1.8839,1.8845,1.8786,1.8786,1.8845,1.8792,1.8732,1.8732,1.8786,1.8798,1.8952,1.903,1.9185,1.9198,1.9359,1.9461,1.9629,1.9583,1.9569,1.9264,1.8899,1.8569,1.7825,1.7527,1.7378,1.7147,1.7038,1.6977,1.6796,1.6588,1.6669,1.6575,1.7026,1.7072,1.66,1.615,1.5831,1.5586,1.5345,1.5114,1.4949,2.4379,2.4393,2.4412,2.4116,2.3622,2.3552,2.3276,2.2838,2.2382,2.2159,2.2146,2.1783,2.1705,2.1855,2.2142,2.2109,2.2056,2.2175,2.2399,2.2536,2.2839,2.3017,2.3209,2.3595,2.3759,2.3894,2.3986,2.3681,2.3128,2.2582,2.242,2.2466,2.2116,2.18,2.165,2.1691,2.1361,2.1396,2.1698,2.1983,2.2049,2.1595,2.152,2.1602,2.1416,2.1229,2.1277,2.1235,2.1138,2.0947,2.0947,2.0799,2.0705,2.0655,2.0555,2.0448,2.029,2.0125,2.0074,1.9926,1.9823,1.9766,1.9668,1.9565,1.9466,1.942,1.9368,1.9368,1.9216,1.9164,1.921,1.9164,1.9117,1.9117,1.9111,1.9058,1.8999,1.8999,1.9005,1.9052,1.9046,1.904,1.8987,1.8993,1.9005,1.907,1.9123,1.9164,1.9235,1.9393,1.9508,1.9491,1.9047,1.8669,1.8474,1.8062,1.7809,1.7568,1.7466,1.7393,1.7215,1.704,1.6981,1.6899,1.7001,1.6939,1.6934,1.6778,1.6542,1.6313,1.5957,1.5723,1.5562,1.5362,1.5107,2.5287,2.491,2.5007,2.4681,2.4076,2.373,2.33,2.2818,2.2456,2.2366,2.2467,2.2491,2.2579,2.2761,2.2882,2.2927,2.2965,2.3172,2.342,2.3542,2.3799,2.3983,2.4214,2.4451,2.4638,2.4638,2.467,2.4589,2.4048,2.3529,2.3157,2.3143,2.2799,2.2572,2.2388,2.2487,2.2263,2.2226,2.2346,2.254,2.2392,2.207,2.1942,2.2249,2.1739,2.1602,2.165,2.1471,2.1375,2.1235,2.1235,2.1173,2.1187,2.118,2.1173,2.0792,2.0885,2.0679,2.0283,2.0182,2.0074,2.0029,1.9875,1.9726,1.9565,1.9512,1.9466,1.942,1.9322,1.9374,1.942,1.9322,1.9322,1.9322,1.9374,1.9316,1.9257,1.9269,1.9269,1.9309,1.9356,1.9356,1.9303,1.9309,1.9263,1.9269,1.9275,1.9316,1.9309,1.9364,1.9462,1.9507,1.8869,1.8131,1.7937,1.7688,1.7404,1.7194,1.7025,1.7001,1.7139,1.7075,1.6908,1.6933,1.7017,1.6963,1.6785,1.659,1.6466,1.622,1.6037,1.5811,1.5595,1.5515,1.5254,2.6342,2.5572,2.5457,2.5068,2.4431,2.3849,2.325,2.2721,2.2708,2.2709,2.2868,2.3238,2.3508,2.3516,2.358,2.3779,2.3844,2.4082,2.4315,2.4511,2.464,2.4752,2.4855,2.4997,2.5029,2.5123,2.5115,2.5115,2.4895,2.451,2.4082,2.3794,2.3522,2.3311,2.3385,2.3341,2.315,2.2956,2.3214,2.3269,2.3,2.2572,2.2618,2.2565,2.2289,2.2023,2.2217,2.1976,2.1786,2.165,2.1561,2.1458,2.1368,2.141,2.1416,2.118,2.1229,2.1075,2.0679,2.0435,2.0283,2.0246,2.0137,1.9933,1.9778,1.972,1.9662,1.9571,1.9466,1.9466,1.9519,1.9519,1.9519,1.9571,1.9571,1.9519,1.9512,1.9519,1.9519,1.9558,1.961,1.9675,1.9675,1.9629,1.9583,1.9479,1.9473,1.9466,1.9466,1.9519,1.9556,1.9584,1.8701,1.8031,1.7956,1.7626,1.722,1.691,1.6744,1.6653,1.6873,1.6782,1.6647,1.6742,1.6918,1.681,1.6599,1.6424,1.6331,1.6221,1.6108,1.5771,1.5606,1.5517,1.5483,2.7585,2.6463,2.5683,2.5076,2.449,2.3785,2.3219,2.2843,2.306,2.3216,2.3376,2.3941,2.4165,2.4082,2.4477,2.4647,2.4542,2.4879,2.5036,2.5106,2.5145,2.5161,2.5216,2.5254,2.5285,2.5378,2.5462,2.5546,2.5538,2.537,2.4902,2.4438,2.4274,2.4116,2.3979,2.3917,2.3952,2.3842,2.4056,2.4136,2.3923,2.3602,2.3385,2.3516,2.3348,2.3187,2.3187,2.2792,2.2512,2.2282,2.2063,2.1888,2.1793,2.1739,2.1698,2.1561,2.1465,2.1361,2.1118,2.0742,2.0498,2.041,2.0303,2.0137,1.999,1.9997,1.9939,1.9817,1.9714,1.9772,1.9823,1.9875,1.9817,1.9823,1.9823,1.9823,1.9823,1.9811,1.9811,1.9805,1.9862,1.9984,1.999,1.9997,1.9888,1.9778,1.9726,1.972,1.9772,1.9772,1.972,1.9479,1.8554,1.809,1.817,1.7828,1.7322,1.7085,1.6949,1.6753,1.6608,1.6497,1.6441,1.6306,1.6446,1.6422,1.6472,1.6527,1.6516,1.6366,1.6212,1.6024,1.5841,1.5751,1.5707,2.735,2.6489,2.5758,2.5357,2.5093,2.4799,2.4354,2.394,2.4074,2.4282,2.4438,2.4736,2.4823,2.4871,2.5075,2.5331,2.5238,2.5446,2.5567,2.5605,2.5613,2.5605,2.5613,2.5613,2.5642,2.5688,2.577,2.577,2.5762,2.577,2.5696,2.5315,2.5012,2.4815,2.4647,2.4554,2.4585,2.4618,2.4699,2.4723,2.4618,2.432,2.4139,2.4459,2.3902,2.3844,2.3872,2.3493,2.3267,2.3046,2.2837,2.2618,2.2487,2.2427,2.2242,2.2016,2.1969,2.1786,2.1458,2.1089,2.0755,2.0505,2.0404,2.0347,2.0188,2.0144,2.0137,2.0022,1.9959,2.0022,2.0074,2.0067,2.0067,2.0074,2.0131,2.008,2.008,2.0074,2.0118,2.0125,2.0239,2.0309,2.0309,2.036,2.0195,2.0029,1.9978,1.9971,1.9971,2.0022,1.9971,1.9811,1.8951,1.8572,1.864,1.8031,1.7372,1.7238,1.7098,1.6876,1.665,1.6473,1.6408,1.6165,1.6144,1.6265,1.6488,1.6643,1.6663,1.6563,1.6507,1.6412,1.6222,1.5991,1.5961,2.7332,2.6498,2.6161,2.5839,2.5474,2.5268,2.4968,2.4686,2.4799,2.513,2.54,2.5392,2.5392,2.5476,2.5559,2.5688,2.5725,2.5844,2.5926,2.597,2.597,2.5962,2.5962,2.5926,2.5926,2.5962,2.5962,2.5998,2.5962,2.597,2.5926,2.5836,2.5701,2.5497,2.5317,2.521,2.5179,2.5203,2.5235,2.5163,2.5053,2.4799,2.4671,2.491,2.4484,2.4362,2.4379,2.4082,2.3864,2.3744,2.3587,2.3472,2.3421,2.3334,2.3106,2.283,2.2551,2.2335,2.1874,2.1319,2.1039,2.0898,2.0705,2.0592,2.0429,2.0334,2.0296,2.0175,2.0175,2.0271,2.0372,2.0416,2.0523,2.0579,2.0442,2.0398,2.0398,2.0391,2.0442,2.0498,2.0511,2.0511,2.0511,2.0505,2.0347,2.0239,2.0239,2.0188,2.0131,2.0182,2.0182,1.9965,1.9534,1.9313,1.9127,1.8322,1.7605,1.7216,1.7146,1.7004,1.6779,1.6653,1.6602,1.6653,1.6596,1.6431,1.6566,1.6794,1.6845,1.6789,1.6673,1.6511,1.6392,1.6173,1.6212,2.7695,2.6629,2.7064,2.6578,2.5566,2.4887,2.4703,2.4855,2.5106,2.5468,2.5836,2.5836,2.5844,2.5889,2.5873,2.5954,2.599,2.6018,2.6063,2.6159,2.6195,2.6107,2.6115,2.6123,2.6151,2.6071,2.6115,2.6203,2.6203,2.6203,2.6203,2.6195,2.6134,2.6046,2.5889,2.5688,2.5575,2.5616,2.5744,2.5579,2.5302,2.5161,2.5177,2.5138,2.5013,2.4981,2.4887,2.4631,2.4413,2.4372,2.4131,2.3971,2.3979,2.3887,2.3709,2.3544,2.3493,2.3187,2.2701,2.1874,2.1554,2.1416,2.1229,2.1111,2.0858,2.0729,2.0686,2.0795,2.0523,2.0666,2.0759,2.0815,2.0927,2.0842,2.0649,2.0599,2.0599,2.0599,2.0599,2.0599,2.0649,2.0699,2.0699,2.0649,2.0498,2.0398,2.0454,2.0404,2.0347,2.0341,2.0391,2.0226,1.9901,1.9631,1.9261,1.8477,1.7816,1.7468,1.7195,1.7139,1.7027,1.6864,1.6925,1.7094,1.6982,1.6756,1.6864,1.7014,1.6958,1.6872,1.6681,1.6547,1.6388,1.6502,1.6729,2.7299,2.6543,2.6731,2.6571,2.613,2.5864,2.575,2.584,2.5921,2.601,2.6071,2.6134,2.6162,2.6162,2.6162,2.6214,2.6285,2.6233,2.6285,2.638,2.6372,2.638,2.6345,2.6337,2.6337,2.6337,2.638,2.6389,2.638,2.6389,2.6397,2.6424,2.638,2.631,2.6087,2.5926,2.5815,2.5848,2.5941,2.5958,2.5696,2.5605,2.5605,2.5567,2.5492,2.5446,2.5408,2.5083,2.5005,2.4966,2.4687,2.4606,2.4558,2.4461,2.4248,2.4082,2.3991,2.3666,2.337,2.292,2.2505,2.2149,2.1921,2.1908,2.1901,2.1853,2.1799,2.1609,2.1348,2.1396,2.1403,2.1075,2.099,2.0799,2.0655,2.0649,2.0649,2.0649,2.0649,2.0649,2.0699,2.0749,2.0749,2.0848,2.0742,2.0692,2.0692,2.0605,2.0555,2.0549,2.0592,2.0435,2.0213,1.9888,1.9417,1.8804,1.8333,1.7958,1.7634,1.7423,1.7312,1.72,1.7195,1.7312,1.7195,1.7078,1.7139,1.7195,1.7083,1.699,1.7073,1.7069,1.7073,1.7364,1.7779,2.6992,2.658,2.6623,2.6615,2.6615,2.6425,2.6442,2.6493,2.639,2.6329,2.631,2.6347,2.6355,2.6355,2.639,2.6399,2.6485,2.6442,2.639,2.6485,2.6485,2.6485,2.6485,2.6485,2.645,2.6485,2.6485,2.6485,2.6485,2.6485,2.6485,2.6528,2.6528,2.6442,2.6293,2.6134,2.6046,2.6051,2.6134,2.6114,2.5987,2.5926,2.5917,2.5889,2.5844,2.5754,2.5717,2.5613,2.5516,2.544,2.5355,2.5224,2.5122,2.4997,2.4784,2.4664,2.4323,2.404,2.3914,2.3837,2.342,2.3062,2.2815,2.2656,2.2618,2.2427,2.2413,2.2275,2.221,2.2116,2.1921,2.1554,2.1375,2.118,2.1215,2.1257,2.1075,2.1124,2.1033,2.0983,2.0885,2.0891,2.0898,2.0997,2.099,2.0983,2.0934,2.0848,2.0755,2.0749,2.0742,2.0636,2.0479,2.0163,1.9798,1.935,1.8881,1.85,1.8182,1.786,1.7651,1.7534,1.7473,1.7473,1.7418,1.7423,1.7418,1.7418,1.7357,1.7605,1.8034,1.7977,1.7852,1.8213,1.8769,2.6851,2.6733,2.6834,2.6901,2.6868,2.6615,2.6511,2.6511,2.6511,2.6493,2.6485,2.6485,2.6485,2.652,2.652,2.6511,2.6511,2.6528,2.652,2.6511,2.6537,2.6511,2.6511,2.6554,2.6537,2.6511,2.652,2.6537,2.6511,2.6537,2.6572,2.658,2.658,2.6537,2.6478,2.6365,2.6279,2.6258,2.6247,2.6228,2.6151,2.6071,2.6035,2.5998,2.5954,2.5926,2.5852,2.5815,2.5815,2.5807,2.5717,2.5701,2.5626,2.5621,2.5478,2.5193,2.4752,2.4575,2.4453,2.4453,2.4372,2.4017,2.3522,2.315,2.2979,2.2927,2.2875,2.2694,2.2572,2.2618,2.2572,2.2349,2.2123,2.2116,2.2196,2.2056,2.1786,2.1698,2.1561,2.1465,2.1319,2.1271,2.1222,2.1271,2.1235,2.1229,2.1173,2.1089,2.0997,2.0891,2.0885,2.0885,2.0679,2.0429,2.0074,1.9662,1.9093,1.8661,1.8554,1.8284,1.8133,1.7926,1.792,1.7865,1.7816,1.7761,1.7755,1.7689,1.7634,1.7997,1.8498,1.8527,1.8201,1.9186,1.9784,2.6942,2.69,2.6942,2.7,2.6959,2.6876,2.6767,2.6649,2.6657,2.6598,2.6485,2.6563,2.6589,2.6589,2.6589,2.6606,2.664,2.6606,2.664,2.6632,2.6657,2.6657,2.6657,2.6657,2.664,2.6649,2.6657,2.6657,2.664,2.6649,2.6649,2.6683,2.6649,2.6683,2.6615,2.6547,2.6495,2.6434,2.638,2.6337,2.625,2.617,2.6143,2.6115,2.6026,2.5998,2.5962,2.5926,2.5926,2.5881,2.5881,2.5836,2.5692,2.5672,2.5605,2.5532,2.5309,2.5216,2.506,2.5021,2.4974,2.4847,2.4484,2.4188,2.3894,2.3544,2.3406,2.3326,2.3106,2.315,2.3135,2.3002,2.2701,2.2526,2.2558,2.2374,2.2109,2.1881,2.1746,2.1657,2.1554,2.1554,2.1506,2.1513,2.1471,2.1416,2.1368,2.1326,2.1235,2.118,2.1075,2.1026,2.0927,2.0723,2.0365,1.9952,1.9337,1.8821,1.8715,1.8661,1.8452,1.835,1.8302,1.8247,1.8084,1.803,1.803,1.8018,1.811,1.8271,1.869,1.87,1.8862,1.9836,2.0493,2.7122,2.7122,2.7122,2.7113,2.7122,2.7113,2.7031,2.6866,2.6833,2.6767,2.6691,2.675,2.6742,2.675,2.6784,2.6809,2.6825,2.68,2.68,2.6834,2.6825,2.6817,2.6808,2.6817,2.6825,2.6825,2.6825,2.6825,2.6775,2.6775,2.6784,2.6825,2.6808,2.6775,2.675,2.6725,2.6666,2.6563,2.6503,2.6434,2.6355,2.6277,2.625,2.6214,2.6126,2.6107,2.6071,2.5998,2.6007,2.5998,2.6007,2.5909,2.582,2.5791,2.5799,2.572,2.5675,2.5575,2.5454,2.5416,2.5347,2.524,2.517,2.4823,2.4525,2.4264,2.4238,2.4211,2.3937,2.3759,2.3701,2.3557,2.3172,2.274,2.2694,2.2596,2.2328,2.2009,2.1874,2.1786,2.1746,2.1746,2.1746,2.1705,2.1752,2.1793,2.1793,2.18,2.1616,2.1423,2.1319,2.1264,2.1166,2.0963,2.0603,2.0302,1.9792,1.9226,1.8815,1.8768,1.8721,1.8619,1.8512,1.8404,1.835,1.8344,1.8344,1.8596,1.8721,1.8917,1.9138,1.9347,1.9661,2.0396,2.0969,2.7322,2.7308,2.7299,2.729,2.7299,2.729,2.7209,2.7085,2.7023,2.6975,2.6917,2.695,2.6983,2.6959,2.6959,2.6959,2.695,2.695,2.6909,2.6966,2.695,2.6942,2.695,2.6992,2.695,2.6992,2.6983,2.69,2.6917,2.6917,2.6909,2.6992,2.6992,2.695,2.6876,2.6876,2.6809,2.6725,2.6632,2.6546,2.646,2.6382,2.633,2.6304,2.6258,2.6247,2.6203,2.6212,2.622,2.6168,2.6115,2.6018,2.5946,2.5917,2.5889,2.5897,2.586,2.5807,2.5725,2.568,2.5659,2.5554,2.5456,2.5224,2.5044,2.4631,2.4566,2.4525,2.4207,2.4097,2.4048,2.4124,2.3906,2.3493,2.329,2.3054,2.2732,2.242,2.2163,2.2077,2.1983,2.1983,2.2037,2.2044,2.1942,2.2077,2.2123,2.2084,2.199,2.1752,2.1657,2.1554,2.1499,2.1403,2.1062,2.0759,2.0295,1.9786,1.9331,1.9081,1.9133,1.8928,1.8619,1.8614,1.8608,1.8709,1.8756,1.9062,1.9371,1.9519,1.9764,2.0086,2.052,2.0933,2.1077,2.7433,2.7425,2.7356,2.7299,2.7299,2.7299,2.7233,2.7103,2.7209,2.7163,2.7016,2.6992,2.7024,2.7016,2.693,2.6913,2.6947,2.6894,2.6999,2.6973,2.6973,2.7057,2.7024,2.7057,2.7024,2.6992,2.6983,2.7007,2.7016,2.6983,2.6983,2.7016,2.7024,2.7024,2.6975,2.6975,2.6942,2.6892,2.6809,2.6683,2.6606,2.6511,2.6434,2.6434,2.6415,2.6329,2.632,2.6277,2.6258,2.6203,2.6168,2.6115,2.5982,2.5926,2.5926,2.5926,2.5926,2.5889,2.5873,2.5836,2.5807,2.5815,2.5741,2.5696,2.5438,2.4902,2.4615,2.4567,2.4527,2.4461,2.4477,2.4599,2.4599,2.4238,2.3875,2.3501,2.3128,2.2792,2.2495,2.2363,2.2263,2.227,2.2324,2.2278,2.2224,2.217,2.217,2.2177,2.2177,2.2077,2.2037,2.1983,2.1983,2.1834,2.1554,2.1166,2.0752,2.0497,2.0093,1.9843,1.965,1.95,1.9291,1.9034,1.8928,1.9127,1.943,1.9676,1.994,2.0099,2.0308,2.056,2.0566,2.0856,2.0926,2.7587,2.7583,2.7505,2.7457,2.7465,2.7465,2.7417,2.74,2.7457,2.7373,2.7233,2.7178,2.7122,2.6985,2.6779,2.6599,2.6607,2.659,2.6562,2.6599,2.6993,2.7128,2.7113,2.7122,2.7154,2.7122,2.7064,2.7055,2.7122,2.7072,2.7064,2.7122,2.7122,2.7113,2.7055,2.7055,2.704,2.7016,2.6959,2.6884,2.6742,2.664,2.6546,2.6546,2.6511,2.6434,2.6425,2.6382,2.6312,2.6266,2.6239,2.6159,2.6115,2.6096,2.6059,2.6051,2.6043,2.6007,2.5962,2.5954,2.5917,2.5917,2.5889,2.5807,2.5799,2.5354,2.5315,2.5269,2.5214,2.5145,2.5114,2.52,2.491,2.4542,2.4297,2.3991,2.3391,2.2799,2.2593,2.2516,2.2417,2.2463,2.247,2.247,2.2417,2.2417,2.237,2.237,2.2363,2.2317,2.2317,2.2317,2.227,2.2224,2.203,2.1602,2.1166,2.0957,2.0802,2.0547,2.0245,2.0163,2.0016,1.9747,1.9689,1.985,2.015,2.044,2.0484,2.059,2.0802,2.1055,2.097,2.0878,2.0952,2.7716,2.7701,2.7704,2.7701,2.7701,2.7701,2.7701,2.7701,2.7701,2.7621,2.7413,2.7229,2.7192,2.6885,2.6359,2.6126,2.6027,2.6194,2.6165,2.638,2.6988,2.7164,2.7259,2.7299,2.7259,2.725,2.7169,2.7209,2.7267,2.7209,2.7209,2.7299,2.729,2.725,2.7143,2.7094,2.712,2.7072,2.7048,2.6999,2.6892,2.6767,2.6674,2.6615,2.658,2.652,2.652,2.6477,2.6425,2.6364,2.6302,2.6266,2.6222,2.6187,2.6168,2.6168,2.6123,2.6115,2.6079,2.6035,2.599,2.5954,2.5926,2.5926,2.5926,2.5926,2.5889,2.5844,2.5746,2.5626,2.5589,2.5551,2.5222,2.4855,2.4648,2.4315,2.3565,2.2897,2.2737,2.2615,2.2615,2.2615,2.2615,2.2615,2.2615,2.2615,2.2615,2.2615,2.2569,2.2523,2.2523,2.2477,2.2431,2.2377,2.2363,2.1983,2.1506,2.1547,2.1389,2.114,2.0845,2.0703,2.061,2.0603,2.0597,2.0703,2.0908,2.1146,2.1195,2.1188,2.1244,2.141,2.1361,2.1271,2.1173,2.7864,2.7713,2.7701,2.7701,2.773,2.773,2.7701,2.7701,2.773,2.7621,2.7339,2.6826,2.6502,2.6281,2.5549,2.5229,2.529,2.5617,2.5988,2.6247,2.6696,2.7063,2.7296,2.7307,2.7313,2.7313,2.7305,2.729,2.7376,2.7345,2.7282,2.7322,2.7313,2.7282,2.7282,2.7241,2.7233,2.7186,2.7128,2.707,2.7055,2.6942,2.6893,2.6817,2.6725,2.6666,2.6598,2.6572,2.6546,2.6477,2.6442,2.638,2.6329,2.6285,2.6258,2.6274,2.6239,2.6239,2.6195,2.6195,2.6159,2.6107,2.6115,2.6123,2.6123,2.6079,2.6079,2.6051,2.5917,2.5672,2.5642,2.5762,2.5551,2.5137,2.4855,2.4274,2.3658,2.3179,2.2902,2.2812,2.2714,2.2759,2.2812,2.2759,2.2699,2.2699,2.2699,2.2699,2.2745,2.2714,2.2675,2.2629,2.2629,2.2576,2.2562,2.217,2.1841,2.1935,2.1983,2.1732,2.1437,2.114,2.1042,2.1188,2.1348,2.1499,2.1705,2.1746,2.1841,2.1786,2.1698,2.1705,2.1712,2.1616,2.1513]},{"header":{"parameterUnit":"m.s-1","parameterCategory":1,"la1":31.0,"la2":29.5877,"lo1":-88.7671,"lo2":-86.6584,"dy":0.0162,"dx":0.0185,"nx":115,"ny":88,"refTime":"2024-06-26T00:00:00:Z","depth":0,"parameterNumber":3,"parameterNumberName":"V-component_of_WINDS"},"data":[0.0,0.0,0.0,0.0,0.0,0.0,0.0,0.0,0.0,0.0,0.0,0.0,0.0,0.0,0.0,0.0,0.0,0.0,0.0,0.0,0.0,0.0,0.0,0.0,0.0,0.0,0.0,0.0,0.0,0.0,0.0,0.0,0.0,0.0,0.0,0.0,0.0,0.0,0.0,0.0,0.0,0.0,0.0,0.0,0.0,0.0,0.0,0.0,0.0,0.0,0.0,0.0,0.0,0.0,0.0,0.0,0.0,0.0,0.0,0.0,0.0,0.0,0.0,0.0,0.0,0.0,0.0,0.0,0.0,0.0,0.0,0.0,0.0,0.0,0.0,0.0,0.0,0.0,0.0,0.0,0.0,0.0,0.0,0.0,0.0,0.0,0.0,0.0,0.0,0.0,0.0,0.0,0.0,0.0,0.0,0.0,0.0,0.0,0.0,0.0,0.0,0.0,0.0,0.0,0.0,0.0,0.0,0.0,0.0,0.0,0.0,0.0,0.0,0.0,0.0,0.0,0.0,0.0,0.0,0.0,0.0,0.0,0.0,0.0,0.0,0.0,0.0,0.0,0.0,0.0,0.0,0.0,0.0,0.0,0.0,0.0,0.0,0.0,0.0,0.0,0.0,0.0,0.0,0.0,0.0,0.0,0.0,0.0,0.0,0.0,0.0,0.0,0.0,0.0,0.0,0.0,0.0,0.0,0.0,0.0,0.0,0.0,0.0,0.0,0.0,0.0,0.0,0.0,0.0,0.0,0.0,0.0,0.0,0.0,0.0,0.0,0.0,0.0,0.0,0.0,0.0,0.0,0.0,0.0,0.0,0.0,0.0,0.0,0.0,0.0,0.0,0.0,0.0,0.0,0.0,0.0,0.0,0.0,0.0,0.0,0.0,0.0,0.0,0.0,0.0,0.0,0.0,0.0,0.0,0.0,0.0,0.0,0.0,0.0,0.0,0.0,0.0,0.0,0.0,0.0,0.0,0.0,0.0,0.0,0.0,0.0,0.0,0.0,0.0,0.0,0.0,0.0,0.0,0.0,0.0,0.0,0.0,0.0,0.0,0.0,0.0,0.0,0.0,0.0,0.0,0.0,0.0,0.0,0.0,0.0,0.0,0.0,0.0,0.0,0.0,0.0,0.0,0.0,0.0,0.0,0.0,0.0,0.0,0.0,0.0,0.0,0.0,0.0,0.0,0.0,0.0,0.0,0.0,0.0,0.0,0.0,0.0,0.0,0.0,0.0,0.0,0.0,0.0,0.0,0.0,0.0,0.0,0.0,0.0,0.0,0.0,0.0,0.0,0.0,0.0,0.0,0.0,0.0,0.0,0.0,0.0,0.0,0.0,0.0,0.0,0.0,0.0,0.0,0.0,0.0,0.0,0.0,0.0,0.0,0.0,0.0,0.0,0.0,0.0,0.0,0.0,0.0,0.0,0.0,0.0,0.0,0.0,0.0,0.0,0.0,0.0,0.0,0.0,0.0,0.0,0.0,0.0,0.0,0.0,0.0,0.0,0.0,0.0,0.0,0.0,0.0,0.0,0.0,0.0,0.0,0.0,0.0,0.0,0.0,0.0,0.0,0.0,0.0,0.0,0.0,0.0,0.0,0.0,0.0,0.0,0.0,0.0,0.0,0.0,0.0,0.0,0.0,0.0,0.0,0.0,0.0,0.0,0.0,0.0,0.0,0.0,0.0,0.0,0.0,0.0,0.0,0.0,0.0,0.0,0.0,0.0,0.0,0.0,0.0,0.0,0.0,0.0,0.0,0.0,0.0,0.0,0.0,0.0,0.0,0.0,0.0,0.0,0.0,0.0,0.0,0.0,0.0,0.0,0.0,0.0,0.0,0.0,0.0,0.0,0.0,0.0,0.0,0.0,0.0,0.0,0.0,0.0,0.0,0.0,0.0,0.0,0.0,0.0,0.0,0.0,0.0,0.0,0.0,0.0,0.0,0.0,0.0,0.0,0.0,0.0,0.0,0.0,0.0,0.0,0.0,0.0,0.0,0.0,0.0,0.0,0.0,0.0,0.0,0.0,0.0,0.0,0.0,0.0,0.0,0.0,0.0,0.0,0.0,0.0,0.0,0.0,0.0,0.0,0.0,0.0,0.0,0.0,0.0,0.0,0.0,0.0,0.0,0.0,0.0,0.0,0.0,0.0,0.0,0.0,0.0,0.0,0.0,0.0,0.0,0.0,0.0,0.0,0.0,0.0,0.0,0.0,0.0,0.0,0.0,0.0,0.0,0.0,0.0,0.0,0.0,0.0,0.0,0.0,0.0,0.0,0.0,0.0,0.0,0.0,0.0,0.0,0.0,0.0,0.0,0.0,0.0,0.0,0.0,0.0,0.0,0.0,0.0,0.0,0.0,0.0,0.0,0.0,0.0,0.0,0.0,0.0,0.0,0.0,0.0,0.0,0.0,0.0,0.0,0.0,0.0,0.0,0.0,0.0,0.0,0.0,0.0,0.0,0.0,0.0,0.0,0.0,0.0,0.0,0.0,0.0,0.0,0.0,0.0,0.0,0.0,0.0,0.0,0.0,0.0,0.0,0.0,0.0,0.0,0.0,0.0,0.0,0.0,0.0,0.0,0.0,0.0,0.0,0.0,0.0,0.0,0.0,0.0,0.0,0.0,0.0,0.0,0.0,0.0,0.0,0.0,0.0,0.0,0.0,0.0,0.0,0.0,0.0,0.0,0.0,0.0,0.0,0.0,0.0,0.0,0.0,0.0,0.0,0.0,0.0,0.0,0.0,0.0,0.0,0.0,0.0,0.0,0.0,0.0,0.0,0.0,0.0,0.0,0.0,0.0,0.0,0.0,0.0,0.0,0.0,0.0,0.0,0.0,0.0,0.0,0.0,0.0,0.0,0.0,0.0,0.0,0.0,0.0,0.0,0.0,0.0,0.0,0.0,0.0,0.0,0.0,0.0,0.0,0.0,0.0,0.0,0.0,0.0,0.0,0.0,0.0,0.0,0.0,0.0,0.0,0.0,0.0,0.0,0.0,0.0,0.0,0.0,0.0,0.0,0.0,0.0,0.0,0.0,0.0,0.0,0.0,0.0,0.0,0.0,0.0,0.0,0.0,0.0,0.0,0.0,0.0,0.0,0.0,0.0,0.0,0.0,0.0,0.0,0.0,0.0,0.0,0.0,0.0,0.0,0.0,0.0,0.0,0.0,0.0,0.0,0.0,0.0,0.0,0.0,0.0,0.0,0.0,0.0,0.0,0.0,0.0,0.0,0.0,0.0,0.0,0.0,0.0,0.0,0.0,0.0,0.0,0.0,0.0,0.0,0.0,0.0,0.0,0.0,0.0,0.0,0.0,0.0,0.0,0.0,0.0,0.0,0.0,0.0,0.0,0.0,0.0,0.0,0.0,0.0,0.0,0.0,0.0,0.0,0.0,0.0,0.0,0.0,0.0,0.0,0.0,0.0,0.0,0.0,0.0,0.0,0.0,0.0,0.0,0.0,0.0,0.0,0.0,0.0,0.0,0.0,0.0,0.0,0.0,0.0,0.0,0.0,0.0,0.0,0.0,0.0,0.0,0.0,0.0,0.0,0.0,0.0,0.0,0.0,0.0,0.0,0.0,0.0,0.0,0.0,0.0,0.0,0.0,0.0,0.0,0.0,0.0,0.0,0.0,0.0,0.0,0.0,0.0,0.0,0.0,0.0,0.0,0.0,0.0,0.0,0.0,0.0,0.0,0.0,0.0,0.0,0.0,0.0,0.0,0.0,0.0,0.0,0.0,0.0,0.0,0.0,0.0,0.0,0.0,0.0,0.0,0.0,0.0,0.0,0.0,0.0,0.0,0.0,0.0,0.0,0.0,0.0,0.0,0.0,0.0,0.0,0.0,0.0,0.0,0.0,0.0,0.0,0.0,0.0,0.0,0.0,0.0,0.0,0.0,0.0,0.0,0.0,0.0,0.0,0.0,0.0,0.0,0.0,0.0,0.0,0.0,0.0,0.0,0.0,0.0,0.0,0.0,0.0,0.0,0.0,0.0,0.0,0.0,0.0,0.0,0.0,0.0,0.0,0.0,0.0,0.0,0.0,0.0,0.0,0.0,0.0,0.0,0.0,0.0,0.0,0.0,0.0,0.0,0.0,0.0,0.0,0.0,0.0,0.0,0.0,0.0,0.0,0.0,0.0,0.0,0.0,0.0,0.0,0.0,0.0,0.0,0.0,0.0,0.0,0.0,0.0,0.0,0.0,0.0,0.0,0.0,0.0,0.0,0.0,0.0,0.0,0.0,0.0,0.0,0.0,0.0,0.0,0.0,-1.0564,0.0,0.0,0.0,0.0,0.0,0.0,0.0,0.0,0.0,0.0,0.0,0.0,0.0,0.0,0.0,0.0,0.0,0.0,0.0,0.0,0.0,0.0,0.0,0.0,0.0,0.0,0.0,0.0,0.0,0.0,0.0,0.0,0.0,0.0,0.0,0.0,0.0,0.0,0.0,0.0,0.0,0.0,0.0,0.0,0.0,0.0,0.0,0.0,0.0,0.0,0.0,0.0,0.0,0.0,0.0,0.0,0.0,0.0,0.0,0.0,0.0,0.0,0.0,0.0,0.0,0.0,0.0,0.0,0.0,0.0,0.0,0.0,0.0,0.0,0.0,0.0,0.0,0.0,0.0,0.0,0.0,0.0,0.0,0.0,0.0,0.0,0.0,0.0,0.0,0.0,0.0,0.0,0.0,0.0,0.0,0.0,0.0,0.0,0.0,0.0,0.0,0.0,0.0,0.0,0.0,0.0,0.0,0.0,0.0,0.0,-1.2407,-1.2603,-1.1557,-1.1013,-1.1112,0.0,0.0,0.0,0.0,0.0,0.0,0.0,0.0,0.0,0.0,0.0,0.0,0.0,0.0,0.0,0.0,0.0,0.0,0.0,0.0,0.0,0.0,0.0,0.0,0.0,0.0,0.0,0.0,0.0,0.0,0.0,0.0,0.0,0.0,0.0,0.0,0.0,0.0,0.0,0.0,0.0,0.0,0.0,0.0,0.0,0.0,0.0,0.0,0.0,0.0,0.0,0.0,0.0,0.0,0.0,0.0,0.0,0.0,0.0,0.0,0.0,0.0,0.0,0.0,0.0,0.0,0.0,0.0,0.0,0.0,0.0,0.0,0.0,0.0,0.0,0.0,0.0,0.0,0.0,0.0,0.0,0.0,0.0,0.0,0.0,0.0,0.0,0.0,0.0,0.0,0.0,0.0,0.0,0.0,0.0,0.0,0.0,0.0,0.0,0.0,0.0,0.0,0.0,0.0,0.0,0.0,0.0,0.0,0.0,0.0,0.0,0.0,-1.2273,-1.161,-1.1576,0.0,0.0,0.0,0.0,0.0,0.0,0.0,0.0,0.0,0.0,0.0,0.0,0.0,0.0,0.0,0.0,0.0,0.0,0.0,0.0,0.0,0.0,0.0,0.0,0.0,0.0,0.0,0.0,0.0,0.0,0.0,0.0,0.0,0.0,0.0,0.0,0.0,0.0,0.0,0.0,0.0,0.0,0.0,0.0,0.0,0.0,0.0,0.0,0.0,0.0,0.0,0.0,0.0,0.0,0.0,0.0,0.0,0.0,0.0,0.0,0.0,0.0,0.0,0.0,0.0,0.0,0.0,0.0,0.0,0.0,0.0,0.0,0.0,0.0,0.0,0.0,0.0,0.0,0.0,0.0,0.0,0.0,0.0,0.0,0.0,0.0,0.0,0.0,0.0,0.0,0.0,0.0,0.0,0.0,0.0,0.0,0.0,0.0,0.0,0.0,0.0,0.0,0.0,0.0,0.0,0.0,0.0,0.0,0.0,0.0,-1.3497,-1.4252,-1.3668,0.0,-1.1868,0.0,0.0,0.0,0.0,0.0,0.0,0.0,0.0,0.0,0.0,0.0,0.0,0.0,0.0,0.0,0.0,0.0,0.0,0.0,0.0,0.0,0.0,0.0,0.0,0.0,0.0,0.0,0.0,0.0,0.0,0.0,0.0,0.0,0.0,0.0,0.0,0.0,0.0,0.0,0.0,0.0,0.0,0.0,0.0,0.0,0.0,0.0,0.0,0.0,0.0,0.0,0.0,0.0,0.0,0.0,0.0,0.0,0.0,0.0,0.0,0.0,0.0,0.0,0.0,0.0,0.0,0.0,0.0,0.0,0.0,0.0,0.0,0.0,0.0,0.0,0.0,0.0,0.0,0.0,0.0,0.0,0.0,0.0,0.0,0.0,0.0,0.0,0.0,0.0,0.0,0.0,0.0,0.0,0.0,0.0,0.0,0.0,0.0,0.0,0.0,0.0,0.0,0.0,0.0,0.0,0.0,0.0,0.0,0.0,0.0,-1.4529,-1.5032,-1.4154,-1.3055,0.0,0.0,0.0,0.0,0.0,0.0,0.0,0.0,0.0,0.0,0.0,0.0,0.0,0.0,0.0,0.0,0.0,0.0,0.0,0.0,0.0,0.0,0.0,0.0,0.0,0.0,0.0,0.0,0.0,0.0,0.0,0.0,0.0,0.0,0.0,0.0,0.0,0.0,0.0,0.0,0.0,0.0,0.0,0.0,0.0,0.0,0.0,0.0,0.0,0.0,0.0,0.0,0.0,0.0,0.0,0.0,0.0,0.0,0.0,0.0,0.0,0.0,0.0,0.0,0.0,0.0,0.0,0.0,0.0,0.0,0.0,0.0,0.0,0.0,0.0,0.0,0.0,0.0,0.0,0.0,0.0,0.0,0.0,0.0,0.0,0.0,0.0,0.0,0.0,0.0,0.0,0.0,0.0,0.0,0.0,0.0,0.0,0.0,0.0,0.0,0.0,0.0,0.0,0.0,0.0,0.0,0.0,0.0,0.0,0.0,-1.5053,-1.5359,-1.5583,-1.4647,-1.3452,-1.2084,0.0,0.0,0.0,0.0,0.0,0.0,0.0,0.0,0.0,0.0,0.0,0.0,0.0,0.0,0.0,0.0,0.0,0.0,0.0,0.0,0.0,0.0,0.0,0.0,0.0,0.0,0.0,0.0,0.0,0.0,0.0,0.0,0.0,0.0,0.0,0.0,0.0,0.0,0.0,0.0,0.0,0.0,0.0,0.0,0.0,0.0,0.0,0.0,0.0,0.0,0.0,0.0,0.0,0.0,0.0,0.0,0.0,0.0,0.0,0.0,0.0,0.0,0.0,0.0,0.0,0.0,0.0,0.0,0.0,0.0,0.0,0.0,0.0,0.0,0.0,0.0,0.0,0.0,0.0,0.0,0.0,0.0,0.0,0.0,0.0,0.0,0.0,0.0,0.0,0.0,0.0,0.0,0.0,0.0,0.0,0.0,0.0,0.0,0.0,0.0,0.0,0.0,0.0,0.0,0.0,0.0,0.0,0.0,0.0,-1.6087,-1.5876,-1.6063,-1.5391,-1.4384,0.0,0.0,0.0,0.0,0.0,0.0,0.0,0.0,0.0,0.0,0.0,0.0,0.0,0.0,0.0,0.0,0.0,0.0,0.0,0.0,0.0,0.0,0.0,0.0,0.0,0.0,0.0,0.0,0.0,0.0,0.0,0.0,0.0,0.0,0.0,0.0,0.0,0.0,0.0,0.0,0.0,0.0,0.0,0.0,0.0,0.0,0.0,0.0,0.0,0.0,0.0,0.0,0.0,0.0,0.0,0.0,0.0,0.0,0.0,0.0,0.0,0.0,0.0,0.0,0.0,0.0,0.0,0.0,0.0,0.0,0.0,0.0,0.0,0.0,0.0,0.0,0.0,0.0,0.0,0.0,0.0,0.0,0.0,0.0,0.0,0.0,0.0,0.0,0.0,0.0,0.0,0.0,0.0,0.0,0.0,0.0,0.0,0.0,0.0,0.0,0.0,0.0,0.0,0.0,0.0,0.0,0.0,0.0,0.0,-1.5987,-1.6532,-1.6894,-1.6945,-1.5854,-1.4716,0.0,0.0,0.0,0.0,0.0,0.0,0.0,0.0,0.0,0.0,0.0,0.0,0.0,0.0,0.0,0.0,0.0,0.0,0.0,0.0,0.0,0.0,0.0,0.0,0.0,0.0,0.0,0.0,0.0,0.0,0.0,0.0,0.0,0.0,0.0,0.0,0.0,0.0,0.0,0.0,0.0,0.0,0.0,0.0,0.0,0.0,0.0,0.0,0.0,0.0,0.0,0.0,0.0,0.0,0.0,0.0,0.0,0.0,0.0,0.0,0.0,0.0,0.0,0.0,0.0,0.0,0.0,0.0,0.0,0.0,0.0,0.0,0.0,0.0,0.0,0.0,0.0,0.0,0.0,0.0,0.0,0.0,0.0,0.0,0.0,0.0,0.0,0.0,0.0,0.0,0.0,0.0,0.0,0.0,0.0,0.0,0.0,0.0,0.0,0.0,0.0,0.0,0.0,0.0,0.0,0.0,0.0,0.0,0.0,-1.6675,0.0,-1.7968,0.0,-1.6249,-1.4943,0.0,0.0,0.0,0.0,0.0,0.0,0.0,0.0,0.0,0.0,0.0,0.0,0.0,0.0,0.0,0.0,0.0,0.0,0.0,0.0,0.0,0.0,0.0,0.0,0.0,0.0,0.0,0.0,0.0,0.0,0.0,0.0,0.0,0.0,0.0,0.0,0.0,0.0,0.0,0.0,0.0,0.0,0.0,0.0,0.0,0.0,0.0,0.0,0.0,0.0,0.0,0.0,0.0,0.0,0.0,0.0,0.0,0.0,0.0,0.0,0.0,0.0,0.0,0.0,0.0,0.0,0.0,0.0,0.0,0.0,0.0,0.0,0.0,0.0,0.0,0.0,0.0,0.0,0.0,0.0,0.0,0.0,0.0,0.0,0.0,0.0,0.0,0.0,0.0,0.0,0.0,0.0,0.0,0.0,0.0,0.0,0.0,0.0,0.0,0.0,0.0,0.0,0.0,0.0,0.0,0.0,0.0,0.0,-1.6902,-1.8857,-1.9168,-1.8905,-1.823,-1.6678,-1.5104,0.0,0.0,0.0,0.0,0.0,0.0,0.0,0.0,0.0,0.0,0.0,0.0,0.0,0.0,0.0,0.0,0.0,0.0,0.0,0.0,0.0,0.0,0.0,0.0,0.0,0.0,0.0,0.0,0.0,0.0,0.0,0.0,0.0,0.0,0.0,0.0,0.0,0.0,0.0,0.0,0.0,0.0,0.0,0.0,0.0,0.0,0.0,0.0,0.0,0.0,0.0,0.0,0.0,0.0,0.0,0.0,0.0,0.0,0.0,0.0,0.0,0.0,0.0,0.0,0.0,0.0,0.0,0.0,0.0,0.0,0.0,0.0,0.0,0.0,0.0,0.0,0.0,0.0,0.0,0.0,0.0,0.0,0.0,0.0,0.0,0.0,0.0,0.0,0.0,0.0,0.0,0.0,0.0,0.0,0.0,0.0,0.0,0.0,0.0,0.0,0.0,0.0,0.0,0.0,0.0,0.0,0.0,0.0,0.0,-1.8834,-1.8435,-1.8658,-1.9446,-1.7389,-1.5924,0.0,0.0,0.0,0.0,0.0,0.0,0.0,0.0,0.0,0.0,0.0,0.0,0.0,0.0,0.0,0.0,0.0,0.0,0.0,0.0,0.0,0.0,0.0,0.0,0.0,0.0,0.0,0.0,0.0,0.0,0.0,0.0,0.0,0.0,0.0,0.0,0.0,0.0,0.0,0.0,0.0,0.0,0.0,0.0,0.0,0.0,0.0,0.0,0.0,0.0,0.0,0.0,0.0,0.0,0.0,0.0,0.0,0.0,0.0,0.0,0.0,0.0,0.0,0.0,0.0,0.0,0.0,0.0,0.0,0.0,0.0,0.0,0.0,0.0,0.0,0.0,0.0,0.0,0.0,0.0,0.0,0.0,0.0,0.0,0.0,0.0,0.0,0.0,0.0,0.0,0.0,0.0,0.0,0.0,0.0,0.0,0.0,0.0,0.0,0.0,0.0,0.0,0.0,0.0,0.0,0.0,0.0,0.0,0.0,-1.9762,-1.9083,-1.9246,-2.0321,-1.8161,-1.6725,-1.6151,0.0,0.0,0.0,0.0,0.0,0.0,0.0,0.0,0.0,0.0,0.0,0.0,0.0,0.0,0.0,0.0,0.0,0.0,0.0,0.0,0.0,0.0,0.0,0.0,0.0,0.0,0.0,0.0,0.0,0.0,0.0,0.0,0.0,0.0,0.0,0.0,0.0,0.0,0.0,0.0,0.0,0.0,0.0,0.0,0.0,0.0,0.0,0.0,0.0,0.0,0.0,0.0,0.0,0.0,0.0,0.0,0.0,0.0,0.0,0.0,0.0,0.0,0.0,0.0,0.0,0.0,0.0,0.0,0.0,0.0,0.0,0.0,0.0,0.0,0.0,0.0,0.0,0.0,0.0,0.0,0.0,0.0,0.0,0.0,0.0,0.0,0.0,0.0,0.0,0.0,0.0,0.0,0.0,0.0,0.0,0.0,0.0,0.0,0.0,0.0,0.0,0.0,0.0,0.0,0.0,0.0,0.0,0.0,-2.1438,-2.0802,-2.0537,-2.0691,-1.8932,-1.751,0.0,0.0,0.0,0.0,0.0,0.0,0.0,0.0,0.0,0.0,0.0,0.0,0.0,0.0,0.0,0.0,0.0,0.0,0.0,0.0,0.0,0.0,0.0,0.0,0.0,0.0,0.0,0.0,0.0,0.0,0.0,0.0,0.0,0.0,0.0,0.0,0.0,0.0,0.0,0.0,0.0,0.0,0.0,0.0,0.0,0.0,0.0,0.0,0.0,0.0,0.0,0.0,0.0,0.0,0.0,0.0,0.0,0.0,0.0,0.0,0.0,0.0,0.0,0.0,0.0,0.0,0.0,0.0,0.0,0.0,0.0,0.0,0.0,0.0,0.0,0.0,0.0,0.0,0.0,0.0,0.0,0.0,0.0,0.0,0.0,0.0,0.0,0.0,0.0,0.0,0.0,0.0,0.0,0.0,0.0,0.0,0.0,0.0,0.0,0.0,0.0,0.0,0.0,0.0,0.0,0.0,0.0,0.0,0.0,-2.0759,-2.1146,-2.1589,-2.2005,-1.9979,-1.8614,0.0,0.0,0.0,0.0,0.0,0.0,0.0,0.0,0.0,0.0,0.0,0.0,0.0,0.0,0.0,0.0,0.0,0.0,0.0,0.0,0.0,0.0,0.0,0.0,0.0,0.0,0.0,0.0,0.0,0.0,0.0,0.0,0.0,0.0,0.0,0.0,0.0,0.0,0.0,0.0,0.0,0.0,0.0,0.0,0.0,0.0,0.0,0.0,0.0,0.0,0.0,0.0,0.0,0.0,0.0,0.0,0.0,0.0,0.0,0.0,0.0,0.0,0.0,0.0,0.0,0.0,0.0,0.0,0.0,0.0,0.0,0.0,0.0,0.0,0.0,0.0,0.0,0.0,0.0,0.0,0.0,0.0,0.0,0.0,0.0,0.0,0.0,0.0,0.0,0.0,0.0,0.0,0.0,0.0,0.0,0.0,0.0,0.0,0.0,0.0,0.0,0.0,0.0,0.0,0.0,0.0,0.0,0.0,-2.1456,-2.1334,-2.1924,-2.2391,-2.265,-2.1157,-1.984,0.0,0.0,0.0,0.0,0.0,0.0,0.0,0.0,0.0,0.0,0.0,0.0,0.0,0.0,0.0,0.0,0.0,0.0,0.0,0.0,0.0,0.0,0.0,0.0,0.0,0.0,0.0,0.0,0.0,0.0,0.0,0.0,0.0,0.0,0.0,0.0,0.0,0.0,0.0,0.0,0.0,0.0,0.0,0.0,0.0,0.0,0.0,0.0,0.0,0.0,0.0,0.0,0.0,0.0,0.0,0.0,0.0,0.0,0.0,0.0,0.0,0.0,0.0,0.0,0.0,0.0,0.0,0.0,0.0,0.0,0.0,0.0,0.0,0.0,0.0,0.0,0.0,0.0,0.0,0.0,0.0,0.0,0.0,0.0,0.0,0.0,0.0,0.0,0.0,0.0,0.0,0.0,0.0,0.0,0.0,0.0,0.0,0.0,0.0,0.0,0.0,0.0,0.0,0.0,0.0,0.0,0.0,0.0,-2.2807,-2.2305,-2.2773,-2.291,-2.2721,-2.2187,-2.1001,0.0,0.0,0.0,0.0,0.0,0.0,0.0,0.0,0.0,0.0,0.0,0.0,0.0,0.0,0.0,0.0,0.0,0.0,0.0,0.0,0.0,0.0,0.0,0.0,0.0,0.0,0.0,0.0,0.0,0.0,0.0,0.0,0.0,0.0,0.0,0.0,0.0,0.0,0.0,0.0,0.0,0.0,0.0,0.0,0.0,0.0,0.0,0.0,0.0,0.0,0.0,0.0,0.0,0.0,0.0,0.0,0.0,0.0,0.0,0.0,0.0,0.0,0.0,0.0,0.0,0.0,0.0,0.0,0.0,0.0,0.0,0.0,0.0,0.0,0.0,0.0,0.0,0.0,0.0,0.0,0.0,0.0,0.0,0.0,0.0,0.0,0.0,0.0,0.0,0.0,0.0,0.0,0.0,0.0,0.0,0.0,0.0,0.0,0.0,0.0,0.0,0.0,0.0,0.0,0.0,0.0,0.0,0.0,-2.2513,-2.1652,-2.2631,-2.3045,-2.2782,-2.2262,-2.1359,0.0,0.0,0.0,0.0,0.0,0.0,0.0,0.0,0.0,0.0,0.0,0.0,0.0,0.0,0.0,0.0,0.0,0.0,0.0,0.0,0.0,0.0,0.0,0.0,0.0,0.0,0.0,0.0,0.0,0.0,0.0,0.0,0.0,0.0,0.0,0.0,0.0,0.0,0.0,0.0,0.0,0.0,0.0,0.0,0.0,0.0,0.0,0.0,-2.1037,0.0,0.0,0.0,0.0,0.0,0.0,0.0,0.0,0.0,0.0,0.0,0.0,0.0,0.0,0.0,0.0,0.0,0.0,0.0,0.0,0.0,0.0,0.0,0.0,0.0,0.0,0.0,0.0,0.0,0.0,0.0,0.0,0.0,0.0,0.0,0.0,0.0,0.0,0.0,0.0,0.0,0.0,0.0,0.0,0.0,0.0,0.0,0.0,0.0,0.0,0.0,0.0,0.0,0.0,0.0,0.0,0.0,0.0,0.0,-2.2701,-2.2185,-2.2867,-2.3168,-2.3044,-2.2748,-2.1899,0.0,0.0,0.0,0.0,0.0,0.0,0.0,0.0,0.0,0.0,0.0,0.0,0.0,0.0,0.0,0.0,0.0,0.0,0.0,0.0,0.0,0.0,0.0,0.0,0.0,0.0,0.0,0.0,0.0,0.0,0.0,0.0,0.0,0.0,0.0,0.0,0.0,0.0,0.0,0.0,0.0,0.0,0.0,0.0,0.0,0.0,0.0,0.0,0.0,0.0,0.0,0.0,0.0,0.0,0.0,0.0,0.0,0.0,0.0,0.0,0.0,0.0,0.0,0.0,0.0,0.0,0.0,0.0,0.0,0.0,0.0,0.0,0.0,0.0,0.0,0.0,0.0,0.0,0.0,0.0,0.0,0.0,0.0,0.0,0.0,0.0,0.0,0.0,0.0,0.0,0.0,0.0,0.0,0.0,0.0,0.0,0.0,0.0,0.0,0.0,0.0,0.0,0.0,0.0,0.0,0.0,0.0,-2.279,-2.3045,-2.3011,-2.3193,-2.3289,-2.3256,-2.3289,-2.2391,-2.0522,0.0,0.0,0.0,0.0,0.0,0.0,0.0,0.0,0.0,0.0,0.0,0.0,0.0,0.0,0.0,0.0,0.0,0.0,0.0,0.0,0.0,0.0,0.0,0.0,0.0,0.0,0.0,0.0,0.0,0.0,0.0,0.0,0.0,0.0,0.0,0.0,0.0,0.0,-2.0114,-2.159,0.0,0.0,0.0,0.0,0.0,0.0,0.0,0.0,-2.3111,0.0,0.0,0.0,0.0,0.0,0.0,0.0,0.0,0.0,0.0,0.0,0.0,0.0,0.0,0.0,0.0,0.0,0.0,0.0,0.0,0.0,0.0,0.0,0.0,0.0,0.0,0.0,0.0,0.0,0.0,0.0,0.0,0.0,0.0,0.0,0.0,0.0,0.0,0.0,0.0,0.0,0.0,0.0,0.0,0.0,0.0,0.0,0.0,0.0,0.0,0.0,0.0,0.0,0.0,0.0,0.0,-2.2931,-2.2866,-2.2902,-2.3095,-2.3217,-2.3232,-2.306,-2.3199,-2.2317,-2.0303,0.0,0.0,0.0,0.0,0.0,0.0,0.0,0.0,0.0,0.0,0.0,0.0,0.0,0.0,0.0,0.0,0.0,0.0,0.0,0.0,0.0,0.0,0.0,0.0,0.0,0.0,0.0,0.0,0.0,0.0,0.0,0.0,0.0,0.0,0.0,0.0,0.0,0.0,0.0,-2.1529,-2.1763,0.0,0.0,0.0,0.0,0.0,0.0,0.0,0.0,-2.3579,0.0,0.0,0.0,0.0,0.0,0.0,0.0,0.0,0.0,0.0,0.0,0.0,0.0,0.0,0.0,0.0,0.0,0.0,0.0,0.0,0.0,0.0,0.0,0.0,0.0,0.0,0.0,0.0,0.0,0.0,0.0,0.0,0.0,0.0,0.0,0.0,0.0,0.0,0.0,0.0,0.0,0.0,0.0,0.0,0.0,0.0,0.0,0.0,0.0,0.0,0.0,0.0,0.0,0.0,0.0,-2.3177,-2.2935,-2.2918,-2.3236,-2.3295,-2.3253,-2.3162,-2.2856,-2.1896,0.0,0.0,0.0,0.0,0.0,0.0,0.0,0.0,0.0,0.0,0.0,0.0,0.0,0.0,0.0,0.0,0.0,0.0,0.0,0.0,0.0,0.0,0.0,0.0,0.0,0.0,0.0,0.0,0.0,0.0,0.0,0.0,0.0,0.0,0.0,0.0,0.0,0.0,0.0,0.0,-2.2422,-2.2697,-2.337,0.0,0.0,0.0,0.0,0.0,0.0,-2.3369,-2.3749,0.0,0.0,0.0,0.0,0.0,0.0,0.0,0.0,0.0,0.0,0.0,0.0,0.0,0.0,0.0,0.0,0.0,0.0,0.0,0.0,0.0,0.0,0.0,0.0,0.0,0.0,0.0,0.0,0.0,0.0,0.0,0.0,0.0,0.0,0.0,0.0,0.0,0.0,0.0,0.0,0.0,0.0,0.0,0.0,0.0,0.0,0.0,0.0,0.0,0.0,0.0,0.0,0.0,0.0,0.0,-2.3235,-2.2972,-2.3035,-2.3423,-2.3362,-2.3283,-2.3259,-2.2599,-2.1622,0.0,0.0,0.0,0.0,0.0,0.0,0.0,0.0,0.0,0.0,0.0,0.0,0.0,0.0,0.0,0.0,0.0,0.0,0.0,0.0,0.0,0.0,0.0,0.0,0.0,0.0,0.0,0.0,0.0,0.0,0.0,0.0,0.0,0.0,0.0,0.0,0.0,0.0,0.0,0.0,0.0,-2.3719,-2.3882,-2.3649,0.0,0.0,0.0,0.0,-2.353,-2.3508,0.0,0.0,0.0,0.0,0.0,0.0,0.0,0.0,0.0,0.0,0.0,0.0,0.0,0.0,0.0,0.0,0.0,0.0,0.0,0.0,0.0,0.0,0.0,0.0,0.0,0.0,0.0,0.0,0.0,0.0,0.0,0.0,0.0,0.0,0.0,0.0,0.0,0.0,0.0,0.0,0.0,0.0,0.0,0.0,0.0,0.0,0.0,0.0,0.0,0.0,0.0,0.0,0.0,0.0,0.0,0.0,-2.2664,-2.2987,-2.3301,-2.3628,-2.3431,-2.3292,-2.323,-2.2954,-2.1985,0.0,0.0,0.0,0.0,0.0,0.0,0.0,0.0,0.0,0.0,0.0,0.0,0.0,0.0,0.0,0.0,0.0,0.0,0.0,0.0,0.0,0.0,0.0,0.0,0.0,0.0,0.0,0.0,0.0,0.0,0.0,0.0,0.0,0.0,0.0,0.0,0.0,0.0,0.0,0.0,0.0,-2.3564,-2.4841,-2.3751,-2.3304,0.0,0.0,-2.3678,-2.3678,-2.3576,0.0,0.0,0.0,0.0,0.0,0.0,0.0,0.0,0.0,0.0,0.0,0.0,0.0,0.0,0.0,0.0,0.0,0.0,0.0,0.0,0.0,0.0,0.0,0.0,0.0,0.0,0.0,0.0,0.0,0.0,0.0,0.0,0.0,0.0,0.0,0.0,0.0,0.0,0.0,0.0,0.0,0.0,0.0,0.0,0.0,0.0,0.0,0.0,0.0,0.0,0.0,0.0,0.0,0.0,0.0,-2.1545,-2.2558,-2.2809,-2.3109,-2.3446,-2.3353,-2.3197,-2.2972,-2.2221,-2.1345,0.0,0.0,0.0,0.0,0.0,0.0,0.0,0.0,0.0,0.0,0.0,0.0,0.0,0.0,0.0,0.0,0.0,0.0,0.0,0.0,0.0,0.0,0.0,0.0,0.0,0.0,0.0,0.0,0.0,0.0,0.0,0.0,0.0,0.0,0.0,0.0,0.0,0.0,0.0,0.0,0.0,0.0,-2.5148,-2.4275,0.0,0.0,0.0,-2.3813,-2.381,0.0,0.0,0.0,0.0,0.0,0.0,0.0,0.0,0.0,0.0,0.0,0.0,0.0,0.0,0.0,0.0,0.0,0.0,0.0,0.0,0.0,0.0,0.0,0.0,0.0,0.0,0.0,0.0,0.0,0.0,0.0,0.0,0.0,0.0,0.0,0.0,0.0,0.0,0.0,0.0,0.0,0.0,0.0,0.0,0.0,0.0,0.0,0.0,0.0,0.0,0.0,0.0,0.0,0.0,0.0,0.0,0.0,-2.2377,-2.2717,-2.3074,-2.3477,-2.3353,-2.3206,-2.2947,-2.1842,0.0,0.0,0.0,0.0,0.0,0.0,0.0,0.0,0.0,0.0,0.0,0.0,0.0,0.0,0.0,0.0,0.0,0.0,0.0,0.0,0.0,0.0,0.0,0.0,0.0,0.0,0.0,-1.487,0.0,0.0,0.0,0.0,0.0,0.0,0.0,0.0,0.0,0.0,0.0,0.0,0.0,0.0,-2.4427,-2.5193,-2.4556,-2.4308,0.0,0.0,-2.3896,-2.3896,-2.3846,-2.4046,0.0,0.0,0.0,0.0,0.0,0.0,0.0,0.0,0.0,0.0,0.0,0.0,0.0,0.0,0.0,0.0,0.0,0.0,0.0,0.0,0.0,0.0,0.0,0.0,0.0,0.0,0.0,0.0,0.0,0.0,0.0,0.0,0.0,0.0,0.0,0.0,0.0,0.0,0.0,0.0,0.0,0.0,0.0,0.0,0.0,0.0,0.0,0.0,0.0,0.0,0.0,0.0,0.0,0.0,0.0,-2.1879,-2.2854,-2.3553,-2.3926,-2.3522,-2.3324,-2.3412,-2.2344,-2.137,0.0,0.0,0.0,0.0,0.0,0.0,0.0,0.0,0.0,0.0,0.0,0.0,0.0,0.0,0.0,0.0,0.0,0.0,0.0,0.0,0.0,0.0,0.0,0.0,0.0,0.0,0.0,0.0,0.0,0.0,0.0,0.0,0.0,0.0,0.0,0.0,0.0,0.0,0.0,0.0,0.0,-2.4178,-2.4922,-2.4272,-2.4085,0.0,0.0,-2.3858,-2.3825,-2.3804,-2.3804,-2.3907,0.0,0.0,0.0,0.0,0.0,0.0,0.0,0.0,0.0,0.0,0.0,0.0,0.0,0.0,0.0,0.0,0.0,0.0,0.0,0.0,0.0,0.0,0.0,0.0,0.0,0.0,0.0,0.0,0.0,0.0,0.0,0.0,0.0,0.0,0.0,0.0,0.0,0.0,0.0,0.0,0.0,0.0,0.0,0.0,0.0,0.0,0.0,0.0,0.0,0.0,0.0,0.0,0.0,-2.1451,-2.158,-2.2772,-2.3445,-2.3544,-2.3307,-2.31,-2.2883,-2.1651,-2.0768,0.0,0.0,0.0,0.0,0.0,0.0,0.0,0.0,0.0,0.0,0.0,0.0,0.0,0.0,0.0,0.0,0.0,0.0,0.0,0.0,0.0,0.0,0.0,0.0,0.0,0.0,0.0,0.0,-1.8225,-1.8331,-1.9383,0.0,0.0,0.0,0.0,0.0,0.0,0.0,0.0,0.0,0.0,-2.4229,-2.5113,-2.4354,0.0,0.0,-2.5233,-2.4641,-2.462,-2.4559,-2.459,-2.4695,-2.4816,0.0,0.0,0.0,0.0,0.0,0.0,0.0,0.0,0.0,0.0,0.0,0.0,0.0,0.0,0.0,0.0,0.0,0.0,0.0,0.0,0.0,0.0,0.0,0.0,0.0,0.0,0.0,0.0,0.0,0.0,0.0,0.0,0.0,0.0,0.0,0.0,0.0,0.0,0.0,0.0,0.0,0.0,0.0,0.0,0.0,0.0,0.0,0.0,0.0,0.0,0.0,0.0,-2.1497,-2.1404,-2.2781,-2.344,-2.331,-2.3164,-2.2959,-2.2635,-2.1266,-2.0392,0.0,0.0,0.0,0.0,0.0,0.0,0.0,0.0,0.0,0.0,0.0,0.0,0.0,0.0,0.0,0.0,0.0,0.0,0.0,0.0,0.0,0.0,0.0,0.0,0.0,0.0,0.0,0.0,-1.933,-1.9159,-2.0345,0.0,0.0,0.0,0.0,0.0,0.0,0.0,0.0,0.0,0.0,-2.4078,-2.4805,-2.4203,-2.4254,-2.589,-2.5543,-2.5187,-2.541,-2.5384,-2.5406,-2.5555,0.0,0.0,0.0,0.0,0.0,0.0,0.0,0.0,0.0,0.0,0.0,0.0,0.0,0.0,0.0,0.0,0.0,0.0,0.0,0.0,0.0,0.0,0.0,0.0,0.0,0.0,0.0,0.0,0.0,0.0,-1.8351,0.0,0.0,0.0,0.0,0.0,0.0,0.0,0.0,0.0,0.0,0.0,0.0,0.0,0.0,0.0,0.0,0.0,0.0,0.0,0.0,0.0,0.0,-2.1652,-2.1422,-2.2898,-2.3571,-2.3292,-2.3182,-2.3051,-2.2917,-2.1355,-2.0486,-2.0433,0.0,0.0,0.0,0.0,0.0,0.0,0.0,0.0,0.0,0.0,0.0,0.0,0.0,0.0,0.0,0.0,0.0,0.0,0.0,0.0,0.0,0.0,0.0,0.0,0.0,0.0,-2.0409,-2.0344,-2.0369,0.0,0.0,0.0,0.0,0.0,0.0,0.0,0.0,0.0,0.0,-2.3619,-2.3753,-2.3859,-2.371,-2.3999,-2.512,-2.5172,-2.5365,-2.6059,-2.6186,-2.6186,0.0,0.0,0.0,0.0,0.0,0.0,0.0,0.0,0.0,0.0,0.0,0.0,0.0,0.0,0.0,0.0,0.0,0.0,0.0,0.0,0.0,0.0,0.0,0.0,0.0,0.0,0.0,-1.9543,-1.912,0.0,0.0,0.0,0.0,0.0,0.0,0.0,0.0,0.0,0.0,0.0,-2.1426,-2.2009,0.0,0.0,0.0,0.0,0.0,0.0,0.0,0.0,0.0,0.0,0.0,0.0,-2.1643,-2.1429,-2.2869,-2.3504,-2.3247,-2.3028,-2.2799,-2.2591,-2.117,-1.9883,-1.8858,0.0,0.0,0.0,0.0,0.0,0.0,0.0,0.0,0.0,0.0,0.0,0.0,0.0,0.0,0.0,0.0,0.0,0.0,0.0,0.0,0.0,0.0,0.0,0.0,0.0,-2.1524,0.0,0.0,0.0,0.0,0.0,0.0,0.0,0.0,0.0,0.0,0.0,-2.3846,-2.3946,-2.3671,-2.3679,-2.4361,-2.3821,-2.4058,0.0,0.0,0.0,0.0,0.0,0.0,0.0,0.0,0.0,0.0,0.0,0.0,0.0,0.0,-2.8226,-2.7111,-2.6897,-2.6897,-2.6897,0.0,0.0,0.0,0.0,0.0,0.0,0.0,0.0,0.0,0.0,0.0,0.0,0.0,0.0,-2.0402,0.0,-1.9961,0.0,0.0,0.0,0.0,0.0,0.0,0.0,0.0,-2.253,-2.272,-2.2319,-2.2854,-2.281,0.0,-2.2314,-2.2353,0.0,0.0,0.0,0.0,0.0,0.0,0.0,0.0,-2.2008,-2.1669,-2.2901,-2.3405,-2.3003,-2.2868,-2.2703,-2.2493,-2.1087,-1.9581,-1.8056,-1.7886,-1.7803,0.0,0.0,0.0,0.0,0.0,0.0,0.0,0.0,0.0,0.0,0.0,0.0,0.0,0.0,0.0,0.0,0.0,0.0,0.0,0.0,0.0,0.0,0.0,-2.2054,0.0,0.0,0.0,0.0,0.0,0.0,0.0,0.0,0.0,-2.4318,-2.3878,-2.3853,-2.4626,-2.3979,-2.3746,-2.4676,0.0,0.0,0.0,0.0,0.0,0.0,0.0,-2.7858,-2.7993,-2.8007,-2.8218,-2.8883,-2.9025,-2.9163,-2.9353,0.0,0.0,-2.7956,-2.7771,-2.778,-2.7771,-2.7548,-2.7335,-2.7373,-2.6794,-2.6168,0.0,0.0,0.0,0.0,0.0,0.0,0.0,0.0,-2.0903,-2.0886,0.0,-2.0842,0.0,0.0,0.0,0.0,0.0,-2.2416,0.0,0.0,-2.3382,-2.3795,-2.3777,-2.3777,-2.3777,-2.3795,-2.383,-2.3851,-2.3778,-2.2456,0.0,0.0,0.0,0.0,0.0,0.0,-2.2696,-2.2158,-2.3088,-2.328,-2.2659,-2.2747,-2.2747,-2.2617,-2.1179,-1.9638,-1.8141,-1.7948,-1.7869,-1.7803,-1.7732,0.0,0.0,0.0,0.0,0.0,0.0,0.0,0.0,0.0,0.0,0.0,0.0,0.0,0.0,0.0,0.0,0.0,0.0,0.0,0.0,-2.2807,0.0,0.0,0.0,0.0,0.0,0.0,0.0,0.0,0.0,0.0,-2.4819,-2.3846,-2.38,-2.5461,0.0,0.0,0.0,0.0,-2.4955,-2.5857,-2.6556,-2.7394,-2.8435,-2.8569,-2.8569,-2.8578,0.0,0.0,-2.903,-2.9197,-2.9274,-2.9381,-2.939,-2.9388,-2.9351,-2.9295,-2.9305,-2.924,-2.8559,-2.8145,-2.8156,-2.7426,-2.6722,-2.3622,0.0,0.0,0.0,0.0,-2.2807,-2.2663,-2.2452,-2.2443,-2.2145,-2.1668,-2.1645,0.0,0.0,0.0,0.0,0.0,0.0,-2.3367,-2.3358,-2.3654,-2.3804,-2.3804,-2.3804,-2.3804,-2.3795,-2.3825,-2.3825,-2.3819,-2.3433,-2.3303,-2.3398,0.0,0.0,0.0,0.0,-2.2729,-2.2374,-2.3086,-2.3233,-2.2831,-2.2799,-2.2548,-2.202,-2.0897,-1.9831,-1.8825,-1.8158,-1.7811,-1.7803,-1.7789,0.0,0.0,0.0,0.0,0.0,0.0,0.0,0.0,0.0,0.0,0.0,0.0,0.0,0.0,0.0,0.0,0.0,0.0,0.0,-2.3759,-2.3631,-2.358,0.0,0.0,0.0,0.0,0.0,0.0,0.0,0.0,0.0,-2.6383,-2.5332,-2.4804,0.0,0.0,-2.4882,-2.5699,-2.5446,-2.5641,-2.6992,-2.7254,0.0,0.0,-2.8587,-2.8562,-2.8467,-2.83,-2.8344,-2.8806,-2.8803,-2.8879,-2.9298,-2.9388,-2.9388,-2.9388,-2.9388,-2.9193,-2.8615,-2.8253,-2.794,-2.7501,-2.6736,-2.6066,-2.3804,-2.3804,-2.3762,-2.3638,-2.3439,-2.3415,-2.3298,-2.3111,-2.3111,-2.2847,-2.2435,-2.2443,-2.2163,-2.1724,-2.2374,0.0,0.0,0.0,-2.3738,-2.3738,-2.3774,-2.3804,-2.3804,-2.3804,-2.3804,-2.3804,-2.3804,-2.3804,-2.3804,-2.3837,-2.3917,-2.3998,0.0,0.0,-2.3398,-2.337,-2.3155,-2.2822,-2.32,-2.3236,-2.2924,-2.285,-2.2478,-2.1725,-2.1077,-2.037,-1.9568,-1.8718,-1.8242,-1.8242,-1.7963,-1.7789,0.0,0.0,0.0,0.0,0.0,0.0,0.0,0.0,0.0,0.0,0.0,-1.9697,-1.9808,0.0,0.0,0.0,-2.1627,-2.2872,-2.409,-2.4047,0.0,0.0,0.0,0.0,0.0,0.0,0.0,-2.5868,-2.6283,-2.6596,-2.6653,-2.6356,-2.626,-2.6641,-2.5825,-2.549,-2.624,0.0,-2.6013,-2.7122,-2.7414,-2.7762,-2.8403,-2.8562,-2.8536,-2.8415,-2.8291,-2.8264,-2.8551,-2.859,-2.8718,-2.9115,-2.9231,-2.9292,-2.9377,-2.9388,-2.9267,-2.8719,-2.8049,-2.7493,-2.7145,-2.6146,-2.5318,-2.3895,-2.3852,-2.3875,-2.366,-2.3321,-2.3321,-2.3241,-2.3111,-2.3111,-2.3111,-2.3111,-2.3111,-2.3111,-2.3135,-2.3378,0.0,-2.3709,-2.378,-2.3804,-2.3804,-2.3804,-2.3804,-2.3804,-2.3804,-2.3804,-2.3804,-2.3804,-2.3804,-2.3804,-2.3804,-2.3846,-2.3896,-2.3946,-2.3996,-2.3987,-2.3987,-2.3795,-2.3405,-2.3408,-2.3238,-2.2919,-2.2876,-2.2538,-2.1803,-2.1532,-2.1062,-2.0311,-1.938,-1.8894,-1.8877,-1.82,-1.7789,-1.7789,0.0,0.0,0.0,0.0,0.0,0.0,0.0,0.0,0.0,0.0,0.0,0.0,0.0,0.0,0.0,-2.2525,0.0,-2.4079,-2.4113,0.0,0.0,0.0,-2.5054,-2.5181,-2.6503,-2.6865,-2.5443,0.0,0.0,-2.6211,-2.6983,-2.7838,-2.8228,-2.6765,-2.5868,-2.656,-2.6337,-2.623,-2.6725,-2.7274,-2.7858,-2.8318,-2.8467,-2.8493,-2.8353,-2.837,-2.8334,-2.8352,-2.8473,-2.8646,-2.8915,-2.8971,-2.908,-2.9344,-2.9377,-2.9388,-2.936,-2.8134,-2.7056,-2.7042,-2.5925,-2.4923,-2.4599,-2.4461,-2.5046,-2.4587,-2.3439,-2.3345,-2.3208,-2.3111,-2.3111,-2.3111,-2.3111,-2.3111,-2.316,-2.3265,-2.3313,-2.3476,-2.3709,-2.3703,-2.375,-2.3804,-2.3804,-2.3804,-2.3804,-2.3804,-2.3804,-2.3804,-2.3804,-2.3804,-2.3804,-2.3804,-2.3816,-2.3825,-2.3846,-2.3896,-2.3987,-2.3946,-2.3749,-2.3412,-2.3455,-2.3289,-2.2902,-2.2842,-2.2704,-2.2479,-2.1773,-2.131,-2.1114,-1.9685,-1.8878,-1.8805,-1.8186,-1.7772,-1.7718,-1.7704,0.0,0.0,0.0,0.0,0.0,0.0,0.0,0.0,0.0,-2.1456,-2.0687,0.0,-2.2152,0.0,-2.2761,-2.3572,-2.4344,-2.422,0.0,0.0,-2.5032,-2.5488,-2.6702,-2.7182,-2.7499,-2.7734,-2.7941,-2.8058,-2.7944,-2.7814,-2.78,-2.8093,-2.735,-2.6901,-2.7126,-2.7021,-2.703,-2.7341,-2.7569,-2.7876,-2.8264,-2.8246,-2.8127,-2.8118,-2.797,-2.7934,-2.8129,-2.8175,-2.8316,-2.8572,-2.8827,-2.9012,-2.908,-2.9262,-2.9377,-2.9351,-2.8542,-2.7652,-2.7201,-2.6222,-2.5489,-2.535,-2.5243,-2.5581,-2.5219,-2.4404,-2.3945,-2.351,-2.3119,-2.3111,-2.3111,-2.3111,-2.3111,-2.316,-2.328,-2.328,-2.3398,-2.362,-2.3687,-2.3703,-2.375,-2.3765,-2.3804,-2.3804,-2.3804,-2.3804,-2.3804,-2.3804,-2.3774,-2.3768,-2.3783,-2.3774,-2.3768,-2.375,-2.3801,-2.3852,-2.3831,-2.3699,-2.3446,-2.3323,-2.3168,-2.291,-2.2833,-2.2773,-2.265,-2.2158,-2.1883,-2.1847,-2.0611,-1.9756,-1.9352,-1.8684,-1.8262,-1.8192,-1.8192,-1.8352,0.0,0.0,0.0,0.0,0.0,0.0,0.0,0.0,0.0,0.0,0.0,-2.2748,-2.2682,-2.3447,-2.4085,-2.4465,-2.4356,-2.4579,-2.5322,-2.557,-2.6118,-2.7281,-2.7709,-2.7997,-2.8053,-2.8206,-2.827,-2.8082,-2.8076,-2.8147,-2.8299,-2.7783,-2.7391,-2.7258,-2.7117,-2.7109,-2.743,-2.7461,-2.7582,-2.8054,-2.7988,-2.7902,-2.7977,-2.7836,-2.7751,-2.7897,-2.7926,-2.8001,-2.8272,-2.8471,-2.8697,-2.8938,-2.9112,-2.9262,-2.9321,-2.9026,-2.8423,-2.7709,-2.6851,-2.62,-2.6119,-2.6097,-2.5958,-2.5835,-2.5685,-2.491,-2.4137,-2.3384,-2.3409,-2.3409,-2.34,-2.3418,-2.3459,-2.3565,-2.3565,-2.3637,-2.377,-2.3777,-2.3799,-2.3813,-2.3774,-2.3753,-2.3783,-2.3783,-2.3774,-2.3774,-2.3762,-2.3738,-2.3678,-2.3738,-2.3738,-2.3678,-2.3687,-2.3678,-2.3678,-2.3665,-2.3589,-2.3462,-2.3144,-2.2936,-2.2893,-2.2825,-2.272,-2.2614,-2.2533,-2.2468,-2.2377,-2.1602,-2.0838,-2.0136,-1.9403,-1.8981,-1.8925,-1.8909,-1.9227,0.0,-2.0127,0.0,0.0,0.0,0.0,0.0,0.0,0.0,0.0,-2.2885,-2.3115,-2.3518,-2.4248,-2.4651,-2.4538,-2.4512,-2.4781,-2.5438,-2.6109,-2.6799,-2.751,-2.8211,-2.8375,-2.7652,-2.8187,-2.8332,-2.7761,-2.8128,-2.8501,-2.837,-2.7869,-2.7391,-2.7158,-2.6875,-2.6842,-2.7126,-2.7181,-2.7408,-2.7701,-2.773,-2.776,-2.7902,-2.7836,-2.7701,-2.773,-2.7722,-2.7791,-2.7992,-2.8093,-2.829,-2.8812,-2.8924,-2.908,-2.9265,-2.931,-2.91,-2.8412,-2.7613,-2.6851,-2.6851,-2.6685,-2.7305,-2.7116,-2.6404,-2.6226,-2.5717,-2.498,-2.4971,-2.4963,-2.498,-2.4971,-2.4971,-2.4998,-2.4998,-2.5077,-2.5179,-2.4617,-2.4373,-2.4397,-2.3821,-2.3611,-2.3712,-2.3611,-2.3603,-2.3721,-2.362,-2.3544,-2.3539,-2.3544,-2.3544,-2.353,-2.3539,-2.353,-2.3539,0.0,0.0,0.0,-2.3038,-2.2885,-2.2808,-2.2712,-2.2641,-2.2623,-2.2487,0.0,-2.2304,-2.1486,-2.0914,-2.0655,-1.9997,0.0,0.0,0.0,0.0,0.0,0.0,0.0,0.0,0.0,0.0,0.0,-2.3719,-2.3601,-2.3124,-2.3736,-2.4202,-2.4288,-2.4538,-2.4682,-2.4666,-2.4554,-2.5064,-2.6414,-2.664,-2.716,-2.8443,-2.8733,-2.8703,-2.8422,-2.8496,-2.8533,-2.8379,-2.821,-2.7945,-2.7785,-2.7295,-2.6891,-2.67,-2.6674,-2.6759,-2.7062,-2.7307,-2.75,-2.7548,-2.7621,-2.7722,-2.773,-2.773,-2.7701,-2.7701,-2.7701,-2.7701,-2.7791,-2.7954,-2.8129,-2.829,-2.8639,-2.9012,-2.9089,-2.9262,-2.9351,-2.9184,-2.8477,-2.7816,-2.753,0.0,-2.7706,-2.7578,0.0,-2.7099,-2.6871,-2.6442,-2.5707,-2.5393,-2.5393,-2.5393,-2.5393,-2.5393,-2.5393,-2.5446,-2.5491,-2.5164,-2.4869,-2.4535,-2.4201,-2.3888,-2.3598,-2.353,-2.353,-2.3589,-2.3539,-2.3462,-2.3415,-2.3462,-2.3471,-2.3415,-2.3383,-2.3392,-2.3336,-2.3182,-2.3084,-2.3111,-2.2944,-2.2833,-2.279,-2.2659,-2.2587,-2.256,0.0,0.0,0.0,0.0,0.0,0.0,0.0,0.0,0.0,0.0,0.0,-2.0811,-2.1038,-2.1437,-2.1979,-2.2234,-2.2723,-2.3539,-2.3937,-2.4016,-2.3721,-2.4186,-2.4497,-2.4504,-2.4589,-2.465,-2.4641,-2.4599,-2.5121,-2.6454,-2.6663,-2.716,-2.8309,-2.8628,-2.8578,-2.8449,-2.8388,-2.8397,-2.8406,-2.8219,-2.8,-2.784,-2.7487,-2.7132,-2.6923,-2.6691,-2.664,-2.6875,-2.7276,-2.7518,-2.7487,-2.7591,-2.7701,-2.7701,-2.7701,-2.7701,-2.7701,-2.7701,-2.7701,-2.773,-2.782,-2.7964,-2.8272,-2.8572,-2.8859,-2.9125,-2.9283,-2.9335,-2.9347,-2.9013,-2.8598,-2.7977,-2.7931,-2.7769,-2.7692,-2.768,-2.7608,-2.7587,-2.7491,0.0,0.0,0.0,-2.5778,-2.5786,-2.5796,-2.5814,-2.5805,-2.5796,-2.5782,-2.5447,-2.4889,-2.4761,-2.4426,-2.3871,-2.3706,-2.3661,-2.3675,-2.3501,-2.3369,-2.3265,-2.3383,-2.336,-2.3274,-2.3274,-2.3241,-2.3151,-2.2984,-2.2917,-2.2936,-2.2833,-2.2764,-2.2764,-2.2641,-2.2542,-2.2479,-2.2405,-2.2302,-2.2168,-2.2168,-2.1829,-2.1089,-2.1055,-2.1036,-2.098,-2.1036,-2.1303,-2.1832,-2.2049,-2.2285,-2.2544,-2.2508,-2.2824,-2.3544,-2.3926,-2.4152,-2.4275,-2.4403,-2.45,-2.4478,-2.4547,-2.4629,-2.4804,-2.4673,-2.5169,-2.6569,-2.6705,-2.7107,-2.8135,-2.8388,-2.844,-2.8228,-2.821,-2.821,-2.821,-2.8182,-2.8127,-2.8063,-2.7769,-2.7535,-2.725,-2.6833,-2.664,-2.6866,-2.7253,-2.7457,-2.7487,-2.7591,-2.7701,-2.7701,-2.7701,-2.7701,-2.771,-2.7701,-2.7663,-2.768,-2.7672,-2.7869,-2.8263,-2.8428,-2.8679,-2.92,-2.9274,-2.9302,-2.9302,-2.9344,-2.9115,-2.7902,-2.7722,-2.7701,-2.7689,-2.7617,-2.7608,-2.7548,-2.7509,-2.7282,-2.7217,-2.7294,-2.7285,-2.7344,-2.7385,-2.7376,-2.7376,-2.7332,-2.6718,-2.6412,0.0,-2.5587,-2.5297,-2.526,-2.4556,-2.4247,-2.4302,-2.3543,-2.3144,-2.3144,-2.3177,-2.3119,-2.3079,-2.3086,-2.3103,-2.3036,-2.2875,-2.2782,-2.2747,-2.2738,-2.2677,-2.2641,-2.2515,-2.2405,-2.2413,-2.2358,-2.2229,-2.2044,-2.2036,-2.1907,-2.1686,-2.1678,-2.1678,-2.1661,-2.1653,-2.1711,-2.1811,-2.1907,-2.2076,-2.2395,-2.2678,-2.3159,-2.3837,-2.3846,-2.389,-2.4182,-2.4339,-2.4412,-2.443,-2.4498,-2.4838,-2.5462,-2.5039,-2.5573,-2.7549,-2.74,-2.7477,-2.8536,-2.8679,-2.8565,-2.8246,-2.821,-2.8174,-2.8146,-2.8081,-2.7931,-2.7739,-2.7591,-2.7355,-2.7126,-2.6825,-2.6866,-2.7207,-2.7373,-2.7478,-2.76,-2.768,-2.7701,-2.7701,-2.7692,-2.771,-2.7701,-2.7651,-2.76,-2.76,-2.7578,-2.7672,-2.7964,-2.8175,-2.8471,-2.8868,-2.9058,-2.9209,-2.9218,-2.9231,-2.9175,-2.7748,-2.7659,-2.7659,-2.7608,-2.7548,-2.7505,-2.7452,-2.739,-2.7399,-2.746,-2.7548,-2.7548,-2.7548,-2.76,-2.763,-2.7651,-2.7642,-2.733,-2.6981,-2.6604,-2.6235,-2.585,-2.5482,-2.5077,-2.4928,-2.4892,-2.4515,-2.4287,-2.4243,-2.4252,-2.4225,-2.4181,-2.4199,-2.4163,-2.411,-2.3588,-2.3257,-2.3225,-2.2838,-2.2614,-2.2542,-2.2451,-2.2377,-2.233,-2.2282,-2.2143,-2.1949,-2.194,-2.1882,-2.1781,-2.1789,-2.1789,-2.1789,-2.1789,-2.1789,-2.1781,-2.1861,-2.1961,-2.2116,-2.2626,-2.3078,-2.3491,-2.3692,-2.3917,-2.4125,-2.4238,-2.4321,-2.4358,-2.4755,-2.5217,-2.5643,-2.5754,-2.633,-2.761,-2.7478,-2.7614,-2.8259,-2.8377,-2.8326,-2.8165,-2.8,-2.7941,-2.7941,-2.7893,-2.7798,-2.7642,-2.75,-2.7364,-2.7324,-2.7126,-2.7062,-2.7324,-2.7465,-2.7548,-2.768,-2.763,-2.7621,-2.7651,-2.763,-2.7608,-2.76,-2.7548,-2.7565,-2.7548,-2.7526,-2.763,-2.784,-2.8112,-2.8402,-2.8679,-2.8971,-2.9112,-2.9143,-2.9121,-2.9098,-2.7651,-2.7578,-2.7578,-2.7535,-2.7474,-2.739,-2.7353,-2.7299,-2.7299,-2.7345,-2.7443,-2.7483,-2.7505,-2.7496,-2.7565,-2.7596,-2.7587,-2.7621,-2.7327,-2.6845,-2.6801,-2.6477,-2.5899,-2.5706,-2.5573,-2.5492,-2.5352,-2.5246,-2.5197,-2.5205,-2.5205,-2.5197,-2.5112,-2.5046,-2.5046,-2.432,-2.3848,-2.3639,-2.308,-2.2685,-2.2487,-2.2405,-2.233,-2.2282,-2.2234,-2.2103,-2.192,-2.1899,-2.1869,-2.1781,-2.1789,-2.1789,-2.1789,-2.1789,-2.1789,-2.1789,-2.184,-2.192,-2.2047,-2.2529,-2.2931,-2.3165,-2.3522,-2.3907,-2.4292,-2.4409,-2.4486,-2.4616,-2.5133,-2.5661,-2.6142,-2.6467,-2.7009,-2.7601,-2.7624,-2.7782,-2.8129,-2.8128,-2.8054,-2.801,-2.7811,-2.773,-2.7701,-2.7701,-2.7701,-2.7651,-2.7518,-2.7465,-2.7526,-2.7395,-2.7333,-2.7404,-2.7518,-2.7578,-2.7651,-2.7569,-2.7526,-2.7587,-2.7557,-2.7526,-2.7496,-2.7496,-2.7474,-2.7474,-2.7434,-2.7548,-2.7791,-2.7992,-2.8219,-2.8478,-2.8679,-2.8854,-2.8943,-2.8839,-2.8896,-2.7578,-2.7526,-2.7505,-2.7483,-2.7407,-2.7353,-2.729,-2.7299,-2.7299,-2.7299,-2.7322,-2.7376,-2.7421,-2.7496,-2.7487,-2.7526,-2.7526,-2.7518,-2.7474,-2.7404,-2.7422,-2.737,-2.7169,-2.6551,-2.6199,-2.6121,-2.5599,-2.5373,-2.5344,-2.5292,-2.524,-2.5169,-2.5005,-2.5007,-2.4985,-2.4756,-2.4253,-2.3547,-2.3375,-2.3019,-2.2437,-2.233,-2.2282,-2.2214,-2.2205,-2.2094,-2.1928,-2.1899,-2.1869,-2.1789,-2.1789,-2.1789,-2.1789,-2.1789,-2.1789,-2.1789,-2.1789,-2.1969,-2.2322,-2.251,-2.2866,-2.3378,-2.3327,-2.3781,-2.492,-2.5152,-2.5263,-2.5435,-2.5474,-2.6204,-2.7498,-2.7191,-2.7438,-2.8607,-2.8312,-2.8091,-2.8363,-2.8475,-2.8273,-2.7789,-2.7751,-2.7701,-2.771,-2.771,-2.7672,-2.7608,-2.7557,-2.7496,-2.7505,-2.7474,-2.7434,-2.7465,-2.7513,-2.7522,-2.7535,-2.7526,-2.7505,-2.7513,-2.7505,-2.7505,-2.7474,-2.7421,-2.7407,-2.7407,-2.7376,-2.7452,-2.76,-2.778,-2.7869,-2.8175,-2.8307,-2.8316,-2.8507,-2.8456,-2.8438,-2.7513,-2.7452,-2.743,-2.7359,-2.7215,-2.7184,-2.7178,-2.7113,-2.7113,-2.7145,-2.7175,-2.7224,-2.7287,-2.7385,-2.7421,-2.7438,-2.746,-2.7465,-2.7496,-2.7496,-2.7496,-2.7496,-2.7452,-2.7183,-2.6978,-2.6935,-2.6632,-2.648,-2.6433,-2.6364,-2.6299,-2.6316,-2.6201,-2.6156,-2.6079,-2.5127,-2.4423,-2.4087,-2.3089,-2.2441,-2.2217,-2.2147,-2.2089,-2.204,-2.202,-2.1945,-2.1848,-2.184,-2.1797,-2.1686,-2.1702,-2.1625,-2.1534,-2.1495,-2.1565,-2.1656,-2.1759,-2.1957,-2.2309,-2.2581,-2.2916,-2.3353,-2.3911,-2.4514,-2.5096,-2.5585,-2.6124,-2.6689,-2.6817,-2.7211,-2.785,-2.8025,-2.839,-2.8792,-2.8469,-2.8303,-2.863,-2.821,-2.7904,-2.801,-2.7771,-2.7578,-2.7569,-2.7569,-2.7569,-2.7548,-2.7496,-2.7505,-2.7452,-2.743,-2.743,-2.7459,-2.7713,-2.7846,-2.7604,-2.7412,-2.7407,-2.7438,-2.7407,-2.7385,-2.7376,-2.7376,-2.7362,-2.7353,-2.7322,-2.7313,-2.7412,-2.7621,-2.7771,-2.8037,-2.8308,-2.8395,-2.8343,-2.8192,-2.8273,-2.7421,-2.7393,-2.7336,-2.7224,-2.707,-2.7079,-2.7064,-2.7024,-2.6992,-2.7031,-2.7079,-2.7079,-2.7128,-2.7227,-2.7322,-2.7393,-2.7393,-2.7438,-2.7452,-2.7443,-2.7452,-2.7452,-2.7404,-2.7395,-2.735,-2.7313,-2.7247,-2.7233,-2.7218,-2.7128,-2.7079,-2.7047,-2.6966,-2.6831,-2.6526,-2.5488,-2.4726,-2.4076,-2.3033,-2.2387,-2.2053,-2.192,-2.1861,-2.184,-2.1848,-2.1781,-2.1678,-2.1678,-2.1617,-2.1511,-2.152,-2.145,-2.1325,-2.1285,-2.1388,-2.1581,-2.1686,-2.1878,-2.2175,-2.2421,-2.2825,-2.3425,-2.4287,-2.5036,-2.5647,-2.625,-2.7,-2.7821,-2.7949,-2.7958,-2.8254,-2.8736,-2.8948,-2.8758,-2.8524,-2.8455,-2.8447,-2.7924,-2.773,-2.7992,-2.7713,-2.7496,-2.7496,-2.7505,-2.7483,-2.7483,-2.7443,-2.7412,-2.7376,-2.7376,-2.7345,-2.7316,-2.7764,-2.7855,-2.7542,-2.7627,-2.7546,-2.7348,-2.733,-2.729,-2.725,-2.729,-2.729,-2.7273,-2.7273,-2.7313,-2.7367,-2.7548,-2.778,-2.801,-2.8255,-2.8343,-2.8111,-2.8102,-2.8075,-2.7353,-2.7316,-2.7184,-2.7122,-2.7016,-2.7007,-2.7007,-2.6983,-2.6992,-2.7007,-2.7007,-2.7016,-2.7024,-2.7057,-2.7218,-2.7282,-2.729,-2.7282,-2.7322,-2.7313,-2.7313,-2.7233,-2.7117,-2.7126,-2.7079,-2.7057,-2.7048,-2.7007,-2.7024,-2.7007,-2.7016,-2.6975,-2.6817,-2.6386,-2.5905,-2.6101,-2.5338,-2.3672,-2.3696,-2.3331,-2.2119,-2.1782,-2.1732,-2.176,-2.1686,-2.1595,-2.1379,-2.1309,-2.1317,-2.1325,-2.1325,-2.1317,-2.1285,-2.1285,-2.1379,-2.1559,-2.1573,-2.1733,-2.194,-2.2065,-2.2584,-2.369,-2.42,-2.4995,-2.6666,-2.7163,-2.771,-2.8539,-2.8379,-2.8429,-2.8782,-2.8814,-2.8839,-2.866,-2.8567,-2.8343,-2.7915,-2.7867,-2.771,-2.7621,-2.7531,-2.7465,-2.7496,-2.743,-2.7407,-2.7393,-2.7362,-2.7348,-2.7299,-2.7299,-2.7376,-2.7411,-2.748,-2.7376,-2.7425,-2.7633,-2.7747,-2.7549,-2.7282,-2.7233,-2.7233,-2.7192,-2.7201,-2.7201,-2.7209,-2.7241,-2.7345,-2.7505,-2.773,-2.7934,-2.801,-2.8001,-2.8001,-2.8228,-2.8165,-2.8236,-2.7833,-2.7774,-2.7434,-2.6967,-2.6926,-2.69,-2.6808,-2.6817,-2.6859,-2.6917,-2.6926,-2.695,-2.7016,-2.7089,-2.713,-2.7105,-2.713,-2.7113,-2.7122,-2.7113,-2.7072,-2.7031,-2.7031,-2.7031,-2.7007,-2.6942,-2.6876,-2.6825,-2.6767,-2.6742,-2.675,-2.664,-2.6421,-2.6185,-2.5824,-2.5171,-2.4365,-2.4017,-2.3506,-2.2908,-2.2785,-2.2516,-2.1965,-2.1599,-2.1402,-2.1317,-2.1285,-2.1246,-2.1183,-2.1167,-2.1127,-2.1015,-2.1095,-2.1191,-2.1285,-2.1348,-2.1761,-2.2485,-2.268,-2.3249,-2.4353,-2.5088,-2.5731,-2.6694,-2.7406,-2.8038,-2.8437,-2.8585,-2.8685,-2.8718,-2.8551,-2.8352,-2.8483,-2.8335,-2.8156,-2.8019,-2.7858,-2.7692,-2.7621,-2.7487,-2.7376,-2.7359,-2.7287,-2.7256,-2.7356,-2.7614,-2.7592,-2.7367,-2.7514,-2.7816,-2.7919,-2.8219,-2.8536,-2.8519,-2.7889,-2.7575,-2.7428,-2.7241,-2.7192,-2.7152,-2.7182,-2.7175,-2.7115,-2.7139,-2.7229,-2.731,-2.7509,-2.7742,-2.7789,-2.7858,-2.8179,-2.7963,-2.8433,-2.827,-2.8859,-2.8372,-2.8074,-2.7614,-2.7089,-2.6852,-2.6708,-2.6649,-2.6649,-2.67,-2.6759,-2.6759,-2.6792,-2.6817,-2.6851,-2.6859,-2.6851,-2.695,-2.6992,-2.6992,-2.6992,-2.6975,-2.6983,-2.6983,-2.6917,-2.6884,-2.6775,-2.6708,-2.6657,-2.6598,-2.658,-2.6546,-2.6434,-2.6195,-2.5954,-2.5524,-2.5096,-2.4488,-2.4109,-2.3767,-2.3425,-2.328,-2.2986,-2.2452,-2.1965,-2.1503,-2.1167,-2.1151,-2.1119,-2.103,-2.0998,-2.0933,-2.0827,-2.0933,-2.1134,-2.1391,-2.1496,-2.1997,-2.2947,-2.3214,-2.3725,-2.4827,-2.5505,-2.6143,-2.6723,-2.7445,-2.7901,-2.8156,-2.8192,-2.8273,-2.8273,-2.7888,-2.7745,-2.8138,-2.801,-2.7774,-2.7745,-2.7573,-2.7461,-2.7408,-2.7301,-2.7241,-2.7218,-2.7152,-2.7152,-2.7195,-2.7706,-2.7852,-2.762,-2.7989,-2.8468,-2.8493,-2.8818,-2.9032,-2.8895,-2.8322,-2.7901,-2.7712,-2.718,-2.7096,-2.7132,-2.717,-2.7205,-2.7111,-2.7118,-2.7177,-2.7342,-2.7531,-2.7651,-2.7745,-2.8251,-2.869,-2.8708,-2.8843,-2.8758,-2.9081,-2.8828,-2.8073,-2.7757,-2.7464,-2.6981,-2.6577,-2.6687,-2.6612,-2.6637,-2.6705,-2.657,-2.6554,-2.652,-2.6546,-2.652,-2.6597,-2.6826,-2.6942,-2.695,-2.6959,-2.6917,-2.6859,-2.6851,-2.675,-2.6615,-2.6511,-2.6493,-2.6477,-2.6442,-2.645,-2.6407,-2.6134,-2.5702,-2.497,-2.533,-2.49,-2.4066,-2.42,-2.4108,-2.3306,-2.3235,-2.3119,-2.2948,-2.271,-2.207,-2.0984,-2.0962,-2.1,-2.0944,-2.0897,-2.0818,-2.0826,-2.0857,-2.1185,-2.1867,-2.2053,-2.2531,-2.3272,-2.3454,-2.4013,-2.5046,-2.5388,-2.6002,-2.6883,-2.7296,-2.7503,-2.7551,-2.7457,-2.7422,-2.7616,-2.721,-2.7123,-2.7698,-2.7628,-2.7382,-2.7143,-2.704,-2.7016,-2.7048,-2.7087,-2.7079,-2.7048,-2.7166,-2.7218,-2.7322,-2.7828,-2.8305,-2.8203,-2.8715,-2.9124,-2.9175,-2.9302,-2.9436,-2.908,-2.869,-2.8382,-2.8058,-2.74,-2.7024,-2.7154,-2.7207,-2.7419,-2.7369,-2.7647,-2.7713,-2.7359,-2.7613,-2.8067,-2.8269,-2.8815,-2.9347,-2.9546,-2.9671,-2.9685,-2.9992,-2.9466,-2.9185,-2.8745,-2.8281,-2.8014,-2.7938,-2.7855,-2.742,-2.7197,-2.7121,-2.6703,-2.6485,-2.6485,-2.6485,-2.6485,-2.652,-2.6615,-2.6657,-2.6649,-2.6657,-2.6649,-2.6615,-2.6623,-2.6537,-2.6417,-2.6374,-2.6329,-2.6274,-2.6151,-2.6071,-2.6035,-2.5836,-2.5574,-2.5256,-2.5379,-2.5072,-2.4573,-2.463,-2.4561,-2.4186,-2.4092,-2.3889,-2.3465,-2.3342,-2.2897,-2.2121,-2.2058,-2.205,-2.2011,-2.1588,-2.1161,-2.0907,-2.1175,-2.1597,-2.1946,-2.2425,-2.3044,-2.3815,-2.4112,-2.459,-2.5456,-2.5849,-2.6192,-2.6699,-2.6906,-2.7106,-2.7281,-2.7312,-2.7404,-2.7387,-2.7204,-2.7132,-2.7457,-2.7378,-2.7236,-2.7031,-2.6992,-2.6992,-2.7016,-2.7031,-2.699,-2.7118,-2.7349,-2.7725,-2.7853,-2.8687,-2.9279,-2.9,-2.9364,-2.9776,-2.981,-2.9861,-2.9938,-2.9815,-2.9519,-2.9068,-2.8605,-2.7894,-2.7182,-2.7216,-2.7691,-2.7801,-2.7725,-2.8015,-2.7968,-2.7621,-2.7792,-2.8264,-2.8998,-2.9687,-3.0095,-3.0413,-3.0565,-3.0657,-3.0547,-3.0072,-2.9732,-2.9287,-2.8752,-2.8511,-2.834,-2.8221,-2.78,-2.7585,-2.7437,-2.6825,-2.654,-2.6482,-2.6267,-2.6187,-2.6178,-2.6162,-2.6162,-2.6214,-2.645,-2.6485,-2.6485,-2.6372,-2.6225,-2.6101,-2.6046,-2.6018,-2.5979,-2.5852,-2.5778,-2.5762,-2.5584,-2.5424,-2.5301,-2.5177,-2.5021,-2.4799,-2.4791,-2.4735,-2.4597,-2.4572,-2.4362,-2.3973,-2.3864,-2.3662,-2.3289,-2.3258,-2.3018,-2.2643,-2.216,-2.176,-2.1479,-2.1823,-2.2196,-2.2626,-2.3017,-2.3613,-2.4374,-2.4607,-2.4962,-2.5577,-2.5795,-2.6007,-2.6277,-2.6426,-2.6615,-2.6849,-2.6989,-2.7068,-2.7036,-2.6956,-2.6899,-2.698,-2.706,-2.7012,-2.6916,-2.6892,-2.6892,-2.6943,-2.718,-2.73,-2.7453,-2.7955,-2.8371,-2.8584,-2.9378,-3.004,-2.9714,-3.0049,-3.0273,-3.0411,-3.0398,-3.0566,-3.0765,-3.0365,-2.9827,-2.9185,-2.8491,-2.7794,-2.7415,-2.8328,-2.882,-2.8137,-2.8117,-2.7836,-2.7532,-2.8025,-2.8561,-2.949,-3.0438,-3.0767,-3.107,-3.1592,-3.1694,-3.0684,-3.0634,-2.9798,-2.9354,-2.9075,-2.8518,-2.82,-2.7923,-2.7818,-2.7778,-2.7551,-2.6933,-2.6537,-2.6361,-2.5915,-2.5688,-2.5613,-2.568,-2.568,-2.5799,-2.6115,-2.6345,-2.6302,-2.6107,-2.5893,-2.5729,-2.5672,-2.5634,-2.5659,-2.5567,-2.5575,-2.553,-2.5317,-2.5209,-2.5037,-2.4894,-2.4726,-2.4581,-2.4589,-2.4549,-2.449,-2.4464,-2.449,-2.4428,-2.4289,-2.4243,-2.4263,-2.4168,-2.369,-2.2815,-2.2628,-2.2535,-2.2557,-2.2604,-2.2953,-2.3552,-2.377,-2.4217,-2.4784,-2.4926,-2.509,-2.5309,-2.5448,-2.547,-2.5881,-2.6018,-2.6118,-2.6287,-2.6408,-2.6468,-2.646,-2.6503,-2.6503,-2.6546,-2.6691,-2.67,-2.67,-2.6716,-2.6716,-2.681,-2.7377,-2.7878,-2.7706,-2.8435,-2.8859,-2.9178,-2.9707,-3.0112,-3.0226,-3.0499,-3.0864,-3.0883,-3.0782,-3.0744,-3.0821,-3.0645,-3.012,-2.9855,-2.9201,-2.8594,-2.7897,-2.8668,-2.9272,-2.867,-2.8244,-2.7853,-2.7979,-2.8667,-2.9327,-3.0221,-3.0894,-3.1287,-3.1666,-3.2068,-3.212,-3.0127,-3.0236,-2.9864,-2.9648,-2.9597,-2.9386,-2.9278,-2.9186,-2.8634,-2.8115,-2.7632,-2.6912,-2.6346,-2.5859,-2.5697,-2.5613,-2.5575,-2.5567,-2.5584,-2.5645,-2.5758,-2.5824,-2.5844,-2.5754,-2.568,-2.5597,-2.5513,-2.5567,-2.5462,-2.5301,-2.5216,-2.5067,-2.491,-2.4751,-2.4653,-2.462,-2.4531,-2.4392,-2.4392,-2.4385,-2.4351,-2.4284,-2.4291,-2.4317,-2.4242,-2.4276,-2.4359,-2.4284,-2.3923,-2.3195,-2.3126,-2.291,-2.2645,-2.2994,-2.3398,-2.3678,-2.4131,-2.4499,-2.4791,-2.4958,-2.5123,-2.5294,-2.5402,-2.5584,-2.5659,-2.5712,-2.5741,-2.5836,-2.5962,-2.6007,-2.5946,-2.6162,-2.6355,-2.6477,-2.6503,-2.6529,-2.6572,-2.6537,-2.658,-2.6622,-2.6825,-2.7168,-2.774,-2.8303,-2.9029,-2.9538,-3.0085,-3.0639,-3.0614,-3.0602,-3.0846,-3.0895,-3.0853,-3.0797,-3.0748,-3.0599,-3.045,-3.0377,-2.9945,-2.947,-2.8887,-2.878,-2.9076,-2.8903,-2.8853,-2.8542,-2.9138,-2.9814,-3.0468,-3.0958,-3.1478,-3.1927,-3.1884,-3.2121,-3.201,-2.9777,-2.9685,-2.9681,-2.9669,-2.9589,-2.952,-2.9454,-2.9316,-2.8957,-2.8331,-2.7631,-2.6946,-2.6278,-2.5648,-2.5321,-2.5169,-2.5169,-2.5169,-2.5177,-2.5162,-2.5131,-2.524,-2.5331,-2.5323,-2.5277,-2.5185,-2.5177,-2.5146,-2.5029,-2.4918,-2.4831,-2.4743,-2.4556,-2.4418,-2.4351,-2.4317,-2.4276,-2.4185,-2.4185,-2.4185,-2.4143,-2.4158,-2.4151,-2.4143,-2.4109,-2.4158,-2.4158,-2.4116,-2.396,-2.3728,-2.3684,-2.3548,-2.3304,-2.3574,-2.3853,-2.3997,-2.4354,-2.4605,-2.4726,-2.4831,-2.4958,-2.5053,-2.5201,-2.5309,-2.5432,-2.5486,-2.5478,-2.5613,-2.5741,-2.5741,-2.5799,-2.6063,-2.6214,-2.6231,-2.6258,-2.6293,-2.6485,-2.6477,-2.6485,-2.6552,-2.6786,-2.7205,-2.7908,-2.841,-2.9139,-2.9884,-3.0199,-3.0568,-3.0769,-3.0732,-3.0634,-3.0642,-3.0477,-3.0302,-3.017,-3.0005,-2.9848,-2.984,-2.988,-2.9557,-2.9537,-2.9014,-2.8835,-2.8945,-2.9186,-2.9458,-2.9869,-3.0378,-3.1025,-3.1524,-3.211,-3.2019,-3.1753,-3.1542,-3.1515,-2.9464,-2.9099,-2.9379,-2.9372,-2.9198,-2.909,-2.8936,-2.8787,-2.8732,-2.8249,-2.7484,-2.6923,-2.6147,-2.5527,-2.4873,-2.4605,-2.4589,-2.4662,-2.463,-2.4597,-2.4597,-2.467,-2.4895,-2.4887,-2.4759,-2.4662,-2.4597,-2.4597,-2.4589,-2.4515,-2.4449,-2.44,-2.4317,-2.4227,-2.4135,-2.4128,-2.4044,-2.4017,-2.4024,-2.4024,-2.4017,-2.4024,-2.4017,-2.4017,-2.4024,-2.4024,-2.3982,-2.3982,-2.3986,-2.4109,-2.4166,-2.4108,-2.4184,-2.4238,-2.4328,-2.4338,-2.4403,-2.4531,-2.4597,-2.4638,-2.4678,-2.4759,-2.4814,-2.4902,-2.5131,-2.5201,-2.5278,-2.5416,-2.5516,-2.5629,-2.5807,-2.6007,-2.6015,-2.5942,-2.5889,-2.6043,-2.6302,-2.6415,-2.6424,-2.644,-2.6991,-2.7643,-2.8219,-2.8653,-2.9023,-2.9583,-2.9955,-3.0236,-3.0369,-3.0343,-3.0267,-3.0267,-2.9982,-2.9621,-2.9491,-2.9353,-2.9145,-2.9058,-2.9156,-2.9175,-2.9618,-2.9321,-2.8859,-2.8759,-2.8956,-2.9353,-2.9854,-3.0499,-3.1322,-3.1497,-3.164,-3.1282,-3.0856,-3.0665,-3.0557,-2.8974,-2.8865,-2.8834,-2.8795,-2.8716,-2.8613,-2.8533,-2.85,-2.85,-2.7821,-2.6779,-2.6417,-2.5685,-2.4639,-2.4485,-2.4359,-2.4351,-2.4385,-2.4343,-2.4336,-2.4253,-2.4211,-2.4362,-2.4369,-2.4377,-2.4351,-2.4343,-2.4302,-2.4245,-2.4204,-2.4135,-2.4109,-2.4059,-2.4059,-2.4024,-2.3967,-2.4017,-2.3982,-2.399,-2.3932,-2.3932,-2.389,-2.389,-2.394,-2.3975,-2.3932,-2.3839,-2.3839,-2.3839,-2.3882,-2.3975,-2.4017,-2.4109,-2.4166,-2.4216,-2.425,-2.4325,-2.44,-2.449,-2.4531,-2.4556,-2.4638,-2.4638,-2.467,-2.471,-2.4846,-2.4934,-2.5013,-2.5209,-2.5402,-2.5584,-2.5538,-2.5592,-2.5645,-2.5645,-2.5691,-2.5766,-2.5807,-2.5836,-2.5877,-2.5991,-2.6305,-2.7079,-2.7619,-2.8249,-2.909,-2.9499,-2.9825,-2.9848,-2.9823,-2.9813,-2.9697,-2.9657,-2.9303,-2.893,-2.8855,-2.8809,-2.8625,-2.8663,-2.8896,-2.934,-2.9213,-2.8595,-2.8509,-2.8708,-2.9248,-3.0084,-3.0608,-3.1436,-3.1288,-3.107,-3.0478,-3.0033,-2.9831,-2.9534,-2.8558,-2.8456,-2.8406,-2.8437,-2.8381,-2.8307,-2.8201,-2.8209,-2.8209,-2.7429,-2.6367,-2.6145,-2.5396,-2.4204,-2.4143,-2.4135,-2.4143,-2.4143,-2.4135,-2.4044,-2.4002,-2.3917,-2.3839,-2.3882,-2.3975,-2.4101,-2.4135,-2.4086,-2.4002,-2.3952,-2.3875,-2.3761,-2.3761,-2.3711,-2.3675,-2.3668,-2.366,-2.3653,-2.3675,-2.3668,-2.3653,-2.3668,-2.3675,-2.3769,-2.3769,-2.3718,-2.3574,-2.3625,-2.3632,-2.3668,-2.3754,-2.389,-2.399,-2.4074,-2.4124,-2.4116,-2.42,-2.4284,-2.4333,-2.4408,-2.4449,-2.4523,-2.4572,-2.4556,-2.4589,-2.4686,-2.4686,-2.4734,-2.4886,-2.5037,-2.5201,-2.547,-2.5486,-2.541,-2.5394,-2.5402,-2.544,-2.5516,-2.5592,-2.5621,-2.5675,-2.6081,-2.6545,-2.6816,-2.7357,-2.8143,-2.7973,-2.8249,-2.8791,-2.8798,-2.8973,-2.903,-2.9212,-2.9051,-2.8538,-2.8394,-2.8508,-2.8404,-2.8357,-2.8682,-2.9118,-2.8701,-2.8186,-2.8516,-2.9019,-2.9835,-3.0575,-3.1089,-3.1184,-3.0994,-3.0568,-2.9786,-2.916,-2.8853,-2.8549,-2.8166,-2.7923,-2.8084,-2.8145,-2.808,-2.7997,-2.7898,-2.7898,-2.7784,-2.699,-2.6007,-2.5803,-2.4919,-2.4101,-2.389,-2.3897,-2.3897,-2.3847,-2.3789,-2.3696,-2.3551,-2.3421,-2.3297,-2.3246,-2.3231,-2.3645,-2.3789,-2.3754,-2.361,-2.3645,-2.3523,-2.3407,-2.3466,-2.3458,-2.3356,-2.3312,-2.3341,-2.3363,-2.3392,-2.3363,-2.3356,-2.3451,-2.3502,-2.3502,-2.3502,-2.3466,-2.3407,-2.3407,-2.3473,-2.3458,-2.353,-2.366,-2.3839,-2.3932,-2.3975,-2.3982,-2.4074,-2.4166,-2.4208,-2.4242,-2.4276,-2.4416,-2.4464,-2.449,-2.4515,-2.4564,-2.4605,-2.4597,-2.463,-2.471,-2.4814,-2.5084,-2.527,-2.5193,-2.5068,-2.5068,-2.5209,-2.5371,-2.5363,-2.5432,-2.5363,-2.5581,-2.5845,-2.6102,-2.6647,-2.7042,-2.6816,-2.6848,-2.7404,-2.7811,-2.7965,-2.8235,-2.841,-2.8791,-2.8383,-2.8418,-2.8485,-2.853,-2.8379,-2.8724,-2.9124,-2.9136,-2.8989,-2.9117,-2.9629,-3.0212,-3.0516,-3.0689,-3.0707,-3.0604,-3.0205,-2.9529,-2.875,-2.7959,-2.7684,-2.7913,-2.7686,-2.783,-2.789,-2.784,-2.7725,-2.7552,-2.7391,-2.6919,-2.6165,-2.5327,-2.48,-2.4185,-2.3563,-2.34,-2.34,-2.3392,-2.3392,-2.3348,-2.3201,-2.2965,-2.2687,-2.2589,-2.2292,-2.2125,-2.2324,-2.2815,-2.3068,-2.2927,-2.3113,-2.3076,-2.2837,-2.312,-2.3268,-2.3224,-2.3268,-2.3216,-2.3223,-2.3209,-2.3238,-2.3268,-2.3297,-2.3319,-2.3319,-2.3319,-2.3334,-2.3275,-2.3319,-2.3327,-2.3312,-2.3356,-2.3407,-2.3494,-2.3703,-2.3797,-2.3847,-2.3932,-2.4024,-2.4032,-2.4067,-2.4116,-2.4216,-2.4257,-2.4284,-2.4343,-2.4441,-2.4482,-2.4523,-2.4556,-2.4589,-2.463,-2.4791,-2.4783,-2.471,-2.4759,-2.4703,-2.4759,-2.4846,-2.4886,-2.5013,-2.4989,-2.5005,-2.5227,-2.5465,-2.5805,-2.6187,-2.6203,-2.617,-2.6532,-2.6811,-2.6957,-2.7251,-2.7535,-2.7963,-2.8283,-2.847,-2.8647,-2.8828,-2.8837,-2.909,-2.947,-2.9881,-3.0011,-2.9765,-2.9607,-2.9788,-3.004,-3.0344,-3.03,-3.0326,-2.9825,-2.9273,-2.8444,-2.7618,-2.7477,-2.7472,-2.7289,-2.7444,-2.7481,-2.7421,-2.7058,-2.6831,-2.6685,-2.5973,-2.5228,-2.459,-2.4072,-2.3606,-2.3177,-2.2934,-2.2882,-2.2889,-2.2889,-2.2747,-2.2558,-2.2314,-2.2021,-2.1826,-2.1479,-2.139,-2.1493,-2.1894,-2.2135,-2.2088,-2.2596,-2.2565,-2.2395,-2.2716,-2.2904,-2.2776,-2.2678,-2.2837,-2.2898,-2.2934,-2.2978,-2.3067,-2.3127,-2.3201,-2.3194,-2.3149,-2.3157,-2.3105,-2.3157,-2.3201,-2.3194,-2.3282,-2.3268,-2.3363,-2.3451,-2.3581,-2.3632,-2.3761,-2.3832,-2.3882,-2.3932,-2.4032,-2.4074,-2.4074,-2.4109,-2.4151,-2.4242,-2.4367,-2.44,-2.449,-2.4564,-2.4572,-2.4556,-2.4581,-2.4589,-2.4556,-2.4556,-2.4597,-2.4564,-2.4613,-2.4661,-2.4701,-2.4742,-2.4701,-2.4937,-2.5092,-2.5269,-2.548,-2.5586,-2.5734,-2.5878,-2.6037,-2.6486,-2.6865,-2.7612,-2.8228,-2.8796,-2.9168,-2.9328,-2.9372,-2.9587,-2.9739,-3.0052,-3.0099,-2.9925,-2.979,-2.9661,-3.0238,-3.0752,-3.0418,-2.9919,-2.9248,-2.8587,-2.7935,-2.742,-2.7248,-2.6908,-2.6776,-2.6967,-2.6938,-2.6748,-2.6279,-2.5928,-2.5694,-2.4929,-2.4296,-2.3717,-2.3352,-2.3016,-2.2619,-2.2367,-2.2235,-2.2289,-2.2235,-2.1988,-2.1799,-2.1547,-2.13,-2.1044,-2.0799,-2.0614,-2.0434,-2.059,-2.0881,-2.1321,-2.184,-2.1908,-2.1827,-2.2196,-2.2441,-2.2263,-2.2317,-2.2353,-2.2445,-2.242,-2.2456,-2.2555,-2.2805,-2.285,-2.2835,-2.2902,-2.2843,-2.2752,-2.2797,-2.294,-2.2985,-2.3068,-2.3135,-2.3187,-2.3231,-2.3282,-2.3414,-2.3494,-2.361,-2.3703,-2.3804,-2.3847,-2.3882,-2.3932,-2.3975,-2.4024,-2.4116,-2.4208,-2.4276,-2.4367,-2.4408,-2.4367,-2.4441,-2.4515,-2.4467,-2.4441,-2.4449,-2.4482,-2.4482,-2.4449,-2.449,-2.4523,-2.4523,-2.4482,-2.4498,-2.4699,-2.4689,-2.489,-2.4794,-2.4891,-2.5022,-2.5238,-2.5753,-2.6326,-2.7259,-2.8151,-2.9148,-2.9666,-3.0205,-3.0099,-3.0153,-3.0114,-3.016,-2.9992,-2.9773,-2.9918,-2.9903,-3.0557,-3.08,-3.0257,-2.9591,-2.8707,-2.8118,-2.7827,-2.7408,-2.7108,-2.6258,-2.6044,-2.6293,-2.6088,-2.5667,-2.5479,-2.507,-2.449,-2.3793,-2.3453,-2.3033,-2.2557,-2.2087,-2.1759,-2.1382,-2.1444,-2.1486,-2.1321,-2.1071,-2.0924,-2.0564,-2.0364,-2.0175,-1.9798,-1.9585,-1.9436,-1.9337,-1.9695,-2.0283,-2.0874,-2.1091,-2.1042,-2.1451,-2.18,-2.1935,-2.1881,-2.2217,-2.2156,-2.1888,-2.1602,-2.1479,-2.1976,-2.2091,-2.1983,-2.2177,-2.237,-2.2324,-2.2377,-2.247,-2.2661,-2.2661,-2.2797,-2.2895,-2.294,-2.303,-2.3112,-2.3238,-2.3356,-2.34,-2.3538,-2.3625,-2.366,-2.3754,-2.3839,-2.3932,-2.3982,-2.4024,-2.4024,-2.4158,-2.42,-2.4151,-2.42,-2.425,-2.425,-2.4242,-2.4284,-2.4317,-2.4317,-2.4325,-2.4276,-2.4268,-2.4261,-2.4302,-2.431,-2.4325,-2.4299,-2.4257,-2.42,-2.4181,-2.438,-2.4525,-2.506,-2.5741,-2.6662,-2.7518,-2.8626,-2.9493,-3.0429,-3.0252,-3.0125,-2.9968,-2.9663,-2.9561,-2.9417,-2.9595,-2.9788,-3.0083,-3.0114,-2.9843,-2.9278,-2.8492,-2.822,-2.8075,-2.7572,-2.6976,-2.5508,-2.5795,-2.5783,-2.5446,-2.4931,-2.4573,-2.4023,-2.3321,-2.2456,-2.1979,-2.1791,-2.1343,-2.0963,-2.0766,-2.0603,-2.0553,-2.0497,-2.0232,-1.9914,-1.9754,-1.9445,-1.9248,-1.9004,-1.8762,-1.8566,-1.8566,-1.8506,-1.8614,-1.9214,-1.9831,-2.0308,-2.0295,-2.0709,-2.0957,-2.1153,-2.1062,-2.1313,-2.1464,-2.1579,-2.139,-2.1249,-2.1499,-2.1657,-2.1299,-2.1834,-2.1983,-2.1935,-2.2137,-2.2231,-2.2377,-2.2377,-2.241,-2.2424,-2.2417,-2.241,-2.279,-2.2692,-2.2866,-2.3231,-2.3319,-2.34,-2.3451,-2.3581,-2.3718,-2.3839,-2.3882,-2.3932,-2.3982,-2.4074,-2.4032,-2.3982,-2.4074,-2.4074,-2.4074,-2.4032,-2.4067,-2.4101,-2.4116,-2.4116,-2.4059,-2.4009,-2.4009,-2.4051,-2.4059,-2.4109,-2.4116,-2.4124,-2.4067,-2.4059,-2.4128,-2.4249,-2.4414,-2.5155,-2.6014,-2.6844,-2.7764,-2.854,-2.9189,-2.8903,-2.8861,-2.9097,-2.8987,-2.8848,-2.889,-2.9033,-2.9234,-2.9516,-2.9323,-2.8956,-2.8669,-2.8346,-2.7947,-2.7564,-2.7284,-2.6825,-2.4244,-2.4803,-2.4908,-2.4634,-2.4113,-2.3437,-2.2848,-2.223,-2.1269,-2.0809,-2.059,-2.0201,-1.9901,-1.9907,-1.9786,-1.9515,-1.9482,-1.9156,-1.8827,-1.8555,-1.84,-1.8315,-1.8224,-1.8078,-1.8018,-1.792,-1.7914,-1.7914,-1.817,-1.8638,-1.9156,-1.9527,-1.9825,-2.0086,-2.0061,-2.0112,-2.0302,-2.0579,-2.0994,-2.086,-2.0618,-2.0957,-2.0908,-2.095,-2.1244,-2.1547,-2.1361,-2.1595,-2.1786,-2.1935,-2.2037,-2.2123,-2.2224,-2.217,-2.2177,-2.2417,-2.237,-2.2502,-2.2866,-2.3098,-2.3231,-2.329,-2.3371,-2.3545,-2.3675,-2.3711,-2.3746,-2.3847,-2.3932,-2.3932,-2.389,-2.389,-2.389,-2.3847,-2.3847,-2.389,-2.3882,-2.389,-2.389,-2.3832,-2.3789,-2.3761,-2.3761,-2.3812,-2.3862,-2.3947,-2.394,-2.3932,-2.3932,-2.389,-2.3935,-2.4076,-2.4817,-2.5631,-2.6372,-2.7142,-2.7827,-2.8142,-2.7866,-2.7852,-2.8221,-2.8208,-2.7981,-2.814,-2.8297,-2.8395,-2.8463,-2.8305,-2.8144,-2.8095,-2.79,-2.7317,-2.6894,-2.6742,-2.6683,-2.214,-2.2502,-2.3431,-2.3384,-2.2838,-2.2277,-2.1652,-2.1023,-2.0492,-2.0181,-1.9965,-1.9301,-1.905,-1.9156,-1.8697,-1.8488,-1.8578,-1.8159,-1.7941,-1.7826,-1.7771,-1.7782,-1.7738,-1.7683,-1.7623,-1.7523,-1.7418,-1.7312,-1.7307,-1.7518,-1.8093,-1.8667,-1.888,-1.9097,-1.9331,-1.9454,-1.9396,-1.9654,-2.0007,-1.9896,-1.9633,-1.9805,-2.0061,-1.9907,-2.0118,-2.0334,-2.0334,-2.0703,-2.0993,-2.1237,-2.1492,-2.1698,-2.1793,-2.1834,-2.1888,-2.2037,-2.213,-2.2217,-2.2449,-2.2835,-2.3068,-2.3171,-2.3253,-2.3371,-2.3509,-2.3517,-2.3553,-2.3617,-2.3703,-2.3668,-2.3625,-2.3581,-2.3617,-2.3625,-2.3625,-2.3625,-2.3625,-2.361,-2.361,-2.3602,-2.3566,-2.3502,-2.3509,-2.3517,-2.3596,-2.3675,-2.3718,-2.3711,-2.3668,-2.3668,-2.3711,-2.3947,-2.4622,-2.5362,-2.607,-2.6682,-2.7059,-2.7475,-2.7524,-2.7473,-2.764,-2.7456,-2.7228,-2.7138,-2.7236,-2.7331,-2.7551,-2.778,-2.79,-2.7784,-2.7523,-2.7204,-2.6892,-2.6741,-2.6665,-2.1176,-2.0976,-2.1045,-2.0902,-2.0685,-2.0534,-2.0076,-1.9473,-1.915,-1.8886,-1.8667,-1.8304,-1.8201,-1.8153,-1.7886,-1.7573,-1.7672,-1.7407,-1.7245,-1.719,-1.7195,-1.719,-1.7195,-1.7195,-1.7134,-1.7083,-1.6976,-1.6976,-1.6971,-1.6976,-1.7088,-1.7562,-1.7924,-1.8195,-1.8488,-1.8756,-1.878,-1.872,-1.8952,-1.897,-1.872,-1.8916,-1.9115,-1.8768,-1.9442,-1.9482,-1.9417,-1.9888,-2.0137,-2.039,-2.0653,-2.0908,-2.1062,-2.1097,-2.1292,-2.1541,-2.1589,-2.1786,-2.2123,-2.2516,-2.285,-2.3075,-2.3164,-2.3201,-2.3327,-2.3378,-2.3371,-2.3443,-2.3472,-2.3443,-2.34,-2.3392,-2.3392,-2.34,-2.3363,-2.3407,-2.3407,-2.34,-2.3348,-2.3356,-2.3282,-2.326,-2.326,-2.3216,-2.3334,-2.3451,-2.3494,-2.3487,-2.3487,-2.3443,-2.3487,-2.361,-2.4256,-2.4535,-2.5191,-2.575,-2.6246,-2.6672,-2.7098,-2.7007,-2.6906,-2.6751,-2.6515,-2.6378,-2.6345,-2.6672,-2.7039,-2.7562,-2.7732,-2.7702,-2.7609,-2.745,-2.7132,-2.6746,-2.6696,-1.9767,-1.9518,-1.892,-1.8946,-1.9371,-1.9302,-1.8986,-1.8518,-1.8267,-1.7843,-1.7457,-1.7451,-1.7451,-1.7346,-1.724,-1.7083,-1.7027,-1.6864,-1.6756,-1.6705,-1.6705,-1.6699,-1.6699,-1.6756,-1.6756,-1.6699,-1.6699,-1.6643,-1.6699,-1.6705,-1.6756,-1.6858,-1.7011,-1.7279,-1.7645,-1.7982,-1.8127,-1.7977,-1.8166,-1.8282,-1.8035,-1.8267,-1.8423,-1.8182,-1.8703,-1.8863,-1.8792,-1.9156,-1.9411,-1.9573,-1.9792,-1.9959,-2.0003,-2.0105,-2.0352,-2.0646,-2.0937,-2.1195,-2.1684,-2.227,-2.2562,-2.2706,-2.2895,-2.2971,-2.309,-2.3187,-2.3246,-2.3312,-2.3312,-2.3216,-2.3127,-2.3076,-2.2994,-2.2956,-2.3105,-2.3157,-2.3157,-2.3149,-2.3105,-2.3068,-2.3082,-2.3082,-2.3082,-2.3075,-2.3201,-2.3282,-2.3282,-2.3327,-2.3363,-2.3319,-2.3319,-2.348,-2.3802,-2.3956,-2.4154,-2.4989,-2.5736,-2.601,-2.6278,-2.6184,-2.6085,-2.6015,-2.6059,-2.6015,-2.6051,-2.6168,-2.6383,-2.6746,-2.7221,-2.7668,-2.7476,-2.7209,-2.6881,-2.6522,-2.6716,-1.7814,-1.8046,-1.7242,-1.7843,-1.9004,-1.8754,-1.8446,-1.8141,-1.7826,-1.734,-1.6858,-1.6858,-1.6864,-1.6812,-1.6802,-1.6694,-1.6637,-1.6575,-1.6524,-1.6426,-1.6368,-1.6472,-1.6477,-1.6483,-1.642,-1.6529,-1.6477,-1.6374,-1.6374,-1.6374,-1.6374,-1.6368,-1.641,-1.6513,-1.6812,-1.7083,-1.7251,-1.7278,-1.7611,-1.7662,-1.7717,-1.7782,-1.7793,-1.7848,-1.8007,-1.8067,-1.8164,-1.8477,-1.8732,-1.8786,-1.9109,-1.9325,-1.9331,-1.943,-1.9631,-1.9843,-1.9888,-2.0245,-2.0802,-2.1684,-2.203,-2.2177,-2.237,-2.2441,-2.2663,-2.2821,-2.2873,-2.2694,-2.2994,-2.2852,-2.2754,-2.2716,-2.2639,-2.2745,-2.2933,-2.2978,-2.2978,-2.2978,-2.2978,-2.2978,-2.2933,-2.2888,-2.2888,-2.2933,-2.3068,-2.3157,-2.312,-2.3164,-2.3201,-2.3194,-2.3149,-2.3268,-2.3508,-2.3709,-2.3998,-2.4631,-2.5209,-2.5416,-2.5613,-2.565,-2.5725,-2.5844,-2.5815,-2.5704,-2.5778,-2.5926,-2.5844,-2.5827,-2.6365,-2.6871,-2.6955,-2.674,-2.6482,-2.6538,-2.6902,-1.6811,-1.6586,-1.63,-1.6523,-1.705,-1.6957,-1.6882,-1.6781,-1.6673,-1.657,-1.6529,-1.641,-1.6348,-1.6348,-1.6348,-1.6301,-1.6186,-1.6233,-1.6186,-1.6087,-1.6082,-1.6087,-1.6144,-1.6139,-1.6139,-1.6139,-1.6087,-1.6092,-1.6087,-1.6092,-1.6097,-1.6034,-1.6087,-1.6202,-1.654,-1.6756,-1.6925,-1.6947,-1.7089,-1.71,-1.7088,-1.719,-1.719,-1.7245,-1.7357,-1.7407,-1.7462,-1.7892,-1.8001,-1.8056,-1.8435,-1.8542,-1.859,-1.8685,-1.8945,-1.9156,-1.9254,-1.9683,-2.0048,-2.0547,-2.0986,-2.1389,-2.1636,-2.1623,-2.1616,-2.1664,-2.1704,-2.1894,-2.2203,-2.2156,-2.2163,-2.2502,-2.2608,-2.2797,-2.294,-2.2933,-2.2933,-2.2933,-2.2933,-2.2933,-2.2888,-2.2843,-2.2843,-2.2752,-2.2835,-2.2881,-2.2881,-2.2985,-2.303,-2.3023,-2.2971,-2.3098,-2.3253,-2.3493,-2.3872,-2.4395,-2.4775,-2.506,-2.5301,-2.547,-2.5546,-2.5621,-2.5613,-2.5546,-2.5613,-2.568,-2.565,-2.5613,-2.5688,-2.5913,-2.629,-2.6792,-2.6929,-2.7125,-2.7509,-1.5979,-1.5735,-1.5682,-1.5677,-1.5677,-1.5956,-1.5967,-1.5919,-1.6014,-1.6134,-1.6202,-1.6066,-1.6072,-1.6072,-1.6014,-1.6019,-1.5914,-1.5967,-1.6014,-1.5914,-1.5914,-1.5914,-1.5914,-1.5914,-1.5972,-1.5914,-1.5914,-1.5914,-1.5914,-1.5914,-1.5914,-1.5861,-1.5861,-1.5967,-1.6192,-1.641,-1.6513,-1.6596,-1.6649,-1.6716,-1.6715,-1.6756,-1.6751,-1.6812,-1.6864,-1.6965,-1.7022,-1.7195,-1.7373,-1.7484,-1.759,-1.7744,-1.7837,-1.7995,-1.8255,-1.8417,-1.8833,-1.9208,-1.9365,-1.9475,-1.9914,-2.0314,-2.0633,-2.0852,-2.0908,-2.1097,-2.1084,-2.123,-2.1354,-2.1451,-2.1636,-2.203,-2.2231,-2.2417,-2.2356,-2.2303,-2.2502,-2.2456,-2.2555,-2.2601,-2.2692,-2.2699,-2.2706,-2.2615,-2.2608,-2.2601,-2.2646,-2.2752,-2.285,-2.2843,-2.2835,-2.2918,-2.3046,-2.3297,-2.3595,-2.4002,-2.4385,-2.4662,-2.491,-2.5154,-2.5325,-2.5394,-2.5424,-2.5424,-2.5462,-2.547,-2.5462,-2.5462,-2.5492,-2.5736,-2.6117,-2.6652,-2.7228,-2.7517,-2.7696,-1.5269,-1.5357,-1.5259,-1.522,-1.5279,-1.5677,-1.5851,-1.5851,-1.5851,-1.5919,-1.5914,-1.5914,-1.5914,-1.5856,-1.5856,-1.5851,-1.5851,-1.5861,-1.5856,-1.5851,-1.5788,-1.5851,-1.5851,-1.5798,-1.5788,-1.5851,-1.5856,-1.5788,-1.5851,-1.5788,-1.573,-1.5735,-1.5735,-1.5788,-1.5831,-1.5999,-1.6104,-1.6249,-1.6322,-1.6389,-1.642,-1.6529,-1.6586,-1.6643,-1.6694,-1.6756,-1.6869,-1.6925,-1.6925,-1.692,-1.7022,-1.7011,-1.7123,-1.72,-1.7429,-1.7805,-1.8315,-1.8519,-1.8679,-1.8679,-1.8786,-1.919,-1.9825,-2.0302,-2.051,-2.0553,-2.0597,-2.0795,-2.0957,-2.0908,-2.0957,-2.1209,-2.1458,-2.1451,-2.1341,-2.1486,-2.1786,-2.1888,-2.2037,-2.213,-2.227,-2.2317,-2.2363,-2.2317,-2.2377,-2.237,-2.241,-2.2516,-2.2615,-2.2699,-2.2692,-2.2692,-2.2866,-2.309,-2.34,-2.3746,-2.4219,-2.4541,-2.4622,-2.4823,-2.4958,-2.5131,-2.5123,-2.5162,-2.5209,-2.5248,-2.524,-2.5262,-2.5301,-2.5583,-2.5814,-2.6094,-2.6607,-2.7147,-2.7355,-1.5088,-1.5142,-1.5088,-1.5043,-1.5098,-1.5205,-1.5376,-1.5541,-1.5546,-1.5667,-1.5914,-1.5803,-1.574,-1.574,-1.574,-1.5672,-1.5614,-1.5672,-1.5614,-1.5609,-1.5546,-1.5546,-1.5546,-1.5546,-1.5536,-1.5541,-1.5546,-1.5546,-1.5536,-1.5541,-1.5541,-1.5483,-1.5541,-1.5483,-1.5599,-1.5715,-1.5841,-1.5961,-1.6087,-1.6139,-1.6244,-1.6353,-1.6415,-1.6477,-1.6581,-1.6643,-1.6699,-1.6756,-1.6756,-1.6807,-1.6807,-1.6858,-1.7005,-1.7072,-1.719,-1.7384,-1.7639,-1.7738,-1.7958,-1.8012,-1.8061,-1.8219,-1.8703,-1.9069,-1.9436,-1.9843,-1.9991,-2.0099,-2.0352,-2.0302,-2.0289,-2.044,-2.0802,-2.1006,-2.0944,-2.114,-2.1444,-2.1691,-2.1841,-2.1942,-2.203,-2.203,-2.2077,-2.2084,-2.2137,-2.2177,-2.2224,-2.2278,-2.2377,-2.2417,-2.2502,-2.2548,-2.2639,-2.2814,-2.312,-2.3465,-2.3986,-2.4418,-2.45,-2.4541,-2.471,-2.4799,-2.4846,-2.4886,-2.5005,-2.5045,-2.5045,-2.5029,-2.4926,-2.5147,-2.5373,-2.562,-2.5961,-2.6443,-2.6828,-1.4803,-1.4803,-1.4803,-1.4798,-1.4803,-1.4798,-1.4907,-1.5123,-1.5181,-1.5376,-1.5566,-1.5444,-1.5439,-1.5444,-1.5386,-1.5323,-1.5254,-1.5318,-1.5318,-1.5259,-1.5254,-1.525,-1.5245,-1.525,-1.5254,-1.5254,-1.5254,-1.5254,-1.5303,-1.5303,-1.5308,-1.5254,-1.5245,-1.5303,-1.5366,-1.543,-1.5551,-1.5725,-1.5846,-1.5961,-1.6072,-1.6181,-1.6244,-1.6301,-1.6405,-1.6472,-1.6529,-1.6643,-1.6648,-1.6643,-1.6648,-1.6745,-1.6848,-1.6909,-1.6915,-1.7105,-1.7155,-1.7251,-1.7412,-1.7468,-1.7584,-1.7755,-1.7871,-1.8284,-1.8649,-1.8957,-1.9022,-1.9087,-1.9384,-1.9585,-1.9625,-1.9767,-2.0232,-2.0746,-2.0795,-2.0888,-2.1188,-2.1534,-2.1684,-2.1786,-2.1841,-2.1841,-2.1841,-2.1895,-2.1848,-2.1793,-2.1793,-2.18,-2.1996,-2.2184,-2.227,-2.231,-2.2402,-2.2579,-2.2882,-2.315,-2.3587,-2.4063,-2.441,-2.4459,-2.4508,-2.4597,-2.4678,-2.4759,-2.4799,-2.4791,-2.4791,-2.4566,-2.4508,-2.4653,-2.4606,-2.4541,-2.494,-2.5641,-2.5895,-1.4451,-1.452,-1.4515,-1.451,-1.4515,-1.451,-1.462,-1.4706,-1.4902,-1.5029,-1.5152,-1.5093,-1.5034,-1.5098,-1.5098,-1.5098,-1.5093,-1.5093,-1.5147,-1.5024,-1.5093,-1.5088,-1.5093,-1.5039,-1.5093,-1.5039,-1.5034,-1.5142,-1.5152,-1.5152,-1.5147,-1.5039,-1.5039,-1.5093,-1.5205,-1.5205,-1.5323,-1.543,-1.5609,-1.5793,-1.5899,-1.6009,-1.6056,-1.6119,-1.6249,-1.6322,-1.6374,-1.6379,-1.6384,-1.6431,-1.6477,-1.6575,-1.6689,-1.6751,-1.6812,-1.6818,-1.6874,-1.692,-1.7027,-1.7078,-1.7145,-1.7318,-1.7495,-1.7744,-1.7946,-1.8477,-1.8596,-1.8649,-1.8998,-1.9168,-1.9214,-1.9103,-1.9359,-1.9888,-2.0156,-2.0396,-2.0739,-2.1091,-2.1403,-2.1506,-2.1602,-2.1602,-2.1561,-2.1568,-2.1657,-2.1506,-2.1458,-2.1513,-2.1609,-2.1848,-2.1942,-2.203,-2.207,-2.2163,-2.2487,-2.2754,-2.3143,-2.358,-2.3979,-2.4204,-2.4162,-2.4336,-2.4597,-2.4589,-2.4581,-2.4492,-2.4444,-2.4181,-2.3921,-2.389,-2.3763,-2.3414,-2.3814,-2.4618,-2.5008,-1.4281,-1.4506,-1.4469,-1.4515,-1.4515,-1.4515,-1.4556,-1.4715,-1.462,-1.4748,-1.4975,-1.5039,-1.498,-1.4975,-1.4928,-1.4918,-1.4937,-1.4831,-1.4966,-1.4951,-1.4951,-1.4921,-1.498,-1.4921,-1.498,-1.5039,-1.5034,-1.497,-1.4975,-1.5034,-1.5034,-1.4975,-1.498,-1.498,-1.5029,-1.5029,-1.5088,-1.5137,-1.5323,-1.5561,-1.5672,-1.5851,-1.5961,-1.5961,-1.6029,-1.6134,-1.6129,-1.6181,-1.6249,-1.6374,-1.6431,-1.6477,-1.6632,-1.6756,-1.6756,-1.6756,-1.6756,-1.6812,-1.6802,-1.6858,-1.692,-1.6925,-1.7038,-1.7088,-1.7401,-1.8093,-1.8465,-1.8513,-1.8566,-1.8685,-1.8697,-1.8536,-1.8536,-1.9022,-1.9506,-1.9895,-2.0283,-2.0703,-2.1068,-2.1222,-2.1313,-2.1319,-2.1277,-2.1326,-2.1368,-2.141,-2.141,-2.1416,-2.1416,-2.1506,-2.1561,-2.1602,-2.1602,-2.1739,-2.203,-2.2402,-2.2747,-2.2965,-2.3319,-2.3544,-2.3731,-2.3867,-2.4036,-2.4253,-2.4336,-2.4154,-2.3887,-2.3658,-2.345,-2.3326,-2.3157,-2.2934,-2.2942,-2.3573,-2.3966,-1.383,-1.3903,-1.4014,-1.4065,-1.407,-1.407,-1.4121,-1.4112,-1.4065,-1.4249,-1.4556,-1.468,-1.4803,-1.4728,-1.4615,-1.4517,-1.4522,-1.4513,-1.4422,-1.4517,-1.4732,-1.4729,-1.4798,-1.4803,-1.4743,-1.4803,-1.4848,-1.4843,-1.4803,-1.4852,-1.4848,-1.4803,-1.4803,-1.4798,-1.4843,-1.4843,-1.4911,-1.4975,-1.5098,-1.521,-1.5439,-1.5614,-1.5793,-1.5793,-1.5851,-1.5961,-1.5956,-1.6009,-1.6124,-1.6254,-1.6316,-1.6426,-1.6477,-1.6545,-1.6602,-1.6596,-1.6591,-1.6648,-1.6699,-1.6694,-1.6751,-1.6751,-1.6812,-1.692,-1.6915,-1.7507,-1.7562,-1.7611,-1.7655,-1.7771,-1.7831,-1.7727,-1.8098,-1.8578,-1.8898,-1.9254,-1.9978,-2.0709,-2.0977,-2.1089,-2.118,-2.1131,-2.1138,-2.1138,-2.118,-2.118,-2.1229,-2.1229,-2.1222,-2.1271,-2.1271,-2.1271,-2.1319,-2.1368,-2.1554,-2.1983,-2.2402,-2.2572,-2.2701,-2.292,-2.3187,-2.3297,-2.3436,-2.3638,-2.3673,-2.3551,-2.3282,-2.3002,-2.295,-2.2868,-2.2701,-2.248,-2.2586,-2.2685,-2.3067,-1.3368,-1.3287,-1.3437,-1.3511,-1.3511,-1.3511,-1.3511,-1.3511,-1.3511,-1.3696,-1.4043,-1.425,-1.4382,-1.4295,-1.4015,-1.3892,-1.3912,-1.4075,-1.3985,-1.41,-1.435,-1.4519,-1.457,-1.4515,-1.457,-1.4565,-1.4675,-1.462,-1.4575,-1.462,-1.462,-1.4515,-1.451,-1.4565,-1.4661,-1.4711,-1.4725,-1.4852,-1.4916,-1.4966,-1.5137,-1.5376,-1.5556,-1.5677,-1.5735,-1.5856,-1.5856,-1.5909,-1.5956,-1.6077,-1.6197,-1.6254,-1.6306,-1.6363,-1.6431,-1.6431,-1.6483,-1.6477,-1.6534,-1.6586,-1.6637,-1.6694,-1.6756,-1.6756,-1.6756,-1.6756,-1.6812,-1.6864,-1.696,-1.7123,-1.7179,-1.7234,-1.7661,-1.8141,-1.8405,-1.8827,-1.9773,-2.0616,-2.0835,-2.0997,-2.0997,-2.0997,-2.0997,-2.0997,-2.0997,-2.0997,-2.0997,-2.0997,-2.1046,-2.1095,-2.1095,-2.1144,-2.1193,-2.1235,-2.1222,-2.1602,-2.2077,-2.2023,-2.2149,-2.2374,-2.2649,-2.2792,-2.2889,-2.2882,-2.2875,-2.2792,-2.2618,-2.2381,-2.2335,-2.2328,-2.2289,-2.217,-2.2217,-2.2317,-2.241,-1.3216,-1.3442,-1.3511,-1.3511,-1.345,-1.345,-1.3511,-1.3511,-1.345,-1.3696,-1.378,-1.3668,-1.3722,-1.3974,-1.3584,-1.3415,-1.3447,-1.3621,-1.3818,-1.3956,-1.4046,-1.4314,-1.4437,-1.4291,-1.4446,-1.4446,-1.4442,-1.451,-1.4327,-1.4387,-1.4506,-1.4451,-1.4446,-1.4506,-1.4506,-1.4561,-1.4556,-1.4684,-1.4729,-1.4775,-1.4843,-1.5088,-1.5215,-1.5327,-1.543,-1.5551,-1.5667,-1.573,-1.5793,-1.5909,-1.5967,-1.6087,-1.6134,-1.6186,-1.6249,-1.6259,-1.6316,-1.6316,-1.6368,-1.6368,-1.6426,-1.6472,-1.6477,-1.6483,-1.6483,-1.6534,-1.6534,-1.6596,-1.6751,-1.7072,-1.7134,-1.6971,-1.7234,-1.7765,-1.8141,-1.888,-1.9676,-2.0328,-2.0712,-2.0812,-2.0904,-2.0855,-2.0812,-2.0855,-2.0891,-2.0891,-2.0891,-2.0891,-2.0842,-2.0904,-2.0961,-2.101,-2.101,-2.1053,-2.1039,-2.141,-2.1746,-2.165,-2.1602,-2.1827,-2.2102,-2.2374,-2.2466,-2.2328,-2.2203,-2.207,-2.1895,-2.1841,-2.1746,-2.1786,-2.1888,-2.1895,-2.1902,-2.1996,-2.2084]}]]